<?xml version='1.0' encoding='UTF-8'?><gpx version="1.1" creator="JPX - https://github.com/jenetics/jpx" xmlns="http://www.topografix.com/GPX/1/1"><trk><trkseg><trkpt lat="45.448795" lon="10.94077"><ele>79.0</ele><time>2026-03-22T13:27:59.427Z</time></trkpt><trkpt lat="45.4487383" lon="10.94067"><ele>79.0</ele><time>2026-03-22T13:28:01.427Z</time></trkpt><trkpt lat="45.4486983" lon="10.940555"><ele>79.0</ele><time>2026-03-22T13:28:03.426Z</time></trkpt><trkpt lat="45.4486283" lon="10.9404217"><ele>79.0</ele><time>2026-03-22T13:28:05.427Z</time></trkpt><trkpt lat="45.4486017" lon="10.9402683"><ele>79.0</ele><time>2026-03-22T13:28:07.426Z</time></trkpt><trkpt lat="45.4486033" lon="10.9401"><ele>79.0</ele><time>2026-03-22T13:28:09.427Z</time></trkpt><trkpt lat="45.448535" lon="10.94"><ele>79.0</ele><time>2026-03-22T13:28:11.426Z</time></trkpt><trkpt lat="45.4484033" lon="10.9399933"><ele>79.0</ele><time>2026-03-22T13:28:13.426Z</time></trkpt><trkpt lat="45.4483183" lon="10.94002"><ele>79.0</ele><time>2026-03-22T13:28:14.426Z</time></trkpt><trkpt lat="45.448235" lon="10.940045"><ele>79.0</ele><time>2026-03-22T13:28:15.426Z</time></trkpt><trkpt lat="45.4481483" lon="10.940065"><ele>79.0</ele><time>2026-03-22T13:28:16.426Z</time></trkpt><trkpt lat="45.4480733" lon="10.940085"><ele>79.0</ele><time>2026-03-22T13:28:17.426Z</time></trkpt><trkpt lat="45.4479683" lon="10.9401167"><ele>79.0</ele><time>2026-03-22T13:28:19.427Z</time></trkpt><trkpt lat="45.4479117" lon="10.9400517"><ele>79.0</ele><time>2026-03-22T13:28:22.426Z</time></trkpt><trkpt lat="45.44801" lon="10.9399817"><ele>79.0</ele><time>2026-03-22T13:28:25.426Z</time></trkpt><trkpt lat="45.448115" lon="10.939955"><ele>78.75</ele><time>2026-03-22T13:28:26.426Z</time></trkpt><trkpt lat="45.4482417" lon="10.9399217"><ele>78.5</ele><time>2026-03-22T13:28:27.426Z</time></trkpt><trkpt lat="45.44837" lon="10.9398883"><ele>78.25</ele><time>2026-03-22T13:28:28.426Z</time></trkpt><trkpt lat="45.44849" lon="10.9398633"><ele>78.0</ele><time>2026-03-22T13:28:29.427Z</time></trkpt><trkpt lat="45.448605" lon="10.9398333"><ele>78.0</ele><time>2026-03-22T13:28:30.427Z</time></trkpt><trkpt lat="45.44871" lon="10.9398117"><ele>78.0</ele><time>2026-03-22T13:28:31.427Z</time></trkpt><trkpt lat="45.4488017" lon="10.9397933"><ele>78.0</ele><time>2026-03-22T13:28:32.427Z</time></trkpt><trkpt lat="45.4488817" lon="10.9397783"><ele>78.0</ele><time>2026-03-22T13:28:33.426Z</time></trkpt><trkpt lat="45.448955" lon="10.9397683"><ele>78.0</ele><time>2026-03-22T13:28:34.426Z</time></trkpt><trkpt lat="45.44902" lon="10.9397717"><ele>78.0</ele><time>2026-03-22T13:28:35.426Z</time></trkpt><trkpt lat="45.449085" lon="10.9397883"><ele>78.0</ele><time>2026-03-22T13:28:36.427Z</time></trkpt><trkpt lat="45.4491567" lon="10.9397883"><ele>78.0</ele><time>2026-03-22T13:28:37.426Z</time></trkpt><trkpt lat="45.4492333" lon="10.9397633"><ele>78.0</ele><time>2026-03-22T13:28:38.426Z</time></trkpt><trkpt lat="45.4493133" lon="10.9397033"><ele>78.0</ele><time>2026-03-22T13:28:39.426Z</time></trkpt><trkpt lat="45.449405" lon="10.9396483"><ele>78.0</ele><time>2026-03-22T13:28:40.427Z</time></trkpt><trkpt lat="45.449505" lon="10.9396183"><ele>78.0</ele><time>2026-03-22T13:28:41.427Z</time></trkpt><trkpt lat="45.44962" lon="10.9396017"><ele>78.5</ele><time>2026-03-22T13:28:42.427Z</time></trkpt><trkpt lat="45.4497367" lon="10.939585"><ele>79.0</ele><time>2026-03-22T13:28:43.426Z</time></trkpt><trkpt lat="45.4498533" lon="10.9395683"><ele>79.5</ele><time>2026-03-22T13:28:44.426Z</time></trkpt><trkpt lat="45.44998" lon="10.9395583"><ele>80.0</ele><time>2026-03-22T13:28:45.427Z</time></trkpt><trkpt lat="45.450115" lon="10.9395467"><ele>80.0</ele><time>2026-03-22T13:28:46.426Z</time></trkpt><trkpt lat="45.4502583" lon="10.9395467"><ele>80.0</ele><time>2026-03-22T13:28:47.426Z</time></trkpt><trkpt lat="45.4504033" lon="10.9395433"><ele>80.0</ele><time>2026-03-22T13:28:48.426Z</time></trkpt><trkpt lat="45.450555" lon="10.9395483"><ele>80.0</ele><time>2026-03-22T13:28:49.426Z</time></trkpt><trkpt lat="45.4507067" lon="10.9395467"><ele>80.0</ele><time>2026-03-22T13:28:50.427Z</time></trkpt><trkpt lat="45.4508617" lon="10.939545"><ele>80.0</ele><time>2026-03-22T13:28:51.427Z</time></trkpt><trkpt lat="45.4510117" lon="10.9395517"><ele>80.0</ele><time>2026-03-22T13:28:52.427Z</time></trkpt><trkpt lat="45.4511567" lon="10.93956"><ele>80.0</ele><time>2026-03-22T13:28:53.427Z</time></trkpt><trkpt lat="45.4513033" lon="10.9395683"><ele>80.0</ele><time>2026-03-22T13:28:54.427Z</time></trkpt><trkpt lat="45.451445" lon="10.939575"><ele>80.0</ele><time>2026-03-22T13:28:55.427Z</time></trkpt><trkpt lat="45.4515867" lon="10.9395783"><ele>80.0</ele><time>2026-03-22T13:28:56.426Z</time></trkpt><trkpt lat="45.4517283" lon="10.939585"><ele>80.0</ele><time>2026-03-22T13:28:57.426Z</time></trkpt><trkpt lat="45.4518783" lon="10.9395883"><ele>80.0</ele><time>2026-03-22T13:28:58.426Z</time></trkpt><trkpt lat="45.4520233" lon="10.9395933"><ele>80.0</ele><time>2026-03-22T13:28:59.427Z</time></trkpt><trkpt lat="45.4521683" lon="10.9396067"><ele>80.0</ele><time>2026-03-22T13:29:00.426Z</time></trkpt><trkpt lat="45.4523133" lon="10.9396183"><ele>79.75</ele><time>2026-03-22T13:29:01.427Z</time></trkpt><trkpt lat="45.45246" lon="10.9396317"><ele>79.5</ele><time>2026-03-22T13:29:02.426Z</time></trkpt><trkpt lat="45.452605" lon="10.9396383"><ele>79.25</ele><time>2026-03-22T13:29:03.426Z</time></trkpt><trkpt lat="45.4527517" lon="10.93965"><ele>79.0</ele><time>2026-03-22T13:29:04.427Z</time></trkpt><trkpt lat="45.4528967" lon="10.9396583"><ele>79.5</ele><time>2026-03-22T13:29:05.426Z</time></trkpt><trkpt lat="45.4530433" lon="10.9396567"><ele>80.0</ele><time>2026-03-22T13:29:06.426Z</time></trkpt><trkpt lat="45.4531933" lon="10.9396567"><ele>80.5</ele><time>2026-03-22T13:29:07.426Z</time></trkpt><trkpt lat="45.45334" lon="10.9396583"><ele>81.0</ele><time>2026-03-22T13:29:08.427Z</time></trkpt><trkpt lat="45.45349" lon="10.939655"><ele>81.0</ele><time>2026-03-22T13:29:09.426Z</time></trkpt><trkpt lat="45.4536433" lon="10.93965"><ele>81.0</ele><time>2026-03-22T13:29:10.427Z</time></trkpt><trkpt lat="45.453795" lon="10.9396483"><ele>81.0</ele><time>2026-03-22T13:29:11.427Z</time></trkpt><trkpt lat="45.4539533" lon="10.9396467"><ele>81.66666666666667</ele><time>2026-03-22T13:29:12.426Z</time></trkpt><trkpt lat="45.4541133" lon="10.9396383"><ele>82.33333333333334</ele><time>2026-03-22T13:29:13.427Z</time></trkpt><trkpt lat="45.4542717" lon="10.93963"><ele>83.0</ele><time>2026-03-22T13:29:14.426Z</time></trkpt><trkpt lat="45.454435" lon="10.93963"><ele>83.0</ele><time>2026-03-22T13:29:15.426Z</time></trkpt><trkpt lat="45.4546017" lon="10.9396333"><ele>83.0</ele><time>2026-03-22T13:29:16.426Z</time></trkpt><trkpt lat="45.4547767" lon="10.9396233"><ele>83.0</ele><time>2026-03-22T13:29:17.426Z</time></trkpt><trkpt lat="45.454945" lon="10.9396183"><ele>83.0</ele><time>2026-03-22T13:29:18.426Z</time></trkpt><trkpt lat="45.4551133" lon="10.939595"><ele>83.0</ele><time>2026-03-22T13:29:19.427Z</time></trkpt><trkpt lat="45.4552917" lon="10.9395683"><ele>83.0</ele><time>2026-03-22T13:29:20.426Z</time></trkpt><trkpt lat="45.45547" lon="10.9395467"><ele>83.0</ele><time>2026-03-22T13:29:21.427Z</time></trkpt><trkpt lat="45.4556367" lon="10.9395117"><ele>83.0</ele><time>2026-03-22T13:29:22.427Z</time></trkpt><trkpt lat="45.4558" lon="10.9394667"><ele>83.0</ele><time>2026-03-22T13:29:23.426Z</time></trkpt><trkpt lat="45.4559517" lon="10.93943"><ele>83.0</ele><time>2026-03-22T13:29:24.426Z</time></trkpt><trkpt lat="45.4560967" lon="10.939395"><ele>83.0</ele><time>2026-03-22T13:29:25.426Z</time></trkpt><trkpt lat="45.4562217" lon="10.93938"><ele>83.0</ele><time>2026-03-22T13:29:26.426Z</time></trkpt><trkpt lat="45.4563433" lon="10.9393533"><ele>83.0</ele><time>2026-03-22T13:29:27.426Z</time></trkpt><trkpt lat="45.4564533" lon="10.9393333"><ele>83.0</ele><time>2026-03-22T13:29:28.427Z</time></trkpt><trkpt lat="45.4565567" lon="10.93932"><ele>83.0</ele><time>2026-03-22T13:29:29.427Z</time></trkpt><trkpt lat="45.4566467" lon="10.9392983"><ele>83.0</ele><time>2026-03-22T13:29:30.426Z</time></trkpt><trkpt lat="45.456725" lon="10.9392883"><ele>83.0</ele><time>2026-03-22T13:29:31.426Z</time></trkpt><trkpt lat="45.4568383" lon="10.9392917"><ele>83.0</ele><time>2026-03-22T13:29:33.427Z</time></trkpt><trkpt lat="45.45693" lon="10.9394083"><ele>83.0</ele><time>2026-03-22T13:29:35.427Z</time></trkpt><trkpt lat="45.4569767" lon="10.93949"><ele>83.0</ele><time>2026-03-22T13:29:36.427Z</time></trkpt><trkpt lat="45.4570833" lon="10.939545"><ele>83.0</ele><time>2026-03-22T13:29:38.426Z</time></trkpt><trkpt lat="45.4571417" lon="10.9395067"><ele>83.0</ele><time>2026-03-22T13:29:39.426Z</time></trkpt><trkpt lat="45.4572067" lon="10.93945"><ele>83.0</ele><time>2026-03-22T13:29:40.427Z</time></trkpt><trkpt lat="45.457285" lon="10.9394"><ele>83.0</ele><time>2026-03-22T13:29:41.426Z</time></trkpt><trkpt lat="45.4573733" lon="10.9393733"><ele>82.80000000000001</ele><time>2026-03-22T13:29:42.427Z</time></trkpt><trkpt lat="45.45747" lon="10.9393667"><ele>82.6</ele><time>2026-03-22T13:29:43.426Z</time></trkpt><trkpt lat="45.4575767" lon="10.9393583"><ele>82.4</ele><time>2026-03-22T13:29:44.426Z</time></trkpt><trkpt lat="45.4576883" lon="10.939345"><ele>82.19999999999999</ele><time>2026-03-22T13:29:45.426Z</time></trkpt><trkpt lat="45.4578083" lon="10.9393283"><ele>82.0</ele><time>2026-03-22T13:29:46.426Z</time></trkpt><trkpt lat="45.4579367" lon="10.9393183"><ele>82.25</ele><time>2026-03-22T13:29:47.426Z</time></trkpt><trkpt lat="45.45806" lon="10.9393083"><ele>82.5</ele><time>2026-03-22T13:29:48.426Z</time></trkpt><trkpt lat="45.458185" lon="10.939285"><ele>82.75</ele><time>2026-03-22T13:29:49.426Z</time></trkpt><trkpt lat="45.4583217" lon="10.9392733"><ele>83.0</ele><time>2026-03-22T13:29:50.427Z</time></trkpt><trkpt lat="45.4584667" lon="10.939245"><ele>83.0</ele><time>2026-03-22T13:29:51.427Z</time></trkpt><trkpt lat="45.4586133" lon="10.9392267"><ele>83.0</ele><time>2026-03-22T13:29:52.427Z</time></trkpt><trkpt lat="45.4587633" lon="10.939205"><ele>83.0</ele><time>2026-03-22T13:29:53.427Z</time></trkpt><trkpt lat="45.45891" lon="10.939175"><ele>83.0</ele><time>2026-03-22T13:29:54.426Z</time></trkpt><trkpt lat="45.4590583" lon="10.9391467"><ele>83.0</ele><time>2026-03-22T13:29:55.427Z</time></trkpt><trkpt lat="45.4592133" lon="10.9391283"><ele>83.0</ele><time>2026-03-22T13:29:56.427Z</time></trkpt><trkpt lat="45.459365" lon="10.9391033"><ele>83.0</ele><time>2026-03-22T13:29:57.426Z</time></trkpt><trkpt lat="45.4595083" lon="10.939075"><ele>83.25</ele><time>2026-03-22T13:29:58.426Z</time></trkpt><trkpt lat="45.459645" lon="10.939045"><ele>83.5</ele><time>2026-03-22T13:29:59.426Z</time></trkpt><trkpt lat="45.4597717" lon="10.9390217"><ele>83.75</ele><time>2026-03-22T13:30:00.426Z</time></trkpt><trkpt lat="45.459895" lon="10.9389883"><ele>84.0</ele><time>2026-03-22T13:30:01.426Z</time></trkpt><trkpt lat="45.46001" lon="10.93896"><ele>84.0</ele><time>2026-03-22T13:30:02.427Z</time></trkpt><trkpt lat="45.4601233" lon="10.938925"><ele>84.0</ele><time>2026-03-22T13:30:03.426Z</time></trkpt><trkpt lat="45.4602233" lon="10.9388833"><ele>84.0</ele><time>2026-03-22T13:30:04.426Z</time></trkpt><trkpt lat="45.4603217" lon="10.9388283"><ele>84.0</ele><time>2026-03-22T13:30:05.427Z</time></trkpt><trkpt lat="45.4604283" lon="10.9387883"><ele>84.0</ele><time>2026-03-22T13:30:06.427Z</time></trkpt><trkpt lat="45.4605267" lon="10.9387467"><ele>84.0</ele><time>2026-03-22T13:30:07.427Z</time></trkpt><trkpt lat="45.46061" lon="10.9387167"><ele>84.0</ele><time>2026-03-22T13:30:08.427Z</time></trkpt><trkpt lat="45.4607" lon="10.9386933"><ele>84.0</ele><time>2026-03-22T13:30:10.426Z</time></trkpt><trkpt lat="45.4608167" lon="10.9386433"><ele>84.0</ele><time>2026-03-22T13:30:17.427Z</time></trkpt><trkpt lat="45.46091" lon="10.9386"><ele>84.0</ele><time>2026-03-22T13:30:18.426Z</time></trkpt><trkpt lat="45.461015" lon="10.93852"><ele>84.0</ele><time>2026-03-22T13:30:19.426Z</time></trkpt><trkpt lat="45.4611133" lon="10.9383867"><ele>84.0</ele><time>2026-03-22T13:30:20.426Z</time></trkpt><trkpt lat="45.46121" lon="10.9382117"><ele>84.0</ele><time>2026-03-22T13:30:21.427Z</time></trkpt><trkpt lat="45.46131" lon="10.9380017"><ele>84.33333333333333</ele><time>2026-03-22T13:30:22.426Z</time></trkpt><trkpt lat="45.4614133" lon="10.937785"><ele>84.66666666666666</ele><time>2026-03-22T13:30:23.426Z</time></trkpt><trkpt lat="45.46152" lon="10.937565"><ele>85.0</ele><time>2026-03-22T13:30:24.427Z</time></trkpt><trkpt lat="45.4616283" lon="10.93733"><ele>85.0</ele><time>2026-03-22T13:30:25.427Z</time></trkpt><trkpt lat="45.4617483" lon="10.9370917"><ele>85.0</ele><time>2026-03-22T13:30:26.427Z</time></trkpt><trkpt lat="45.4618567" lon="10.9368683"><ele>85.0</ele><time>2026-03-22T13:30:27.426Z</time></trkpt><trkpt lat="45.4619667" lon="10.9366233"><ele>84.66666666666666</ele><time>2026-03-22T13:30:28.426Z</time></trkpt><trkpt lat="45.4620767" lon="10.9363683"><ele>84.33333333333333</ele><time>2026-03-22T13:30:29.425Z</time></trkpt><trkpt lat="45.4621783" lon="10.9361017"><ele>84.0</ele><time>2026-03-22T13:30:30.426Z</time></trkpt><trkpt lat="45.4622833" lon="10.9358367"><ele>84.66666666666667</ele><time>2026-03-22T13:30:31.425Z</time></trkpt><trkpt lat="45.4623817" lon="10.9355683"><ele>85.33333333333334</ele><time>2026-03-22T13:30:32.426Z</time></trkpt><trkpt lat="45.4624817" lon="10.935305"><ele>86.0</ele><time>2026-03-22T13:30:33.425Z</time></trkpt><trkpt lat="45.4625717" lon="10.93504"><ele>86.33333333333334</ele><time>2026-03-22T13:30:34.426Z</time></trkpt><trkpt lat="45.4626617" lon="10.9347733"><ele>86.66666666666667</ele><time>2026-03-22T13:30:35.426Z</time></trkpt><trkpt lat="45.4627517" lon="10.9345"><ele>87.0</ele><time>2026-03-22T13:30:36.426Z</time></trkpt><trkpt lat="45.4628317" lon="10.9342317"><ele>86.66666666666667</ele><time>2026-03-22T13:30:37.426Z</time></trkpt><trkpt lat="45.4629067" lon="10.933965"><ele>86.33333333333334</ele><time>2026-03-22T13:30:38.426Z</time></trkpt><trkpt lat="45.4629767" lon="10.9337033"><ele>86.0</ele><time>2026-03-22T13:30:39.426Z</time></trkpt><trkpt lat="45.46304" lon="10.933445"><ele>86.33333333333334</ele><time>2026-03-22T13:30:40.425Z</time></trkpt><trkpt lat="45.4631017" lon="10.933195"><ele>86.66666666666667</ele><time>2026-03-22T13:30:41.426Z</time></trkpt><trkpt lat="45.4631717" lon="10.93295"><ele>87.0</ele><time>2026-03-22T13:30:42.425Z</time></trkpt><trkpt lat="45.463235" lon="10.9327067"><ele>86.66666666666667</ele><time>2026-03-22T13:30:43.425Z</time></trkpt><trkpt lat="45.4633" lon="10.9324667"><ele>86.33333333333334</ele><time>2026-03-22T13:30:44.425Z</time></trkpt><trkpt lat="45.463365" lon="10.9322417"><ele>86.0</ele><time>2026-03-22T13:30:45.426Z</time></trkpt><trkpt lat="45.4634217" lon="10.93204"><ele>86.0</ele><time>2026-03-22T13:30:46.425Z</time></trkpt><trkpt lat="45.4634733" lon="10.9318417"><ele>86.0</ele><time>2026-03-22T13:30:47.425Z</time></trkpt><trkpt lat="45.463515" lon="10.9316683"><ele>86.0</ele><time>2026-03-22T13:30:48.425Z</time></trkpt><trkpt lat="45.4635633" lon="10.9315283"><ele>86.0</ele><time>2026-03-22T13:30:49.426Z</time></trkpt><trkpt lat="45.4636267" lon="10.9314183"><ele>86.33333333333334</ele><time>2026-03-22T13:30:50.425Z</time></trkpt><trkpt lat="45.4637017" lon="10.93134"><ele>86.66666666666667</ele><time>2026-03-22T13:30:51.426Z</time></trkpt><trkpt lat="45.4637867" lon="10.9312917"><ele>87.0</ele><time>2026-03-22T13:30:52.425Z</time></trkpt><trkpt lat="45.46388" lon="10.93126"><ele>87.33333333333333</ele><time>2026-03-22T13:30:53.426Z</time></trkpt><trkpt lat="45.4639617" lon="10.9312167"><ele>87.66666666666666</ele><time>2026-03-22T13:30:54.425Z</time></trkpt><trkpt lat="45.4640233" lon="10.9311517"><ele>88.0</ele><time>2026-03-22T13:30:55.426Z</time></trkpt><trkpt lat="45.4640633" lon="10.9310583"><ele>88.0</ele><time>2026-03-22T13:30:56.425Z</time></trkpt><trkpt lat="45.4640767" lon="10.93093"><ele>88.0</ele><time>2026-03-22T13:30:57.426Z</time></trkpt><trkpt lat="45.46407" lon="10.9307583"><ele>88.0</ele><time>2026-03-22T13:30:58.426Z</time></trkpt><trkpt lat="45.4640517" lon="10.9305767"><ele>88.0</ele><time>2026-03-22T13:30:59.425Z</time></trkpt><trkpt lat="45.46404" lon="10.930375"><ele>88.0</ele><time>2026-03-22T13:31:00.426Z</time></trkpt><trkpt lat="45.464035" lon="10.93016"><ele>88.0</ele><time>2026-03-22T13:31:01.425Z</time></trkpt><trkpt lat="45.4640317" lon="10.92994"><ele>88.0</ele><time>2026-03-22T13:31:02.425Z</time></trkpt><trkpt lat="45.46404" lon="10.929725"><ele>88.0</ele><time>2026-03-22T13:31:03.426Z</time></trkpt><trkpt lat="45.4640717" lon="10.929505"><ele>88.0</ele><time>2026-03-22T13:31:04.426Z</time></trkpt><trkpt lat="45.4641233" lon="10.92928"><ele>88.0</ele><time>2026-03-22T13:31:05.425Z</time></trkpt><trkpt lat="45.4641867" lon="10.9290483"><ele>88.0</ele><time>2026-03-22T13:31:06.425Z</time></trkpt><trkpt lat="45.46425" lon="10.9288133"><ele>88.0</ele><time>2026-03-22T13:31:07.426Z</time></trkpt><trkpt lat="45.4643167" lon="10.9285817"><ele>88.0</ele><time>2026-03-22T13:31:08.426Z</time></trkpt><trkpt lat="45.46438" lon="10.9283417"><ele>87.66666666666666</ele><time>2026-03-22T13:31:09.426Z</time></trkpt><trkpt lat="45.4644367" lon="10.9281"><ele>87.33333333333333</ele><time>2026-03-22T13:31:10.425Z</time></trkpt><trkpt lat="45.4645" lon="10.9278583"><ele>87.0</ele><time>2026-03-22T13:31:11.426Z</time></trkpt><trkpt lat="45.4645583" lon="10.9276183"><ele>87.0</ele><time>2026-03-22T13:31:12.425Z</time></trkpt><trkpt lat="45.4646183" lon="10.92737"><ele>87.0</ele><time>2026-03-22T13:31:13.425Z</time></trkpt><trkpt lat="45.464675" lon="10.927125"><ele>87.0</ele><time>2026-03-22T13:31:14.426Z</time></trkpt><trkpt lat="45.46473" lon="10.9268783"><ele>87.33333333333333</ele><time>2026-03-22T13:31:15.425Z</time></trkpt><trkpt lat="45.464785" lon="10.9266267"><ele>87.66666666666666</ele><time>2026-03-22T13:31:16.426Z</time></trkpt><trkpt lat="45.4648417" lon="10.9263867"><ele>88.0</ele><time>2026-03-22T13:31:17.425Z</time></trkpt><trkpt lat="45.4648933" lon="10.9261467"><ele>88.0</ele><time>2026-03-22T13:31:18.426Z</time></trkpt><trkpt lat="45.4649433" lon="10.9259183"><ele>88.0</ele><time>2026-03-22T13:31:19.425Z</time></trkpt><trkpt lat="45.4649933" lon="10.9256967"><ele>88.0</ele><time>2026-03-22T13:31:20.426Z</time></trkpt><trkpt lat="45.4650367" lon="10.9254883"><ele>88.33333333333333</ele><time>2026-03-22T13:31:21.425Z</time></trkpt><trkpt lat="45.4650833" lon="10.9252733"><ele>88.66666666666667</ele><time>2026-03-22T13:31:22.425Z</time></trkpt><trkpt lat="45.4651267" lon="10.9250533"><ele>89.0</ele><time>2026-03-22T13:31:23.426Z</time></trkpt><trkpt lat="45.4651767" lon="10.9248267"><ele>89.0</ele><time>2026-03-22T13:31:24.426Z</time></trkpt><trkpt lat="45.465225" lon="10.92459"><ele>89.0</ele><time>2026-03-22T13:31:25.426Z</time></trkpt><trkpt lat="45.4652733" lon="10.9243517"><ele>89.0</ele><time>2026-03-22T13:31:26.426Z</time></trkpt><trkpt lat="45.4653267" lon="10.9241067"><ele>89.33333333333334</ele><time>2026-03-22T13:31:27.426Z</time></trkpt><trkpt lat="45.4653767" lon="10.9238533"><ele>89.66666666666667</ele><time>2026-03-22T13:31:28.425Z</time></trkpt><trkpt lat="45.4654217" lon="10.9235983"><ele>90.0</ele><time>2026-03-22T13:31:29.425Z</time></trkpt><trkpt lat="45.465475" lon="10.9233467"><ele>90.0</ele><time>2026-03-22T13:31:30.426Z</time></trkpt><trkpt lat="45.4655283" lon="10.9230883"><ele>90.0</ele><time>2026-03-22T13:31:31.426Z</time></trkpt><trkpt lat="45.46558" lon="10.9228267"><ele>90.0</ele><time>2026-03-22T13:31:32.426Z</time></trkpt><trkpt lat="45.46563" lon="10.9225533"><ele>90.0</ele><time>2026-03-22T13:31:33.425Z</time></trkpt><trkpt lat="45.4656867" lon="10.9222967"><ele>90.0</ele><time>2026-03-22T13:31:34.426Z</time></trkpt><trkpt lat="45.4657433" lon="10.922045"><ele>90.0</ele><time>2026-03-22T13:31:35.426Z</time></trkpt><trkpt lat="45.4657983" lon="10.9217883"><ele>90.33333333333333</ele><time>2026-03-22T13:31:36.425Z</time></trkpt><trkpt lat="45.465855" lon="10.92153"><ele>90.66666666666666</ele><time>2026-03-22T13:31:37.425Z</time></trkpt><trkpt lat="45.46591" lon="10.9212717"><ele>91.0</ele><time>2026-03-22T13:31:38.426Z</time></trkpt><trkpt lat="45.4659717" lon="10.921015"><ele>91.0</ele><time>2026-03-22T13:31:39.425Z</time></trkpt><trkpt lat="45.4660283" lon="10.92075"><ele>91.0</ele><time>2026-03-22T13:31:40.425Z</time></trkpt><trkpt lat="45.46609" lon="10.9204917"><ele>91.0</ele><time>2026-03-22T13:31:41.425Z</time></trkpt><trkpt lat="45.4661567" lon="10.9202333"><ele>90.66666666666666</ele><time>2026-03-22T13:31:42.425Z</time></trkpt><trkpt lat="45.4662233" lon="10.919975"><ele>90.33333333333333</ele><time>2026-03-22T13:31:43.426Z</time></trkpt><trkpt lat="45.466285" lon="10.91971"><ele>90.0</ele><time>2026-03-22T13:31:44.425Z</time></trkpt><trkpt lat="45.4663467" lon="10.9194433"><ele>89.66666666666667</ele><time>2026-03-22T13:31:45.426Z</time></trkpt><trkpt lat="45.4664167" lon="10.9191767"><ele>89.33333333333334</ele><time>2026-03-22T13:31:46.426Z</time></trkpt><trkpt lat="45.4664883" lon="10.9189033"><ele>89.0</ele><time>2026-03-22T13:31:47.425Z</time></trkpt><trkpt lat="45.4665567" lon="10.9186367"><ele>89.33333333333334</ele><time>2026-03-22T13:31:48.426Z</time></trkpt><trkpt lat="45.4666267" lon="10.9183633"><ele>89.66666666666667</ele><time>2026-03-22T13:31:49.426Z</time></trkpt><trkpt lat="45.4666967" lon="10.91809"><ele>90.0</ele><time>2026-03-22T13:31:50.425Z</time></trkpt><trkpt lat="45.466765" lon="10.917815"><ele>90.33333333333333</ele><time>2026-03-22T13:31:51.425Z</time></trkpt><trkpt lat="45.4668367" lon="10.9175433"><ele>90.66666666666666</ele><time>2026-03-22T13:31:52.426Z</time></trkpt><trkpt lat="45.466905" lon="10.9172667"><ele>91.0</ele><time>2026-03-22T13:31:53.426Z</time></trkpt><trkpt lat="45.4669717" lon="10.916995"><ele>90.66666666666666</ele><time>2026-03-22T13:31:54.426Z</time></trkpt><trkpt lat="45.4670433" lon="10.9167117"><ele>90.33333333333333</ele><time>2026-03-22T13:31:55.425Z</time></trkpt><trkpt lat="45.467115" lon="10.91643"><ele>90.0</ele><time>2026-03-22T13:31:56.425Z</time></trkpt><trkpt lat="45.467185" lon="10.9161517"><ele>90.0</ele><time>2026-03-22T13:31:57.425Z</time></trkpt><trkpt lat="45.467255" lon="10.915875"><ele>90.0</ele><time>2026-03-22T13:31:58.425Z</time></trkpt><trkpt lat="45.467325" lon="10.9155983"><ele>90.0</ele><time>2026-03-22T13:31:59.426Z</time></trkpt><trkpt lat="45.4673967" lon="10.9153283"><ele>90.33333333333333</ele><time>2026-03-22T13:32:00.425Z</time></trkpt><trkpt lat="45.4674667" lon="10.915055"><ele>90.66666666666666</ele><time>2026-03-22T13:32:01.426Z</time></trkpt><trkpt lat="45.4675383" lon="10.9147833"><ele>91.0</ele><time>2026-03-22T13:32:02.426Z</time></trkpt><trkpt lat="45.4676033" lon="10.9145217"><ele>91.0</ele><time>2026-03-22T13:32:03.426Z</time></trkpt><trkpt lat="45.4676717" lon="10.91426"><ele>91.0</ele><time>2026-03-22T13:32:04.425Z</time></trkpt><trkpt lat="45.4677367" lon="10.91401"><ele>91.0</ele><time>2026-03-22T13:32:05.426Z</time></trkpt><trkpt lat="45.467795" lon="10.9137767"><ele>91.33333333333333</ele><time>2026-03-22T13:32:06.426Z</time></trkpt><trkpt lat="45.4678567" lon="10.91356"><ele>91.66666666666667</ele><time>2026-03-22T13:32:07.426Z</time></trkpt><trkpt lat="45.4679" lon="10.9133583"><ele>92.0</ele><time>2026-03-22T13:32:08.426Z</time></trkpt><trkpt lat="45.46795" lon="10.913175"><ele>92.0</ele><time>2026-03-22T13:32:09.425Z</time></trkpt><trkpt lat="45.4679967" lon="10.9129817"><ele>92.0</ele><time>2026-03-22T13:32:10.426Z</time></trkpt><trkpt lat="45.4680367" lon="10.91279"><ele>92.0</ele><time>2026-03-22T13:32:11.426Z</time></trkpt><trkpt lat="45.4680717" lon="10.9126"><ele>92.0</ele><time>2026-03-22T13:32:12.426Z</time></trkpt><trkpt lat="45.468115" lon="10.9123983"><ele>92.66666666666667</ele><time>2026-03-22T13:32:13.426Z</time></trkpt><trkpt lat="45.4681617" lon="10.91219"><ele>93.33333333333333</ele><time>2026-03-22T13:32:14.425Z</time></trkpt><trkpt lat="45.4682033" lon="10.9119833"><ele>94.0</ele><time>2026-03-22T13:32:15.425Z</time></trkpt><trkpt lat="45.4682433" lon="10.9117717"><ele>93.75</ele><time>2026-03-22T13:32:16.425Z</time></trkpt><trkpt lat="45.468285" lon="10.9115667"><ele>93.5</ele><time>2026-03-22T13:32:17.426Z</time></trkpt><trkpt lat="45.4683217" lon="10.9113667"><ele>93.25</ele><time>2026-03-22T13:32:18.426Z</time></trkpt><trkpt lat="45.4683567" lon="10.911165"><ele>93.0</ele><time>2026-03-22T13:32:19.425Z</time></trkpt><trkpt lat="45.468385" lon="10.9109617"><ele>92.75</ele><time>2026-03-22T13:32:20.425Z</time></trkpt><trkpt lat="45.4684083" lon="10.9107567"><ele>92.5</ele><time>2026-03-22T13:32:21.425Z</time></trkpt><trkpt lat="45.4684267" lon="10.9105467"><ele>92.25</ele><time>2026-03-22T13:32:22.425Z</time></trkpt><trkpt lat="45.4684467" lon="10.9103367"><ele>92.0</ele><time>2026-03-22T13:32:23.425Z</time></trkpt><trkpt lat="45.4684617" lon="10.9101333"><ele>92.0</ele><time>2026-03-22T13:32:24.426Z</time></trkpt><trkpt lat="45.4684883" lon="10.909925"><ele>92.0</ele><time>2026-03-22T13:32:25.425Z</time></trkpt><trkpt lat="45.4685183" lon="10.9097183"><ele>92.0</ele><time>2026-03-22T13:32:26.425Z</time></trkpt><trkpt lat="45.4685483" lon="10.9095117"><ele>92.0</ele><time>2026-03-22T13:32:27.426Z</time></trkpt><trkpt lat="45.4685867" lon="10.9093133"><ele>92.0</ele><time>2026-03-22T13:32:28.426Z</time></trkpt><trkpt lat="45.468625" lon="10.9091333"><ele>92.0</ele><time>2026-03-22T13:32:29.426Z</time></trkpt><trkpt lat="45.4686533" lon="10.9089783"><ele>92.0</ele><time>2026-03-22T13:32:30.426Z</time></trkpt><trkpt lat="45.4686783" lon="10.9088283"><ele>92.0</ele><time>2026-03-22T13:32:31.426Z</time></trkpt><trkpt lat="45.4687083" lon="10.9086767"><ele>92.0</ele><time>2026-03-22T13:32:32.425Z</time></trkpt><trkpt lat="45.4687367" lon="10.9085333"><ele>92.0</ele><time>2026-03-22T13:32:33.426Z</time></trkpt><trkpt lat="45.46877" lon="10.9084017"><ele>92.0</ele><time>2026-03-22T13:32:34.426Z</time></trkpt><trkpt lat="45.4688033" lon="10.9082817"><ele>92.0</ele><time>2026-03-22T13:32:35.426Z</time></trkpt><trkpt lat="45.4688417" lon="10.9081817"><ele>92.0</ele><time>2026-03-22T13:32:36.426Z</time></trkpt><trkpt lat="45.4688867" lon="10.9080833"><ele>91.8</ele><time>2026-03-22T13:32:37.425Z</time></trkpt><trkpt lat="45.4689483" lon="10.9079883"><ele>91.6</ele><time>2026-03-22T13:32:38.425Z</time></trkpt><trkpt lat="45.4690233" lon="10.9078917"><ele>91.39999999999999</ele><time>2026-03-22T13:32:39.426Z</time></trkpt><trkpt lat="45.4691117" lon="10.9077983"><ele>91.19999999999999</ele><time>2026-03-22T13:32:40.425Z</time></trkpt><trkpt lat="45.469205" lon="10.9076933"><ele>91.0</ele><time>2026-03-22T13:32:41.425Z</time></trkpt><trkpt lat="45.46929" lon="10.907575"><ele>91.0</ele><time>2026-03-22T13:32:42.425Z</time></trkpt><trkpt lat="45.4693733" lon="10.907455"><ele>91.0</ele><time>2026-03-22T13:32:43.426Z</time></trkpt><trkpt lat="45.46945" lon="10.9073383"><ele>91.0</ele><time>2026-03-22T13:32:44.426Z</time></trkpt><trkpt lat="45.4695183" lon="10.9072183"><ele>91.0</ele><time>2026-03-22T13:32:45.426Z</time></trkpt><trkpt lat="45.4695833" lon="10.907105"><ele>91.0</ele><time>2026-03-22T13:32:46.425Z</time></trkpt><trkpt lat="45.4696433" lon="10.90701"><ele>88.8</ele><time>2026-03-22T13:32:47.426Z</time></trkpt><trkpt lat="45.4696883" lon="10.9069083"><ele>86.6</ele><time>2026-03-22T13:32:48.425Z</time></trkpt><trkpt lat="45.4697367" lon="10.9068067"><ele>84.4</ele><time>2026-03-22T13:32:49.425Z</time></trkpt><trkpt lat="45.4697817" lon="10.9066933"><ele>82.2</ele><time>2026-03-22T13:32:50.425Z</time></trkpt><trkpt lat="45.4698367" lon="10.9065683"><ele>80.0</ele><time>2026-03-22T13:32:51.426Z</time></trkpt><trkpt lat="45.469885" lon="10.906435"><ele>80.0</ele><time>2026-03-22T13:32:52.426Z</time></trkpt><trkpt lat="45.4699317" lon="10.9063017"><ele>80.0</ele><time>2026-03-22T13:32:53.426Z</time></trkpt><trkpt lat="45.4699933" lon="10.9061783"><ele>80.0</ele><time>2026-03-22T13:32:54.425Z</time></trkpt><trkpt lat="45.47007" lon="10.9060567"><ele>80.0</ele><time>2026-03-22T13:32:55.426Z</time></trkpt><trkpt lat="45.4701517" lon="10.9059467"><ele>80.0</ele><time>2026-03-22T13:32:56.426Z</time></trkpt><trkpt lat="45.4702283" lon="10.9058383"><ele>79.75</ele><time>2026-03-22T13:32:57.425Z</time></trkpt><trkpt lat="45.4703017" lon="10.9057333"><ele>79.5</ele><time>2026-03-22T13:32:58.425Z</time></trkpt><trkpt lat="45.4703867" lon="10.9056233"><ele>79.25</ele><time>2026-03-22T13:32:59.426Z</time></trkpt><trkpt lat="45.4704833" lon="10.90551"><ele>79.0</ele><time>2026-03-22T13:33:00.426Z</time></trkpt><trkpt lat="45.4705733" lon="10.9053883"><ele>77.5</ele><time>2026-03-22T13:33:01.425Z</time></trkpt><trkpt lat="45.47066" lon="10.905275"><ele>76.0</ele><time>2026-03-22T13:33:02.426Z</time></trkpt><trkpt lat="45.470745" lon="10.9051633"><ele>74.5</ele><time>2026-03-22T13:33:03.425Z</time></trkpt><trkpt lat="45.4708267" lon="10.905045"><ele>73.0</ele><time>2026-03-22T13:33:04.426Z</time></trkpt><trkpt lat="45.47091" lon="10.9049383"><ele>73.0</ele><time>2026-03-22T13:33:05.426Z</time></trkpt><trkpt lat="45.4709883" lon="10.90484"><ele>73.0</ele><time>2026-03-22T13:33:06.425Z</time></trkpt><trkpt lat="45.4710633" lon="10.9047417"><ele>73.0</ele><time>2026-03-22T13:33:07.426Z</time></trkpt><trkpt lat="45.4711333" lon="10.9046433"><ele>73.0</ele><time>2026-03-22T13:33:08.426Z</time></trkpt><trkpt lat="45.4712083" lon="10.9045417"><ele>73.0</ele><time>2026-03-22T13:33:09.426Z</time></trkpt><trkpt lat="45.4712833" lon="10.9044367"><ele>73.0</ele><time>2026-03-22T13:33:10.425Z</time></trkpt><trkpt lat="45.4713583" lon="10.9043367"><ele>73.0</ele><time>2026-03-22T13:33:11.425Z</time></trkpt><trkpt lat="45.4714317" lon="10.904225"><ele>73.0</ele><time>2026-03-22T13:33:12.426Z</time></trkpt><trkpt lat="45.4715017" lon="10.90412"><ele>73.0</ele><time>2026-03-22T13:33:13.426Z</time></trkpt><trkpt lat="45.471585" lon="10.9040217"><ele>73.0</ele><time>2026-03-22T13:33:14.426Z</time></trkpt><trkpt lat="45.4716767" lon="10.9039267"><ele>73.0</ele><time>2026-03-22T13:33:15.425Z</time></trkpt><trkpt lat="45.47176" lon="10.9038217"><ele>73.0</ele><time>2026-03-22T13:33:16.426Z</time></trkpt><trkpt lat="45.471845" lon="10.9037317"><ele>73.0</ele><time>2026-03-22T13:33:17.425Z</time></trkpt><trkpt lat="45.4719217" lon="10.90364"><ele>73.0</ele><time>2026-03-22T13:33:18.426Z</time></trkpt><trkpt lat="45.47199" lon="10.9035533"><ele>73.0</ele><time>2026-03-22T13:33:19.426Z</time></trkpt><trkpt lat="45.4720517" lon="10.90349"><ele>73.0</ele><time>2026-03-22T13:33:20.425Z</time></trkpt><trkpt lat="45.472115" lon="10.903415"><ele>73.0</ele><time>2026-03-22T13:33:21.425Z</time></trkpt><trkpt lat="45.472165" lon="10.9033517"><ele>73.0</ele><time>2026-03-22T13:33:22.425Z</time></trkpt><trkpt lat="45.47223" lon="10.90324"><ele>73.0</ele><time>2026-03-22T13:33:24.425Z</time></trkpt><trkpt lat="45.472265" lon="10.9031617"><ele>73.0</ele><time>2026-03-22T13:33:26.426Z</time></trkpt><trkpt lat="45.47233" lon="10.9030483"><ele>73.0</ele><time>2026-03-22T13:33:36.425Z</time></trkpt><trkpt lat="45.4724133" lon="10.90293"><ele>73.0</ele><time>2026-03-22T13:33:38.426Z</time></trkpt><trkpt lat="45.4724983" lon="10.90282"><ele>73.0</ele><time>2026-03-22T13:33:40.425Z</time></trkpt><trkpt lat="45.47256" lon="10.9027633"><ele>73.0</ele><time>2026-03-22T13:33:43.426Z</time></trkpt><trkpt lat="45.4726233" lon="10.90271"><ele>73.0</ele><time>2026-03-22T13:34:05.425Z</time></trkpt><trkpt lat="45.4727433" lon="10.9028083"><ele>73.0</ele><time>2026-03-22T13:34:07.426Z</time></trkpt><trkpt lat="45.47281" lon="10.9029267"><ele>73.0</ele><time>2026-03-22T13:34:08.425Z</time></trkpt><trkpt lat="45.4728717" lon="10.9030567"><ele>73.0</ele><time>2026-03-22T13:34:09.425Z</time></trkpt><trkpt lat="45.4729467" lon="10.9031917"><ele>73.0</ele><time>2026-03-22T13:34:10.426Z</time></trkpt><trkpt lat="45.47302" lon="10.9033267"><ele>73.0</ele><time>2026-03-22T13:34:11.426Z</time></trkpt><trkpt lat="45.47309" lon="10.9034567"><ele>73.0</ele><time>2026-03-22T13:34:12.426Z</time></trkpt><trkpt lat="45.47316" lon="10.9035917"><ele>73.0</ele><time>2026-03-22T13:34:13.425Z</time></trkpt><trkpt lat="45.473225" lon="10.903715"><ele>73.0</ele><time>2026-03-22T13:34:14.425Z</time></trkpt><trkpt lat="45.4732883" lon="10.903835"><ele>73.0</ele><time>2026-03-22T13:34:15.425Z</time></trkpt><trkpt lat="45.4733533" lon="10.90394"><ele>73.0</ele><time>2026-03-22T13:34:16.425Z</time></trkpt><trkpt lat="45.47343" lon="10.904045"><ele>73.0</ele><time>2026-03-22T13:34:17.426Z</time></trkpt><trkpt lat="45.4735233" lon="10.9041267"><ele>73.0</ele><time>2026-03-22T13:34:18.426Z</time></trkpt><trkpt lat="45.4736333" lon="10.9041883"><ele>73.0</ele><time>2026-03-22T13:34:19.425Z</time></trkpt><trkpt lat="45.4737533" lon="10.9041983"><ele>73.0</ele><time>2026-03-22T13:34:20.425Z</time></trkpt><trkpt lat="45.4738833" lon="10.90418"><ele>73.5</ele><time>2026-03-22T13:34:21.425Z</time></trkpt><trkpt lat="45.4740217" lon="10.904155"><ele>74.0</ele><time>2026-03-22T13:34:22.425Z</time></trkpt><trkpt lat="45.47416" lon="10.904145"><ele>74.5</ele><time>2026-03-22T13:34:23.425Z</time></trkpt><trkpt lat="45.4743067" lon="10.9041617"><ele>75.0</ele><time>2026-03-22T13:34:24.425Z</time></trkpt><trkpt lat="45.4744617" lon="10.9041917"><ele>76.0</ele><time>2026-03-22T13:34:25.425Z</time></trkpt><trkpt lat="45.474615" lon="10.90423"><ele>77.0</ele><time>2026-03-22T13:34:26.426Z</time></trkpt><trkpt lat="45.4747717" lon="10.904275"><ele>78.0</ele><time>2026-03-22T13:34:27.425Z</time></trkpt><trkpt lat="45.4749267" lon="10.9043183"><ele>78.25</ele><time>2026-03-22T13:34:28.426Z</time></trkpt><trkpt lat="45.4750767" lon="10.90437"><ele>78.5</ele><time>2026-03-22T13:34:29.426Z</time></trkpt><trkpt lat="45.4752233" lon="10.9044017"><ele>78.75</ele><time>2026-03-22T13:34:30.425Z</time></trkpt><trkpt lat="45.4753667" lon="10.9044317"><ele>79.0</ele><time>2026-03-22T13:34:31.426Z</time></trkpt><trkpt lat="45.475495" lon="10.90445"><ele>80.0</ele><time>2026-03-22T13:34:32.426Z</time></trkpt><trkpt lat="45.47561" lon="10.904465"><ele>81.0</ele><time>2026-03-22T13:34:33.426Z</time></trkpt><trkpt lat="45.4757283" lon="10.904465"><ele>82.0</ele><time>2026-03-22T13:34:34.425Z</time></trkpt><trkpt lat="45.4758417" lon="10.9043983"><ele>83.0</ele><time>2026-03-22T13:34:35.425Z</time></trkpt><trkpt lat="45.4759583" lon="10.904325"><ele>83.5</ele><time>2026-03-22T13:34:36.426Z</time></trkpt><trkpt lat="45.4760667" lon="10.9042167"><ele>84.0</ele><time>2026-03-22T13:34:37.425Z</time></trkpt><trkpt lat="45.47618" lon="10.9041133"><ele>84.5</ele><time>2026-03-22T13:34:38.425Z</time></trkpt><trkpt lat="45.4762983" lon="10.90404"><ele>85.0</ele><time>2026-03-22T13:34:39.425Z</time></trkpt><trkpt lat="45.476415" lon="10.9039867"><ele>85.0</ele><time>2026-03-22T13:34:40.425Z</time></trkpt><trkpt lat="45.4765333" lon="10.903975"><ele>85.0</ele><time>2026-03-22T13:34:41.425Z</time></trkpt><trkpt lat="45.4766567" lon="10.9039933"><ele>85.0</ele><time>2026-03-22T13:34:42.426Z</time></trkpt><trkpt lat="45.476795" lon="10.9040083"><ele>85.0</ele><time>2026-03-22T13:34:43.426Z</time></trkpt><trkpt lat="45.476935" lon="10.9040167"><ele>85.0</ele><time>2026-03-22T13:34:44.426Z</time></trkpt><trkpt lat="45.4770583" lon="10.9040217"><ele>85.0</ele><time>2026-03-22T13:34:45.425Z</time></trkpt><trkpt lat="45.477165" lon="10.904025"><ele>85.0</ele><time>2026-03-22T13:34:46.425Z</time></trkpt><trkpt lat="45.477275" lon="10.90403"><ele>85.0</ele><time>2026-03-22T13:34:47.426Z</time></trkpt><trkpt lat="45.4773683" lon="10.9040317"><ele>85.0</ele><time>2026-03-22T13:34:48.426Z</time></trkpt><trkpt lat="45.4774517" lon="10.9040283"><ele>84.66666666666666</ele><time>2026-03-22T13:34:49.425Z</time></trkpt><trkpt lat="45.4775267" lon="10.9039967"><ele>84.33333333333333</ele><time>2026-03-22T13:34:50.425Z</time></trkpt><trkpt lat="45.4775833" lon="10.9039317"><ele>84.0</ele><time>2026-03-22T13:34:51.426Z</time></trkpt><trkpt lat="45.4776033" lon="10.9038417"><ele>83.66666666666667</ele><time>2026-03-22T13:34:52.425Z</time></trkpt><trkpt lat="45.4775917" lon="10.903725"><ele>83.33333333333334</ele><time>2026-03-22T13:34:53.425Z</time></trkpt><trkpt lat="45.4775817" lon="10.9036033"><ele>83.0</ele><time>2026-03-22T13:34:54.426Z</time></trkpt><trkpt lat="45.4775883" lon="10.9034767"><ele>82.60000000000001</ele><time>2026-03-22T13:34:55.426Z</time></trkpt><trkpt lat="45.4776017" lon="10.90335"><ele>82.2</ele><time>2026-03-22T13:34:56.426Z</time></trkpt><trkpt lat="45.4776183" lon="10.9032117"><ele>81.8</ele><time>2026-03-22T13:34:57.426Z</time></trkpt><trkpt lat="45.477635" lon="10.9030633"><ele>81.4</ele><time>2026-03-22T13:34:58.425Z</time></trkpt><trkpt lat="45.4776517" lon="10.9029167"><ele>81.0</ele><time>2026-03-22T13:34:59.425Z</time></trkpt><trkpt lat="45.4776633" lon="10.902775"><ele>81.0</ele><time>2026-03-22T13:35:00.425Z</time></trkpt><trkpt lat="45.4776783" lon="10.9026317"><ele>81.0</ele><time>2026-03-22T13:35:01.425Z</time></trkpt><trkpt lat="45.4776933" lon="10.902495"><ele>81.0</ele><time>2026-03-22T13:35:02.426Z</time></trkpt><trkpt lat="45.4777033" lon="10.902355"><ele>81.0</ele><time>2026-03-22T13:35:03.426Z</time></trkpt><trkpt lat="45.4776967" lon="10.902205"><ele>81.0</ele><time>2026-03-22T13:35:04.426Z</time></trkpt><trkpt lat="45.47767" lon="10.902035"><ele>80.5</ele><time>2026-03-22T13:35:05.425Z</time></trkpt><trkpt lat="45.4776233" lon="10.901865"><ele>80.0</ele><time>2026-03-22T13:35:06.425Z</time></trkpt><trkpt lat="45.47757" lon="10.901695"><ele>79.5</ele><time>2026-03-22T13:35:07.425Z</time></trkpt><trkpt lat="45.4775167" lon="10.9015167"><ele>79.0</ele><time>2026-03-22T13:35:08.426Z</time></trkpt><trkpt lat="45.47746" lon="10.901325"><ele>78.75</ele><time>2026-03-22T13:35:09.425Z</time></trkpt><trkpt lat="45.4774067" lon="10.90113"><ele>78.5</ele><time>2026-03-22T13:35:10.425Z</time></trkpt><trkpt lat="45.47736" lon="10.9009383"><ele>78.25</ele><time>2026-03-22T13:35:11.426Z</time></trkpt><trkpt lat="45.477325" lon="10.9007467"><ele>78.0</ele><time>2026-03-22T13:35:12.425Z</time></trkpt><trkpt lat="45.47731" lon="10.90056"><ele>76.75</ele><time>2026-03-22T13:35:13.426Z</time></trkpt><trkpt lat="45.4773283" lon="10.90037"><ele>75.5</ele><time>2026-03-22T13:35:14.425Z</time></trkpt><trkpt lat="45.4773733" lon="10.9001883"><ele>74.25</ele><time>2026-03-22T13:35:15.425Z</time></trkpt><trkpt lat="45.4774417" lon="10.9000217"><ele>73.0</ele><time>2026-03-22T13:35:16.425Z</time></trkpt><trkpt lat="45.4775233" lon="10.8998483"><ele>72.66666666666666</ele><time>2026-03-22T13:35:17.425Z</time></trkpt><trkpt lat="45.4776" lon="10.8996683"><ele>72.33333333333333</ele><time>2026-03-22T13:35:18.425Z</time></trkpt><trkpt lat="45.4776783" lon="10.899485"><ele>72.0</ele><time>2026-03-22T13:35:19.426Z</time></trkpt><trkpt lat="45.4777517" lon="10.8992867"><ele>72.33333333333333</ele><time>2026-03-22T13:35:20.426Z</time></trkpt><trkpt lat="45.477815" lon="10.8990767"><ele>72.66666666666666</ele><time>2026-03-22T13:35:21.426Z</time></trkpt><trkpt lat="45.4778733" lon="10.8988583"><ele>73.0</ele><time>2026-03-22T13:35:22.425Z</time></trkpt><trkpt lat="45.47793" lon="10.8986317"><ele>72.66666666666666</ele><time>2026-03-22T13:35:23.425Z</time></trkpt><trkpt lat="45.4779783" lon="10.8984033"><ele>72.33333333333333</ele><time>2026-03-22T13:35:24.426Z</time></trkpt><trkpt lat="45.4780183" lon="10.898165"><ele>72.0</ele><time>2026-03-22T13:35:25.426Z</time></trkpt><trkpt lat="45.4780483" lon="10.89792"><ele>72.0</ele><time>2026-03-22T13:35:26.425Z</time></trkpt><trkpt lat="45.4780717" lon="10.897675"><ele>72.0</ele><time>2026-03-22T13:35:27.426Z</time></trkpt><trkpt lat="45.4780983" lon="10.8974267"><ele>72.0</ele><time>2026-03-22T13:35:28.425Z</time></trkpt><trkpt lat="45.4781233" lon="10.897175"><ele>73.0</ele><time>2026-03-22T13:35:29.425Z</time></trkpt><trkpt lat="45.478145" lon="10.8969217"><ele>74.0</ele><time>2026-03-22T13:35:30.426Z</time></trkpt><trkpt lat="45.47817" lon="10.8966567"><ele>75.0</ele><time>2026-03-22T13:35:31.425Z</time></trkpt><trkpt lat="45.4781867" lon="10.8963917"><ele>75.0</ele><time>2026-03-22T13:35:32.425Z</time></trkpt><trkpt lat="45.4782017" lon="10.8961317"><ele>75.0</ele><time>2026-03-22T13:35:33.425Z</time></trkpt><trkpt lat="45.47824" lon="10.895875"><ele>75.0</ele><time>2026-03-22T13:35:34.425Z</time></trkpt><trkpt lat="45.47827" lon="10.895615"><ele>75.0</ele><time>2026-03-22T13:35:35.425Z</time></trkpt><trkpt lat="45.4783017" lon="10.8953567"><ele>75.0</ele><time>2026-03-22T13:35:36.426Z</time></trkpt><trkpt lat="45.47833" lon="10.8950967"><ele>75.0</ele><time>2026-03-22T13:35:37.425Z</time></trkpt><trkpt lat="45.4783567" lon="10.8948383"><ele>75.33333333333333</ele><time>2026-03-22T13:35:38.426Z</time></trkpt><trkpt lat="45.4783883" lon="10.894575"><ele>75.66666666666666</ele><time>2026-03-22T13:35:39.426Z</time></trkpt><trkpt lat="45.4784183" lon="10.894315"><ele>76.0</ele><time>2026-03-22T13:35:40.426Z</time></trkpt><trkpt lat="45.4784483" lon="10.8940433"><ele>76.33333333333333</ele><time>2026-03-22T13:35:41.426Z</time></trkpt><trkpt lat="45.4784733" lon="10.8937733"><ele>76.66666666666667</ele><time>2026-03-22T13:35:42.425Z</time></trkpt><trkpt lat="45.4785033" lon="10.8935033"><ele>77.0</ele><time>2026-03-22T13:35:43.425Z</time></trkpt><trkpt lat="45.478535" lon="10.8932317"><ele>77.0</ele><time>2026-03-22T13:35:44.426Z</time></trkpt><trkpt lat="45.4785667" lon="10.8929617"><ele>77.0</ele><time>2026-03-22T13:35:45.426Z</time></trkpt><trkpt lat="45.4785983" lon="10.892695"><ele>77.0</ele><time>2026-03-22T13:35:46.426Z</time></trkpt><trkpt lat="45.4786333" lon="10.8924317"><ele>78.0</ele><time>2026-03-22T13:35:47.425Z</time></trkpt><trkpt lat="45.4786683" lon="10.89217"><ele>79.0</ele><time>2026-03-22T13:35:48.425Z</time></trkpt><trkpt lat="45.4787" lon="10.8919167"><ele>80.0</ele><time>2026-03-22T13:35:49.426Z</time></trkpt><trkpt lat="45.4787383" lon="10.8916733"><ele>80.75</ele><time>2026-03-22T13:35:50.426Z</time></trkpt><trkpt lat="45.4787733" lon="10.8914517"><ele>81.5</ele><time>2026-03-22T13:35:51.425Z</time></trkpt><trkpt lat="45.4788" lon="10.89125"><ele>82.25</ele><time>2026-03-22T13:35:52.426Z</time></trkpt><trkpt lat="45.4788233" lon="10.8910617"><ele>83.0</ele><time>2026-03-22T13:35:53.425Z</time></trkpt><trkpt lat="45.47886" lon="10.8909083"><ele>83.0</ele><time>2026-03-22T13:35:54.425Z</time></trkpt><trkpt lat="45.4789183" lon="10.8907883"><ele>83.0</ele><time>2026-03-22T13:35:55.425Z</time></trkpt><trkpt lat="45.4789883" lon="10.8906917"><ele>83.0</ele><time>2026-03-22T13:35:56.426Z</time></trkpt><trkpt lat="45.47907" lon="10.8906317"><ele>83.0</ele><time>2026-03-22T13:35:57.426Z</time></trkpt><trkpt lat="45.4791583" lon="10.8905917"><ele>83.0</ele><time>2026-03-22T13:35:58.426Z</time></trkpt><trkpt lat="45.47925" lon="10.89058"><ele>83.0</ele><time>2026-03-22T13:35:59.426Z</time></trkpt><trkpt lat="45.479345" lon="10.8906167"><ele>83.0</ele><time>2026-03-22T13:36:00.426Z</time></trkpt><trkpt lat="45.47944" lon="10.890675"><ele>83.0</ele><time>2026-03-22T13:36:01.426Z</time></trkpt><trkpt lat="45.4795467" lon="10.8907433"><ele>83.0</ele><time>2026-03-22T13:36:02.425Z</time></trkpt><trkpt lat="45.4796517" lon="10.8907967"><ele>83.0</ele><time>2026-03-22T13:36:03.426Z</time></trkpt><trkpt lat="45.47976" lon="10.8908467"><ele>84.0</ele><time>2026-03-22T13:36:04.426Z</time></trkpt><trkpt lat="45.479875" lon="10.8908883"><ele>85.0</ele><time>2026-03-22T13:36:05.426Z</time></trkpt><trkpt lat="45.4799933" lon="10.8909333"><ele>86.0</ele><time>2026-03-22T13:36:06.425Z</time></trkpt><trkpt lat="45.4801117" lon="10.8909617"><ele>87.0</ele><time>2026-03-22T13:36:07.426Z</time></trkpt><trkpt lat="45.48023" lon="10.8909667"><ele>87.5</ele><time>2026-03-22T13:36:08.425Z</time></trkpt><trkpt lat="45.4803333" lon="10.8909417"><ele>88.0</ele><time>2026-03-22T13:36:09.426Z</time></trkpt><trkpt lat="45.4804367" lon="10.8908733"><ele>88.5</ele><time>2026-03-22T13:36:10.425Z</time></trkpt><trkpt lat="45.4805333" lon="10.8907817"><ele>89.0</ele><time>2026-03-22T13:36:11.426Z</time></trkpt><trkpt lat="45.4806267" lon="10.890675"><ele>89.0</ele><time>2026-03-22T13:36:12.425Z</time></trkpt><trkpt lat="45.48072" lon="10.890555"><ele>89.0</ele><time>2026-03-22T13:36:13.426Z</time></trkpt><trkpt lat="45.4808117" lon="10.8904367"><ele>89.0</ele><time>2026-03-22T13:36:14.425Z</time></trkpt><trkpt lat="45.4809083" lon="10.8903217"><ele>89.0</ele><time>2026-03-22T13:36:15.426Z</time></trkpt><trkpt lat="45.481005" lon="10.8901967"><ele>88.75</ele><time>2026-03-22T13:36:16.426Z</time></trkpt><trkpt lat="45.481105" lon="10.8900633"><ele>88.5</ele><time>2026-03-22T13:36:17.425Z</time></trkpt><trkpt lat="45.4812083" lon="10.88993"><ele>88.25</ele><time>2026-03-22T13:36:18.425Z</time></trkpt><trkpt lat="45.481315" lon="10.889795"><ele>88.0</ele><time>2026-03-22T13:36:19.426Z</time></trkpt><trkpt lat="45.4814267" lon="10.88966"><ele>88.75</ele><time>2026-03-22T13:36:20.426Z</time></trkpt><trkpt lat="45.481535" lon="10.889515"><ele>89.5</ele><time>2026-03-22T13:36:21.426Z</time></trkpt><trkpt lat="45.4816483" lon="10.8893767"><ele>90.25</ele><time>2026-03-22T13:36:22.425Z</time></trkpt><trkpt lat="45.4817633" lon="10.8892367"><ele>91.0</ele><time>2026-03-22T13:36:23.426Z</time></trkpt><trkpt lat="45.48188" lon="10.8890917"><ele>91.0</ele><time>2026-03-22T13:36:24.425Z</time></trkpt><trkpt lat="45.4819983" lon="10.8889433"><ele>91.0</ele><time>2026-03-22T13:36:25.425Z</time></trkpt><trkpt lat="45.4821183" lon="10.8888"><ele>91.0</ele><time>2026-03-22T13:36:26.425Z</time></trkpt><trkpt lat="45.4822433" lon="10.888655"><ele>90.66666666666666</ele><time>2026-03-22T13:36:27.425Z</time></trkpt><trkpt lat="45.482365" lon="10.8885"><ele>90.33333333333333</ele><time>2026-03-22T13:36:28.425Z</time></trkpt><trkpt lat="45.4824867" lon="10.88835"><ele>90.0</ele><time>2026-03-22T13:36:29.425Z</time></trkpt><trkpt lat="45.4826083" lon="10.8881967"><ele>90.0</ele><time>2026-03-22T13:36:30.425Z</time></trkpt><trkpt lat="45.482735" lon="10.8880467"><ele>90.0</ele><time>2026-03-22T13:36:31.426Z</time></trkpt><trkpt lat="45.48286" lon="10.88789"><ele>90.0</ele><time>2026-03-22T13:36:32.425Z</time></trkpt><trkpt lat="45.4829917" lon="10.8877367"><ele>90.66666666666667</ele><time>2026-03-22T13:36:33.426Z</time></trkpt><trkpt lat="45.4831167" lon="10.88758"><ele>91.33333333333334</ele><time>2026-03-22T13:36:34.425Z</time></trkpt><trkpt lat="45.4832367" lon="10.8874317"><ele>92.0</ele><time>2026-03-22T13:36:35.426Z</time></trkpt><trkpt lat="45.483345" lon="10.887295"><ele>92.0</ele><time>2026-03-22T13:36:36.425Z</time></trkpt><trkpt lat="45.48344" lon="10.8871667"><ele>92.0</ele><time>2026-03-22T13:36:37.425Z</time></trkpt><trkpt lat="45.4835233" lon="10.887065"><ele>92.0</ele><time>2026-03-22T13:36:38.425Z</time></trkpt><trkpt lat="45.48359" lon="10.8869733"><ele>92.0</ele><time>2026-03-22T13:36:39.426Z</time></trkpt><trkpt lat="45.48365" lon="10.8869117"><ele>92.0</ele><time>2026-03-22T13:36:40.426Z</time></trkpt><trkpt lat="45.4837117" lon="10.8868517"><ele>92.16666666666667</ele><time>2026-03-22T13:36:42.425Z</time></trkpt><trkpt lat="45.4837883" lon="10.88682"><ele>92.33333333333334</ele><time>2026-03-22T13:36:45.425Z</time></trkpt><trkpt lat="45.483855" lon="10.8867917"><ele>92.5</ele><time>2026-03-22T13:36:47.426Z</time></trkpt><trkpt lat="45.4838883" lon="10.886705"><ele>92.66666666666667</ele><time>2026-03-22T13:36:49.425Z</time></trkpt><trkpt lat="45.4838783" lon="10.8865767"><ele>92.83333333333333</ele><time>2026-03-22T13:36:51.426Z</time></trkpt><trkpt lat="45.483865" lon="10.8864033"><ele>93.0</ele><time>2026-03-22T13:36:53.426Z</time></trkpt><trkpt lat="45.4838683" lon="10.886295"><ele>93.2</ele><time>2026-03-22T13:36:54.425Z</time></trkpt><trkpt lat="45.4838817" lon="10.88618"><ele>93.4</ele><time>2026-03-22T13:36:55.426Z</time></trkpt><trkpt lat="45.4839017" lon="10.8860467"><ele>93.60000000000001</ele><time>2026-03-22T13:36:56.425Z</time></trkpt><trkpt lat="45.4839217" lon="10.8859"><ele>93.80000000000001</ele><time>2026-03-22T13:36:57.425Z</time></trkpt><trkpt lat="45.4839433" lon="10.88575"><ele>94.0</ele><time>2026-03-22T13:36:58.426Z</time></trkpt><trkpt lat="45.4839633" lon="10.8855933"><ele>94.0</ele><time>2026-03-22T13:36:59.426Z</time></trkpt><trkpt lat="45.48397" lon="10.8854483"><ele>94.0</ele><time>2026-03-22T13:37:00.425Z</time></trkpt><trkpt lat="45.4839733" lon="10.88531"><ele>94.0</ele><time>2026-03-22T13:37:01.426Z</time></trkpt><trkpt lat="45.4839917" lon="10.885185"><ele>94.0</ele><time>2026-03-22T13:37:02.425Z</time></trkpt><trkpt lat="45.484025" lon="10.885075"><ele>94.0</ele><time>2026-03-22T13:37:03.425Z</time></trkpt><trkpt lat="45.4840683" lon="10.88499"><ele>94.0</ele><time>2026-03-22T13:37:04.425Z</time></trkpt><trkpt lat="45.4841283" lon="10.8849083"><ele>93.4</ele><time>2026-03-22T13:37:05.425Z</time></trkpt><trkpt lat="45.484205" lon="10.8848417"><ele>92.80000000000001</ele><time>2026-03-22T13:37:06.425Z</time></trkpt><trkpt lat="45.4842867" lon="10.884775"><ele>92.19999999999999</ele><time>2026-03-22T13:37:07.426Z</time></trkpt><trkpt lat="45.48437" lon="10.8846967"><ele>91.6</ele><time>2026-03-22T13:37:08.426Z</time></trkpt><trkpt lat="45.484455" lon="10.8846067"><ele>91.0</ele><time>2026-03-22T13:37:09.426Z</time></trkpt><trkpt lat="45.4845467" lon="10.8845"><ele>91.25</ele><time>2026-03-22T13:37:10.426Z</time></trkpt><trkpt lat="45.4846383" lon="10.8843733"><ele>91.5</ele><time>2026-03-22T13:37:11.426Z</time></trkpt><trkpt lat="45.484735" lon="10.8842183"><ele>91.75</ele><time>2026-03-22T13:37:12.425Z</time></trkpt><trkpt lat="45.4848367" lon="10.8840267"><ele>92.0</ele><time>2026-03-22T13:37:13.425Z</time></trkpt><trkpt lat="45.4849417" lon="10.8837917"><ele>92.5</ele><time>2026-03-22T13:37:14.426Z</time></trkpt><trkpt lat="45.48506" lon="10.8835183"><ele>93.0</ele><time>2026-03-22T13:37:15.425Z</time></trkpt><trkpt lat="45.48519" lon="10.8832367"><ele>93.0</ele><time>2026-03-22T13:37:16.425Z</time></trkpt><trkpt lat="45.4853283" lon="10.8829667"><ele>93.0</ele><time>2026-03-22T13:37:17.425Z</time></trkpt><trkpt lat="45.4854567" lon="10.8826983"><ele>93.33333333333333</ele><time>2026-03-22T13:37:18.426Z</time></trkpt><trkpt lat="45.4855867" lon="10.88244"><ele>93.66666666666666</ele><time>2026-03-22T13:37:19.426Z</time></trkpt><trkpt lat="45.4857117" lon="10.8821833"><ele>94.0</ele><time>2026-03-22T13:37:20.426Z</time></trkpt><trkpt lat="45.485835" lon="10.8819033"><ele>92.0</ele><time>2026-03-22T13:37:21.425Z</time></trkpt><trkpt lat="45.4859467" lon="10.8816033"><ele>90.0</ele><time>2026-03-22T13:37:22.425Z</time></trkpt><trkpt lat="45.4860467" lon="10.88129"><ele>90.0</ele><time>2026-03-22T13:37:23.425Z</time></trkpt><trkpt lat="45.4861383" lon="10.8809783"><ele>90.0</ele><time>2026-03-22T13:37:24.426Z</time></trkpt><trkpt lat="45.48623" lon="10.88068"><ele>91.33333333333333</ele><time>2026-03-22T13:37:25.426Z</time></trkpt><trkpt lat="45.4863183" lon="10.8803867"><ele>92.66666666666666</ele><time>2026-03-22T13:37:26.425Z</time></trkpt><trkpt lat="45.486405" lon="10.8801017"><ele>94.0</ele><time>2026-03-22T13:37:27.425Z</time></trkpt><trkpt lat="45.4864933" lon="10.8798233"><ele>94.33333333333333</ele><time>2026-03-22T13:37:28.426Z</time></trkpt><trkpt lat="45.4865833" lon="10.8795517"><ele>94.66666666666667</ele><time>2026-03-22T13:37:29.425Z</time></trkpt><trkpt lat="45.4866683" lon="10.8792783"><ele>95.0</ele><time>2026-03-22T13:37:30.426Z</time></trkpt><trkpt lat="45.4867533" lon="10.8789967"><ele>94.0</ele><time>2026-03-22T13:37:31.426Z</time></trkpt><trkpt lat="45.486835" lon="10.8787167"><ele>93.0</ele><time>2026-03-22T13:37:32.425Z</time></trkpt><trkpt lat="45.4869167" lon="10.878425"><ele>92.0</ele><time>2026-03-22T13:37:33.426Z</time></trkpt><trkpt lat="45.4870033" lon="10.8781383"><ele>91.66666666666667</ele><time>2026-03-22T13:37:34.425Z</time></trkpt><trkpt lat="45.4870883" lon="10.87787"><ele>91.33333333333333</ele><time>2026-03-22T13:37:35.425Z</time></trkpt><trkpt lat="45.487165" lon="10.877625"><ele>91.0</ele><time>2026-03-22T13:37:36.425Z</time></trkpt><trkpt lat="45.4872367" lon="10.8773917"><ele>91.66666666666666</ele><time>2026-03-22T13:37:37.426Z</time></trkpt><trkpt lat="45.4872933" lon="10.8771783"><ele>92.33333333333333</ele><time>2026-03-22T13:37:38.426Z</time></trkpt><trkpt lat="45.4873483" lon="10.8769833"><ele>93.0</ele><time>2026-03-22T13:37:39.425Z</time></trkpt><trkpt lat="45.4874067" lon="10.876795"><ele>93.5</ele><time>2026-03-22T13:37:40.426Z</time></trkpt><trkpt lat="45.4874567" lon="10.8766267"><ele>94.0</ele><time>2026-03-22T13:37:41.426Z</time></trkpt><trkpt lat="45.4874983" lon="10.8764667"><ele>94.5</ele><time>2026-03-22T13:37:42.426Z</time></trkpt><trkpt lat="45.4875367" lon="10.8763"><ele>95.0</ele><time>2026-03-22T13:37:43.425Z</time></trkpt><trkpt lat="45.48759" lon="10.8761267"><ele>94.33333333333334</ele><time>2026-03-22T13:37:44.425Z</time></trkpt><trkpt lat="45.48766" lon="10.87592"><ele>93.66666666666667</ele><time>2026-03-22T13:37:45.425Z</time></trkpt><trkpt lat="45.487735" lon="10.8756883"><ele>93.0</ele><time>2026-03-22T13:37:46.426Z</time></trkpt><trkpt lat="45.4878083" lon="10.87545"><ele>93.0</ele><time>2026-03-22T13:37:47.425Z</time></trkpt><trkpt lat="45.487885" lon="10.875205"><ele>93.0</ele><time>2026-03-22T13:37:48.425Z</time></trkpt><trkpt lat="45.4879583" lon="10.87496"><ele>93.0</ele><time>2026-03-22T13:37:49.426Z</time></trkpt><trkpt lat="45.4880233" lon="10.8747167"><ele>93.0</ele><time>2026-03-22T13:37:50.426Z</time></trkpt><trkpt lat="45.4880967" lon="10.87448"><ele>93.0</ele><time>2026-03-22T13:37:51.425Z</time></trkpt><trkpt lat="45.4881667" lon="10.8742433"><ele>93.0</ele><time>2026-03-22T13:37:52.425Z</time></trkpt><trkpt lat="45.4882367" lon="10.874005"><ele>93.0</ele><time>2026-03-22T13:37:53.425Z</time></trkpt><trkpt lat="45.4883083" lon="10.8737667"><ele>93.0</ele><time>2026-03-22T13:37:54.425Z</time></trkpt><trkpt lat="45.4883817" lon="10.8735283"><ele>93.0</ele><time>2026-03-22T13:37:55.425Z</time></trkpt><trkpt lat="45.4884483" lon="10.873295"><ele>93.33333333333333</ele><time>2026-03-22T13:37:56.426Z</time></trkpt><trkpt lat="45.4885167" lon="10.8730617"><ele>93.66666666666666</ele><time>2026-03-22T13:37:57.426Z</time></trkpt><trkpt lat="45.4885867" lon="10.8728283"><ele>94.0</ele><time>2026-03-22T13:37:58.425Z</time></trkpt><trkpt lat="45.488655" lon="10.8725967"><ele>93.33333333333333</ele><time>2026-03-22T13:37:59.425Z</time></trkpt><trkpt lat="45.4887267" lon="10.8723667"><ele>92.66666666666667</ele><time>2026-03-22T13:38:00.426Z</time></trkpt><trkpt lat="45.4887917" lon="10.87214"><ele>92.0</ele><time>2026-03-22T13:38:01.426Z</time></trkpt><trkpt lat="45.48886" lon="10.8719167"><ele>93.33333333333334</ele><time>2026-03-22T13:38:02.425Z</time></trkpt><trkpt lat="45.48893" lon="10.8716983"><ele>94.66666666666667</ele><time>2026-03-22T13:38:03.425Z</time></trkpt><trkpt lat="45.4889933" lon="10.871485"><ele>96.0</ele><time>2026-03-22T13:38:04.426Z</time></trkpt><trkpt lat="45.4890533" lon="10.87128"><ele>96.0</ele><time>2026-03-22T13:38:05.425Z</time></trkpt><trkpt lat="45.4891133" lon="10.8710933"><ele>96.0</ele><time>2026-03-22T13:38:06.425Z</time></trkpt><trkpt lat="45.489165" lon="10.87092"><ele>96.0</ele><time>2026-03-22T13:38:07.426Z</time></trkpt><trkpt lat="45.4892183" lon="10.87075"><ele>96.0</ele><time>2026-03-22T13:38:08.426Z</time></trkpt><trkpt lat="45.4892617" lon="10.870585"><ele>96.0</ele><time>2026-03-22T13:38:09.426Z</time></trkpt><trkpt lat="45.4893117" lon="10.8704383"><ele>96.0</ele><time>2026-03-22T13:38:10.425Z</time></trkpt><trkpt lat="45.48935" lon="10.8703033"><ele>96.0</ele><time>2026-03-22T13:38:11.425Z</time></trkpt><trkpt lat="45.489385" lon="10.8701883"><ele>96.0</ele><time>2026-03-22T13:38:12.425Z</time></trkpt><trkpt lat="45.4894083" lon="10.8700867"><ele>96.0</ele><time>2026-03-22T13:38:13.426Z</time></trkpt><trkpt lat="45.4894333" lon="10.87"><ele>96.0</ele><time>2026-03-22T13:38:14.425Z</time></trkpt><trkpt lat="45.4894667" lon="10.8699233"><ele>96.5</ele><time>2026-03-22T13:38:15.426Z</time></trkpt><trkpt lat="45.48955" lon="10.869845"><ele>97.0</ele><time>2026-03-22T13:38:17.425Z</time></trkpt><trkpt lat="45.4896133" lon="10.869855"><ele>97.5</ele><time>2026-03-22T13:38:18.426Z</time></trkpt><trkpt lat="45.4896867" lon="10.8698833"><ele>98.0</ele><time>2026-03-22T13:38:19.425Z</time></trkpt><trkpt lat="45.489775" lon="10.86992"><ele>98.5</ele><time>2026-03-22T13:38:20.425Z</time></trkpt><trkpt lat="45.4898767" lon="10.8699583"><ele>99.0</ele><time>2026-03-22T13:38:21.425Z</time></trkpt><trkpt lat="45.4899817" lon="10.8699983"><ele>99.0</ele><time>2026-03-22T13:38:22.426Z</time></trkpt><trkpt lat="45.4901017" lon="10.8700333"><ele>99.0</ele><time>2026-03-22T13:38:23.425Z</time></trkpt><trkpt lat="45.49022" lon="10.8700733"><ele>99.0</ele><time>2026-03-22T13:38:24.426Z</time></trkpt><trkpt lat="45.49035" lon="10.8701133"><ele>99.0</ele><time>2026-03-22T13:38:25.426Z</time></trkpt><trkpt lat="45.490465" lon="10.8701733"><ele>99.5</ele><time>2026-03-22T13:38:26.426Z</time></trkpt><trkpt lat="45.4905883" lon="10.87022"><ele>100.0</ele><time>2026-03-22T13:38:27.426Z</time></trkpt><trkpt lat="45.490715" lon="10.8702517"><ele>100.5</ele><time>2026-03-22T13:38:28.425Z</time></trkpt><trkpt lat="45.49084" lon="10.87029"><ele>101.0</ele><time>2026-03-22T13:38:29.425Z</time></trkpt><trkpt lat="45.4909567" lon="10.8703367"><ele>101.0</ele><time>2026-03-22T13:38:30.426Z</time></trkpt><trkpt lat="45.491065" lon="10.8703833"><ele>101.0</ele><time>2026-03-22T13:38:31.426Z</time></trkpt><trkpt lat="45.49117" lon="10.870415"><ele>101.0</ele><time>2026-03-22T13:38:32.425Z</time></trkpt><trkpt lat="45.4912617" lon="10.8704383"><ele>101.0</ele><time>2026-03-22T13:38:33.426Z</time></trkpt><trkpt lat="45.4913533" lon="10.8704733"><ele>101.0</ele><time>2026-03-22T13:38:34.426Z</time></trkpt><trkpt lat="45.4914367" lon="10.87051"><ele>101.4</ele><time>2026-03-22T13:38:35.426Z</time></trkpt><trkpt lat="45.4915233" lon="10.8705467"><ele>101.8</ele><time>2026-03-22T13:38:36.425Z</time></trkpt><trkpt lat="45.4916117" lon="10.8705783"><ele>102.2</ele><time>2026-03-22T13:38:37.425Z</time></trkpt><trkpt lat="45.491705" lon="10.870605"><ele>102.60000000000001</ele><time>2026-03-22T13:38:38.426Z</time></trkpt><trkpt lat="45.491805" lon="10.8706433"><ele>103.0</ele><time>2026-03-22T13:38:39.425Z</time></trkpt><trkpt lat="45.4919117" lon="10.8706833"><ele>103.0</ele><time>2026-03-22T13:38:40.426Z</time></trkpt><trkpt lat="45.4920267" lon="10.87072"><ele>103.0</ele><time>2026-03-22T13:38:41.425Z</time></trkpt><trkpt lat="45.49215" lon="10.870765"><ele>103.0</ele><time>2026-03-22T13:38:42.425Z</time></trkpt><trkpt lat="45.4922817" lon="10.8708117"><ele>103.0</ele><time>2026-03-22T13:38:43.426Z</time></trkpt><trkpt lat="45.49241" lon="10.870865"><ele>103.25</ele><time>2026-03-22T13:38:44.426Z</time></trkpt><trkpt lat="45.492535" lon="10.87092"><ele>103.5</ele><time>2026-03-22T13:38:45.425Z</time></trkpt><trkpt lat="45.4926567" lon="10.870975"><ele>103.75</ele><time>2026-03-22T13:38:46.425Z</time></trkpt><trkpt lat="45.4927583" lon="10.8710383"><ele>104.0</ele><time>2026-03-22T13:38:47.425Z</time></trkpt><trkpt lat="45.49285" lon="10.8711083"><ele>104.49999999999999</ele><time>2026-03-22T13:38:48.426Z</time></trkpt><trkpt lat="45.49293" lon="10.8711767"><ele>105.0</ele><time>2026-03-22T13:38:49.426Z</time></trkpt><trkpt lat="45.4930017" lon="10.87125"><ele>105.5</ele><time>2026-03-22T13:38:50.426Z</time></trkpt><trkpt lat="45.4930667" lon="10.8713117"><ele>106.0</ele><time>2026-03-22T13:38:51.426Z</time></trkpt><trkpt lat="45.4931267" lon="10.8713483"><ele>106.49999999999999</ele><time>2026-03-22T13:38:52.426Z</time></trkpt><trkpt lat="45.4931917" lon="10.871355"><ele>107.0</ele><time>2026-03-22T13:38:53.426Z</time></trkpt><trkpt lat="45.493255" lon="10.8713267"><ele>107.0</ele><time>2026-03-22T13:38:54.426Z</time></trkpt><trkpt lat="45.4933167" lon="10.871255"><ele>106.99999999999999</ele><time>2026-03-22T13:38:55.426Z</time></trkpt><trkpt lat="45.4933767" lon="10.87116"><ele>106.99999999999999</ele><time>2026-03-22T13:38:56.425Z</time></trkpt><trkpt lat="45.4934417" lon="10.8710517"><ele>107.0</ele><time>2026-03-22T13:38:57.426Z</time></trkpt><trkpt lat="45.4935183" lon="10.8709233"><ele>107.0</ele><time>2026-03-22T13:38:58.426Z</time></trkpt><trkpt lat="45.4935967" lon="10.8707933"><ele>106.75</ele><time>2026-03-22T13:38:59.425Z</time></trkpt><trkpt lat="45.4936717" lon="10.8706583"><ele>106.5</ele><time>2026-03-22T13:39:00.425Z</time></trkpt><trkpt lat="45.4937483" lon="10.8705317"><ele>106.25</ele><time>2026-03-22T13:39:01.425Z</time></trkpt><trkpt lat="45.4938233" lon="10.8704083"><ele>106.0</ele><time>2026-03-22T13:39:02.425Z</time></trkpt><trkpt lat="45.4938933" lon="10.8702933"><ele>106.00000000000001</ele><time>2026-03-22T13:39:03.425Z</time></trkpt><trkpt lat="45.4939633" lon="10.87019"><ele>106.0</ele><time>2026-03-22T13:39:04.425Z</time></trkpt><trkpt lat="45.4940167" lon="10.8700983"><ele>106.0</ele><time>2026-03-22T13:39:05.425Z</time></trkpt><trkpt lat="45.4940667" lon="10.8700117"><ele>106.0</ele><time>2026-03-22T13:39:06.425Z</time></trkpt><trkpt lat="45.494115" lon="10.8699283"><ele>106.00000000000001</ele><time>2026-03-22T13:39:07.425Z</time></trkpt><trkpt lat="45.4941567" lon="10.8698467"><ele>106.0</ele><time>2026-03-22T13:39:08.426Z</time></trkpt><trkpt lat="45.4942117" lon="10.86976"><ele>106.00000000000001</ele><time>2026-03-22T13:39:09.425Z</time></trkpt><trkpt lat="45.4942733" lon="10.869675"><ele>106.0</ele><time>2026-03-22T13:39:10.426Z</time></trkpt><trkpt lat="45.494335" lon="10.8695967"><ele>106.0</ele><time>2026-03-22T13:39:11.426Z</time></trkpt><trkpt lat="45.4943883" lon="10.869515"><ele>106.0</ele><time>2026-03-22T13:39:12.426Z</time></trkpt><trkpt lat="45.4944367" lon="10.8694267"><ele>106.00000000000001</ele><time>2026-03-22T13:39:13.425Z</time></trkpt><trkpt lat="45.49449" lon="10.869325"><ele>106.0</ele><time>2026-03-22T13:39:14.426Z</time></trkpt><trkpt lat="45.494565" lon="10.8692167"><ele>106.75</ele><time>2026-03-22T13:39:15.426Z</time></trkpt><trkpt lat="45.4946267" lon="10.8690783"><ele>107.5</ele><time>2026-03-22T13:39:16.425Z</time></trkpt><trkpt lat="45.49471" lon="10.8689433"><ele>108.25</ele><time>2026-03-22T13:39:17.426Z</time></trkpt><trkpt lat="45.4947933" lon="10.8687983"><ele>109.0</ele><time>2026-03-22T13:39:18.426Z</time></trkpt><trkpt lat="45.4948833" lon="10.86865"><ele>109.0</ele><time>2026-03-22T13:39:19.426Z</time></trkpt><trkpt lat="45.494975" lon="10.8685067"><ele>109.0</ele><time>2026-03-22T13:39:20.425Z</time></trkpt><trkpt lat="45.4950633" lon="10.868355"><ele>109.0</ele><time>2026-03-22T13:39:21.426Z</time></trkpt><trkpt lat="45.4951567" lon="10.8682083"><ele>109.0</ele><time>2026-03-22T13:39:22.426Z</time></trkpt><trkpt lat="45.4952467" lon="10.8680583"><ele>109.0</ele><time>2026-03-22T13:39:23.425Z</time></trkpt><trkpt lat="45.4953433" lon="10.8679083"><ele>109.0</ele><time>2026-03-22T13:39:24.426Z</time></trkpt><trkpt lat="45.4954417" lon="10.8677567"><ele>109.0</ele><time>2026-03-22T13:39:25.425Z</time></trkpt><trkpt lat="45.4955317" lon="10.8676"><ele>109.0</ele><time>2026-03-22T13:39:26.425Z</time></trkpt><trkpt lat="45.49562" lon="10.8674417"><ele>108.5</ele><time>2026-03-22T13:39:27.426Z</time></trkpt><trkpt lat="45.4957083" lon="10.8672917"><ele>108.0</ele><time>2026-03-22T13:39:28.425Z</time></trkpt><trkpt lat="45.4957983" lon="10.867145"><ele>107.5</ele><time>2026-03-22T13:39:29.425Z</time></trkpt><trkpt lat="45.4958933" lon="10.8669983"><ele>107.0</ele><time>2026-03-22T13:39:30.425Z</time></trkpt><trkpt lat="45.495985" lon="10.8668483"><ele>107.0</ele><time>2026-03-22T13:39:31.425Z</time></trkpt><trkpt lat="45.496085" lon="10.8666967"><ele>107.0</ele><time>2026-03-22T13:39:32.425Z</time></trkpt><trkpt lat="45.496185" lon="10.866545"><ele>107.0</ele><time>2026-03-22T13:39:33.425Z</time></trkpt><trkpt lat="45.4962867" lon="10.8663883"><ele>107.0</ele><time>2026-03-22T13:39:34.426Z</time></trkpt><trkpt lat="45.496385" lon="10.8662283"><ele>107.0</ele><time>2026-03-22T13:39:35.426Z</time></trkpt><trkpt lat="45.496485" lon="10.86607"><ele>107.0</ele><time>2026-03-22T13:39:36.425Z</time></trkpt><trkpt lat="45.4965867" lon="10.865905"><ele>107.0</ele><time>2026-03-22T13:39:37.425Z</time></trkpt><trkpt lat="45.4966917" lon="10.8657433"><ele>107.0</ele><time>2026-03-22T13:39:38.425Z</time></trkpt><trkpt lat="45.4967967" lon="10.8655767"><ele>107.0</ele><time>2026-03-22T13:39:39.425Z</time></trkpt><trkpt lat="45.4969017" lon="10.865405"><ele>107.0</ele><time>2026-03-22T13:39:40.425Z</time></trkpt><trkpt lat="45.4970083" lon="10.8652367"><ele>107.25</ele><time>2026-03-22T13:39:41.426Z</time></trkpt><trkpt lat="45.4971083" lon="10.86507"><ele>107.5</ele><time>2026-03-22T13:39:42.426Z</time></trkpt><trkpt lat="45.497205" lon="10.8649083"><ele>107.75</ele><time>2026-03-22T13:39:43.425Z</time></trkpt><trkpt lat="45.4973017" lon="10.8647533"><ele>108.0</ele><time>2026-03-22T13:39:44.425Z</time></trkpt><trkpt lat="45.4973967" lon="10.864595"><ele>108.0</ele><time>2026-03-22T13:39:45.425Z</time></trkpt><trkpt lat="45.4974933" lon="10.864435"><ele>108.0</ele><time>2026-03-22T13:39:46.425Z</time></trkpt><trkpt lat="45.4975967" lon="10.8642717"><ele>108.0</ele><time>2026-03-22T13:39:47.425Z</time></trkpt><trkpt lat="45.4976967" lon="10.864115"><ele>108.25</ele><time>2026-03-22T13:39:48.425Z</time></trkpt><trkpt lat="45.4977883" lon="10.8639617"><ele>108.5</ele><time>2026-03-22T13:39:49.426Z</time></trkpt><trkpt lat="45.497875" lon="10.8638167"><ele>108.75</ele><time>2026-03-22T13:39:50.426Z</time></trkpt><trkpt lat="45.497965" lon="10.8636867"><ele>109.0</ele><time>2026-03-22T13:39:51.425Z</time></trkpt><trkpt lat="45.4980383" lon="10.863565"><ele>109.00000000000001</ele><time>2026-03-22T13:39:52.426Z</time></trkpt><trkpt lat="45.498105" lon="10.8634733"><ele>109.0</ele><time>2026-03-22T13:39:53.425Z</time></trkpt><trkpt lat="45.4981717" lon="10.8633733"><ele>109.0</ele><time>2026-03-22T13:39:55.425Z</time></trkpt><trkpt lat="45.4982417" lon="10.86335"><ele>109.0</ele><time>2026-03-22T13:39:58.426Z</time></trkpt><trkpt lat="45.4983467" lon="10.8633867"><ele>109.00000000000001</ele><time>2026-03-22T13:40:00.425Z</time></trkpt><trkpt lat="45.49841" lon="10.8633567"><ele>109.0</ele><time>2026-03-22T13:40:01.426Z</time></trkpt><trkpt lat="45.4984733" lon="10.86321"><ele>108.80000000000001</ele><time>2026-03-22T13:40:03.426Z</time></trkpt><trkpt lat="45.4985083" lon="10.8631"><ele>108.60000000000001</ele><time>2026-03-22T13:40:04.426Z</time></trkpt><trkpt lat="45.498555" lon="10.8629983"><ele>108.4</ele><time>2026-03-22T13:40:05.425Z</time></trkpt><trkpt lat="45.4986317" lon="10.86293"><ele>108.2</ele><time>2026-03-22T13:40:06.426Z</time></trkpt><trkpt lat="45.4987233" lon="10.862895"><ele>108.0</ele><time>2026-03-22T13:40:07.426Z</time></trkpt><trkpt lat="45.4988283" lon="10.8628933"><ele>108.0</ele><time>2026-03-22T13:40:08.425Z</time></trkpt><trkpt lat="45.4989417" lon="10.8629083"><ele>108.0</ele><time>2026-03-22T13:40:09.425Z</time></trkpt><trkpt lat="45.4990733" lon="10.8629333"><ele>108.0</ele><time>2026-03-22T13:40:10.426Z</time></trkpt><trkpt lat="45.4992" lon="10.86293"><ele>108.0</ele><time>2026-03-22T13:40:11.425Z</time></trkpt><trkpt lat="45.49934" lon="10.8628883"><ele>108.0</ele><time>2026-03-22T13:40:12.426Z</time></trkpt><trkpt lat="45.4994817" lon="10.8628"><ele>108.0</ele><time>2026-03-22T13:40:13.425Z</time></trkpt><trkpt lat="45.4996233" lon="10.862695"><ele>108.0</ele><time>2026-03-22T13:40:14.426Z</time></trkpt><trkpt lat="45.499765" lon="10.8625867"><ele>107.66666666666666</ele><time>2026-03-22T13:40:15.425Z</time></trkpt><trkpt lat="45.4999183" lon="10.8624883"><ele>107.33333333333333</ele><time>2026-03-22T13:40:16.425Z</time></trkpt><trkpt lat="45.5000833" lon="10.862405"><ele>107.0</ele><time>2026-03-22T13:40:17.425Z</time></trkpt><trkpt lat="45.5002617" lon="10.8623483"><ele>107.0</ele><time>2026-03-22T13:40:18.426Z</time></trkpt><trkpt lat="45.5004417" lon="10.8623117"><ele>107.0</ele><time>2026-03-22T13:40:19.425Z</time></trkpt><trkpt lat="45.5006317" lon="10.8622933"><ele>107.0</ele><time>2026-03-22T13:40:20.426Z</time></trkpt><trkpt lat="45.5008367" lon="10.8622783"><ele>107.0</ele><time>2026-03-22T13:40:21.426Z</time></trkpt><trkpt lat="45.50106" lon="10.8622467"><ele>107.0</ele><time>2026-03-22T13:40:22.425Z</time></trkpt><trkpt lat="45.5013" lon="10.8622183"><ele>107.5</ele><time>2026-03-22T13:40:23.426Z</time></trkpt><trkpt lat="45.501545" lon="10.8622033"><ele>108.0</ele><time>2026-03-22T13:40:24.426Z</time></trkpt><trkpt lat="45.50178" lon="10.86218"><ele>108.0</ele><time>2026-03-22T13:40:25.425Z</time></trkpt><trkpt lat="45.5020133" lon="10.8621467"><ele>108.0</ele><time>2026-03-22T13:40:26.426Z</time></trkpt><trkpt lat="45.5022533" lon="10.8621633"><ele>108.33333333333334</ele><time>2026-03-22T13:40:27.425Z</time></trkpt><trkpt lat="45.5024667" lon="10.8621617"><ele>108.66666666666667</ele><time>2026-03-22T13:40:28.426Z</time></trkpt><trkpt lat="45.5026883" lon="10.86216"><ele>109.0</ele><time>2026-03-22T13:40:29.425Z</time></trkpt><trkpt lat="45.502905" lon="10.8621733"><ele>109.0</ele><time>2026-03-22T13:40:30.425Z</time></trkpt><trkpt lat="45.503115" lon="10.862205"><ele>109.0</ele><time>2026-03-22T13:40:31.426Z</time></trkpt><trkpt lat="45.5033217" lon="10.8622483"><ele>109.0</ele><time>2026-03-22T13:40:32.425Z</time></trkpt><trkpt lat="45.5035233" lon="10.8623217"><ele>109.0</ele><time>2026-03-22T13:40:33.426Z</time></trkpt><trkpt lat="45.5037167" lon="10.8624167"><ele>109.0</ele><time>2026-03-22T13:40:34.426Z</time></trkpt><trkpt lat="45.5039067" lon="10.862525"><ele>109.0</ele><time>2026-03-22T13:40:35.425Z</time></trkpt><trkpt lat="45.5040967" lon="10.86264"><ele>110.0</ele><time>2026-03-22T13:40:36.425Z</time></trkpt><trkpt lat="45.5042917" lon="10.8627483"><ele>111.0</ele><time>2026-03-22T13:40:37.426Z</time></trkpt><trkpt lat="45.5044833" lon="10.8628683"><ele>112.0</ele><time>2026-03-22T13:40:38.426Z</time></trkpt><trkpt lat="45.50468" lon="10.86298"><ele>112.66666666666667</ele><time>2026-03-22T13:40:39.426Z</time></trkpt><trkpt lat="45.5048733" lon="10.8630917"><ele>113.33333333333334</ele><time>2026-03-22T13:40:40.426Z</time></trkpt><trkpt lat="45.505065" lon="10.8632017"><ele>114.0</ele><time>2026-03-22T13:40:41.426Z</time></trkpt><trkpt lat="45.5052617" lon="10.863315"><ele>114.0</ele><time>2026-03-22T13:40:42.425Z</time></trkpt><trkpt lat="45.5054533" lon="10.8634267"><ele>114.0</ele><time>2026-03-22T13:40:43.425Z</time></trkpt><trkpt lat="45.5056467" lon="10.8635417"><ele>114.0</ele><time>2026-03-22T13:40:44.426Z</time></trkpt><trkpt lat="45.505845" lon="10.8636567"><ele>114.33333333333334</ele><time>2026-03-22T13:40:45.425Z</time></trkpt><trkpt lat="45.5060417" lon="10.8637617"><ele>114.66666666666667</ele><time>2026-03-22T13:40:46.425Z</time></trkpt><trkpt lat="45.5062367" lon="10.8638683"><ele>115.0</ele><time>2026-03-22T13:40:47.425Z</time></trkpt><trkpt lat="45.5064333" lon="10.8639667"><ele>115.33333333333334</ele><time>2026-03-22T13:40:48.426Z</time></trkpt><trkpt lat="45.50663" lon="10.864075"><ele>115.66666666666666</ele><time>2026-03-22T13:40:49.425Z</time></trkpt><trkpt lat="45.50683" lon="10.8641683"><ele>116.0</ele><time>2026-03-22T13:40:50.426Z</time></trkpt><trkpt lat="45.5070283" lon="10.86427"><ele>117.33333333333333</ele><time>2026-03-22T13:40:51.426Z</time></trkpt><trkpt lat="45.50723" lon="10.8643733"><ele>118.66666666666666</ele><time>2026-03-22T13:40:52.425Z</time></trkpt><trkpt lat="45.50743" lon="10.8644733"><ele>120.0</ele><time>2026-03-22T13:40:53.426Z</time></trkpt><trkpt lat="45.507625" lon="10.86458"><ele>120.0</ele><time>2026-03-22T13:40:54.426Z</time></trkpt><trkpt lat="45.5078133" lon="10.8647017"><ele>120.0</ele><time>2026-03-22T13:40:55.426Z</time></trkpt><trkpt lat="45.5079967" lon="10.8648517"><ele>120.0</ele><time>2026-03-22T13:40:56.425Z</time></trkpt><trkpt lat="45.50817" lon="10.8650333"><ele>122.0</ele><time>2026-03-22T13:40:57.426Z</time></trkpt><trkpt lat="45.5083317" lon="10.8652383"><ele>124.0</ele><time>2026-03-22T13:40:58.425Z</time></trkpt><trkpt lat="45.5084833" lon="10.8654517"><ele>126.0</ele><time>2026-03-22T13:40:59.426Z</time></trkpt><trkpt lat="45.5086333" lon="10.8656583"><ele>126.33333333333334</ele><time>2026-03-22T13:41:00.426Z</time></trkpt><trkpt lat="45.5087933" lon="10.8658467"><ele>126.66666666666667</ele><time>2026-03-22T13:41:01.425Z</time></trkpt><trkpt lat="45.5089633" lon="10.866005"><ele>127.0</ele><time>2026-03-22T13:41:02.426Z</time></trkpt><trkpt lat="45.5091417" lon="10.8661383"><ele>127.0</ele><time>2026-03-22T13:41:03.426Z</time></trkpt><trkpt lat="45.509335" lon="10.8662467"><ele>127.0</ele><time>2026-03-22T13:41:04.426Z</time></trkpt><trkpt lat="45.5095417" lon="10.8663383"><ele>127.0</ele><time>2026-03-22T13:41:05.425Z</time></trkpt><trkpt lat="45.5097533" lon="10.8664133"><ele>126.33333333333334</ele><time>2026-03-22T13:41:06.425Z</time></trkpt><trkpt lat="45.5099617" lon="10.866485"><ele>125.66666666666666</ele><time>2026-03-22T13:41:07.425Z</time></trkpt><trkpt lat="45.5101733" lon="10.866555"><ele>125.0</ele><time>2026-03-22T13:41:08.425Z</time></trkpt><trkpt lat="45.5103883" lon="10.8666267"><ele>126.0</ele><time>2026-03-22T13:41:09.425Z</time></trkpt><trkpt lat="45.5106" lon="10.8666983"><ele>127.0</ele><time>2026-03-22T13:41:10.426Z</time></trkpt><trkpt lat="45.5108117" lon="10.8667683"><ele>128.0</ele><time>2026-03-22T13:41:11.425Z</time></trkpt><trkpt lat="45.5110267" lon="10.8668367"><ele>128.66666666666666</ele><time>2026-03-22T13:41:12.426Z</time></trkpt><trkpt lat="45.511235" lon="10.866905"><ele>129.33333333333334</ele><time>2026-03-22T13:41:13.425Z</time></trkpt><trkpt lat="45.51145" lon="10.8669783"><ele>130.0</ele><time>2026-03-22T13:41:14.426Z</time></trkpt><trkpt lat="45.51166" lon="10.86705"><ele>130.0</ele><time>2026-03-22T13:41:15.426Z</time></trkpt><trkpt lat="45.5118717" lon="10.86712"><ele>130.0</ele><time>2026-03-22T13:41:16.426Z</time></trkpt><trkpt lat="45.5120817" lon="10.8671933"><ele>130.0</ele><time>2026-03-22T13:41:17.425Z</time></trkpt><trkpt lat="45.5122867" lon="10.867275"><ele>130.66666666666669</ele><time>2026-03-22T13:41:18.426Z</time></trkpt><trkpt lat="45.512495" lon="10.8673667"><ele>131.33333333333334</ele><time>2026-03-22T13:41:19.426Z</time></trkpt><trkpt lat="45.5126983" lon="10.86746"><ele>132.0</ele><time>2026-03-22T13:41:20.425Z</time></trkpt><trkpt lat="45.5129033" lon="10.8675583"><ele>132.66666666666666</ele><time>2026-03-22T13:41:21.426Z</time></trkpt><trkpt lat="45.5131033" lon="10.8676633"><ele>133.33333333333331</ele><time>2026-03-22T13:41:22.426Z</time></trkpt><trkpt lat="45.5133067" lon="10.8677733"><ele>134.0</ele><time>2026-03-22T13:41:23.426Z</time></trkpt><trkpt lat="45.51351" lon="10.8678833"><ele>134.0</ele><time>2026-03-22T13:41:24.426Z</time></trkpt><trkpt lat="45.5137167" lon="10.8679883"><ele>134.0</ele><time>2026-03-22T13:41:25.425Z</time></trkpt><trkpt lat="45.51393" lon="10.8680867"><ele>134.0</ele><time>2026-03-22T13:41:26.425Z</time></trkpt><trkpt lat="45.5141417" lon="10.8681867"><ele>134.0</ele><time>2026-03-22T13:41:27.425Z</time></trkpt><trkpt lat="45.51435" lon="10.8682933"><ele>134.0</ele><time>2026-03-22T13:41:28.425Z</time></trkpt><trkpt lat="45.5145567" lon="10.8684067"><ele>134.0</ele><time>2026-03-22T13:41:29.425Z</time></trkpt><trkpt lat="45.5147633" lon="10.868515"><ele>134.0</ele><time>2026-03-22T13:41:30.425Z</time></trkpt><trkpt lat="45.5149783" lon="10.8686233"><ele>134.0</ele><time>2026-03-22T13:41:31.425Z</time></trkpt><trkpt lat="45.5151917" lon="10.86873"><ele>134.0</ele><time>2026-03-22T13:41:32.425Z</time></trkpt><trkpt lat="45.5154067" lon="10.86884"><ele>134.0</ele><time>2026-03-22T13:41:33.425Z</time></trkpt><trkpt lat="45.5156183" lon="10.8689467"><ele>134.0</ele><time>2026-03-22T13:41:34.426Z</time></trkpt><trkpt lat="45.5158367" lon="10.8690533"><ele>134.0</ele><time>2026-03-22T13:41:35.426Z</time></trkpt><trkpt lat="45.5160533" lon="10.8691633"><ele>134.5</ele><time>2026-03-22T13:41:36.425Z</time></trkpt><trkpt lat="45.5162717" lon="10.8692717"><ele>135.0</ele><time>2026-03-22T13:41:37.426Z</time></trkpt><trkpt lat="45.5164883" lon="10.8693867"><ele>135.0</ele><time>2026-03-22T13:41:38.425Z</time></trkpt><trkpt lat="45.5167033" lon="10.8695"><ele>135.0</ele><time>2026-03-22T13:41:39.426Z</time></trkpt><trkpt lat="45.5169233" lon="10.8696183"><ele>136.0</ele><time>2026-03-22T13:41:40.425Z</time></trkpt><trkpt lat="45.517145" lon="10.86974"><ele>137.0</ele><time>2026-03-22T13:41:41.425Z</time></trkpt><trkpt lat="45.517355" lon="10.86989"><ele>137.0</ele><time>2026-03-22T13:41:42.426Z</time></trkpt><trkpt lat="45.517555" lon="10.870055"><ele>137.0</ele><time>2026-03-22T13:41:43.426Z</time></trkpt><trkpt lat="45.517755" lon="10.8702367"><ele>137.0</ele><time>2026-03-22T13:41:44.426Z</time></trkpt><trkpt lat="45.517945" lon="10.8704417"><ele>137.0</ele><time>2026-03-22T13:41:45.426Z</time></trkpt><trkpt lat="45.5181267" lon="10.8706633"><ele>137.0</ele><time>2026-03-22T13:41:46.426Z</time></trkpt><trkpt lat="45.5182983" lon="10.870895"><ele>137.0</ele><time>2026-03-22T13:41:47.425Z</time></trkpt><trkpt lat="45.5184633" lon="10.87114"><ele>137.0</ele><time>2026-03-22T13:41:48.426Z</time></trkpt><trkpt lat="45.5186217" lon="10.8713967"><ele>137.0</ele><time>2026-03-22T13:41:49.425Z</time></trkpt><trkpt lat="45.518775" lon="10.8716467"><ele>136.5</ele><time>2026-03-22T13:41:50.425Z</time></trkpt><trkpt lat="45.5189283" lon="10.8719017"><ele>136.0</ele><time>2026-03-22T13:41:51.425Z</time></trkpt><trkpt lat="45.5190867" lon="10.872145"><ele>136.0</ele><time>2026-03-22T13:41:52.426Z</time></trkpt><trkpt lat="45.5192417" lon="10.8723933"><ele>136.0</ele><time>2026-03-22T13:41:53.425Z</time></trkpt><trkpt lat="45.519395" lon="10.872645"><ele>136.5</ele><time>2026-03-22T13:41:54.425Z</time></trkpt><trkpt lat="45.5195517" lon="10.8728983"><ele>137.0</ele><time>2026-03-22T13:41:55.426Z</time></trkpt><trkpt lat="45.5197117" lon="10.873145"><ele>138.5</ele><time>2026-03-22T13:41:56.425Z</time></trkpt><trkpt lat="45.5198767" lon="10.87339"><ele>140.0</ele><time>2026-03-22T13:41:57.425Z</time></trkpt><trkpt lat="45.52005" lon="10.8736383"><ele>140.0</ele><time>2026-03-22T13:41:58.425Z</time></trkpt><trkpt lat="45.5202183" lon="10.8738817"><ele>140.0</ele><time>2026-03-22T13:41:59.426Z</time></trkpt><trkpt lat="45.5203933" lon="10.8741117"><ele>141.0</ele><time>2026-03-22T13:42:00.425Z</time></trkpt><trkpt lat="45.5205733" lon="10.8743417"><ele>142.0</ele><time>2026-03-22T13:42:01.425Z</time></trkpt><trkpt lat="45.52075" lon="10.87458"><ele>142.0</ele><time>2026-03-22T13:42:02.426Z</time></trkpt><trkpt lat="45.520925" lon="10.874815"><ele>142.0</ele><time>2026-03-22T13:42:03.425Z</time></trkpt><trkpt lat="45.5210967" lon="10.8750483"><ele>142.5</ele><time>2026-03-22T13:42:04.426Z</time></trkpt><trkpt lat="45.521265" lon="10.8752783"><ele>143.0</ele><time>2026-03-22T13:42:05.425Z</time></trkpt><trkpt lat="45.5214333" lon="10.8754983"><ele>143.0</ele><time>2026-03-22T13:42:06.425Z</time></trkpt><trkpt lat="45.5215883" lon="10.8757"><ele>143.0</ele><time>2026-03-22T13:42:07.426Z</time></trkpt><trkpt lat="45.52173" lon="10.8758967"><ele>143.0</ele><time>2026-03-22T13:42:08.426Z</time></trkpt><trkpt lat="45.5218667" lon="10.876085"><ele>142.66666666666666</ele><time>2026-03-22T13:42:09.425Z</time></trkpt><trkpt lat="45.5219983" lon="10.87626"><ele>142.33333333333334</ele><time>2026-03-22T13:42:10.426Z</time></trkpt><trkpt lat="45.522125" lon="10.8764217"><ele>142.0</ele><time>2026-03-22T13:42:11.426Z</time></trkpt><trkpt lat="45.5222483" lon="10.87658"><ele>142.33333333333334</ele><time>2026-03-22T13:42:12.425Z</time></trkpt><trkpt lat="45.52236" lon="10.8767283"><ele>142.66666666666666</ele><time>2026-03-22T13:42:13.425Z</time></trkpt><trkpt lat="45.5224767" lon="10.8768683"><ele>143.0</ele><time>2026-03-22T13:42:14.425Z</time></trkpt><trkpt lat="45.5225917" lon="10.8769983"><ele>143.0</ele><time>2026-03-22T13:42:15.426Z</time></trkpt><trkpt lat="45.5226917" lon="10.8771217"><ele>143.0</ele><time>2026-03-22T13:42:16.426Z</time></trkpt><trkpt lat="45.5227833" lon="10.8772333"><ele>143.0</ele><time>2026-03-22T13:42:17.426Z</time></trkpt><trkpt lat="45.52286" lon="10.8773483"><ele>143.0</ele><time>2026-03-22T13:42:18.426Z</time></trkpt><trkpt lat="45.5229333" lon="10.877465"><ele>143.4</ele><time>2026-03-22T13:42:19.425Z</time></trkpt><trkpt lat="45.5229967" lon="10.8775767"><ele>143.8</ele><time>2026-03-22T13:42:20.425Z</time></trkpt><trkpt lat="45.5230667" lon="10.8776767"><ele>144.2</ele><time>2026-03-22T13:42:21.426Z</time></trkpt><trkpt lat="45.52315" lon="10.8777417"><ele>144.6</ele><time>2026-03-22T13:42:22.425Z</time></trkpt><trkpt lat="45.5232483" lon="10.8777733"><ele>145.0</ele><time>2026-03-22T13:42:23.426Z</time></trkpt><trkpt lat="45.5233533" lon="10.8777733"><ele>144.75</ele><time>2026-03-22T13:42:24.425Z</time></trkpt><trkpt lat="45.52347" lon="10.8777733"><ele>144.5</ele><time>2026-03-22T13:42:25.425Z</time></trkpt><trkpt lat="45.5235883" lon="10.8778017"><ele>144.25</ele><time>2026-03-22T13:42:26.426Z</time></trkpt><trkpt lat="45.5237083" lon="10.877865"><ele>144.0</ele><time>2026-03-22T13:42:27.426Z</time></trkpt><trkpt lat="45.5238333" lon="10.8779517"><ele>144.0</ele><time>2026-03-22T13:42:28.425Z</time></trkpt><trkpt lat="45.5239667" lon="10.8780483"><ele>144.0</ele><time>2026-03-22T13:42:29.425Z</time></trkpt><trkpt lat="45.5241117" lon="10.878145"><ele>144.0</ele><time>2026-03-22T13:42:30.426Z</time></trkpt><trkpt lat="45.52427" lon="10.8782483"><ele>144.0</ele><time>2026-03-22T13:42:31.426Z</time></trkpt><trkpt lat="45.5244317" lon="10.8783617"><ele>144.0</ele><time>2026-03-22T13:42:32.425Z</time></trkpt><trkpt lat="45.5246017" lon="10.878475"><ele>144.0</ele><time>2026-03-22T13:42:33.425Z</time></trkpt><trkpt lat="45.524785" lon="10.878595"><ele>146.5</ele><time>2026-03-22T13:42:34.425Z</time></trkpt><trkpt lat="45.5249833" lon="10.8787233"><ele>149.0</ele><time>2026-03-22T13:42:35.426Z</time></trkpt><trkpt lat="45.5252017" lon="10.8788717"><ele>149.5</ele><time>2026-03-22T13:42:36.425Z</time></trkpt><trkpt lat="45.5254283" lon="10.8790283"><ele>150.0</ele><time>2026-03-22T13:42:37.426Z</time></trkpt><trkpt lat="45.5256733" lon="10.879195"><ele>149.0</ele><time>2026-03-22T13:42:38.425Z</time></trkpt><trkpt lat="45.5259283" lon="10.879375"><ele>148.0</ele><time>2026-03-22T13:42:39.426Z</time></trkpt><trkpt lat="45.5261883" lon="10.8795633"><ele>148.0</ele><time>2026-03-22T13:42:40.426Z</time></trkpt><trkpt lat="45.5264517" lon="10.8797433"><ele>148.0</ele><time>2026-03-22T13:42:41.425Z</time></trkpt><trkpt lat="45.5267167" lon="10.87992"><ele>148.5</ele><time>2026-03-22T13:42:42.425Z</time></trkpt><trkpt lat="45.5269833" lon="10.8801033"><ele>149.0</ele><time>2026-03-22T13:42:43.426Z</time></trkpt><trkpt lat="45.5272517" lon="10.8802817"><ele>150.5</ele><time>2026-03-22T13:42:44.425Z</time></trkpt><trkpt lat="45.52751" lon="10.880455"><ele>152.0</ele><time>2026-03-22T13:42:45.425Z</time></trkpt><trkpt lat="45.5277667" lon="10.8806267"><ele>153.0</ele><time>2026-03-22T13:42:46.425Z</time></trkpt><trkpt lat="45.52802" lon="10.8807917"><ele>154.0</ele><time>2026-03-22T13:42:47.426Z</time></trkpt><trkpt lat="45.5282633" lon="10.880955"><ele>154.0</ele><time>2026-03-22T13:42:48.426Z</time></trkpt><trkpt lat="45.5285017" lon="10.8811233"><ele>154.0</ele><time>2026-03-22T13:42:49.425Z</time></trkpt><trkpt lat="45.5287317" lon="10.88129"><ele>154.5</ele><time>2026-03-22T13:42:50.425Z</time></trkpt><trkpt lat="45.5289633" lon="10.8814567"><ele>155.0</ele><time>2026-03-22T13:42:51.426Z</time></trkpt><trkpt lat="45.5291967" lon="10.8816183"><ele>155.0</ele><time>2026-03-22T13:42:52.426Z</time></trkpt><trkpt lat="45.5294267" lon="10.8817683"><ele>155.0</ele><time>2026-03-22T13:42:53.425Z</time></trkpt><trkpt lat="45.529655" lon="10.8819217"><ele>155.5</ele><time>2026-03-22T13:42:54.425Z</time></trkpt><trkpt lat="45.5298783" lon="10.8820667"><ele>156.0</ele><time>2026-03-22T13:42:55.425Z</time></trkpt><trkpt lat="45.5300967" lon="10.8822167"><ele>156.0</ele><time>2026-03-22T13:42:56.426Z</time></trkpt><trkpt lat="45.5303083" lon="10.882365"><ele>156.0</ele><time>2026-03-22T13:42:57.425Z</time></trkpt><trkpt lat="45.5305067" lon="10.8825283"><ele>156.66666666666666</ele><time>2026-03-22T13:42:58.425Z</time></trkpt><trkpt lat="45.5306867" lon="10.88271"><ele>157.33333333333331</ele><time>2026-03-22T13:42:59.426Z</time></trkpt><trkpt lat="45.5308417" lon="10.88292"><ele>158.0</ele><time>2026-03-22T13:43:00.425Z</time></trkpt><trkpt lat="45.5309717" lon="10.883165"><ele>158.0</ele><time>2026-03-22T13:43:01.426Z</time></trkpt><trkpt lat="45.5310883" lon="10.8834183"><ele>158.0</ele><time>2026-03-22T13:43:02.425Z</time></trkpt><trkpt lat="45.5312" lon="10.88366"><ele>158.0</ele><time>2026-03-22T13:43:03.425Z</time></trkpt><trkpt lat="45.5313133" lon="10.8838883"><ele>158.66666666666666</ele><time>2026-03-22T13:43:04.425Z</time></trkpt><trkpt lat="45.53145" lon="10.8841017"><ele>159.33333333333334</ele><time>2026-03-22T13:43:05.426Z</time></trkpt><trkpt lat="45.5316033" lon="10.8842883"><ele>160.0</ele><time>2026-03-22T13:43:06.426Z</time></trkpt><trkpt lat="45.5317783" lon="10.8844283"><ele>160.0</ele><time>2026-03-22T13:43:07.426Z</time></trkpt><trkpt lat="45.5319633" lon="10.8845317"><ele>160.0</ele><time>2026-03-22T13:43:08.425Z</time></trkpt><trkpt lat="45.53216" lon="10.8846117"><ele>160.0</ele><time>2026-03-22T13:43:09.425Z</time></trkpt><trkpt lat="45.53236" lon="10.884685"><ele>161.0</ele><time>2026-03-22T13:43:10.426Z</time></trkpt><trkpt lat="45.532555" lon="10.8847817"><ele>162.0</ele><time>2026-03-22T13:43:11.426Z</time></trkpt><trkpt lat="45.5327433" lon="10.88491"><ele>163.0</ele><time>2026-03-22T13:43:12.425Z</time></trkpt><trkpt lat="45.532925" lon="10.885065"><ele>163.33333333333334</ele><time>2026-03-22T13:43:13.426Z</time></trkpt><trkpt lat="45.533105" lon="10.885225"><ele>163.66666666666666</ele><time>2026-03-22T13:43:14.426Z</time></trkpt><trkpt lat="45.5332817" lon="10.88539"><ele>164.0</ele><time>2026-03-22T13:43:15.426Z</time></trkpt><trkpt lat="45.5334667" lon="10.8855367"><ele>164.0</ele><time>2026-03-22T13:43:16.425Z</time></trkpt><trkpt lat="45.5336583" lon="10.8856783"><ele>164.0</ele><time>2026-03-22T13:43:17.425Z</time></trkpt><trkpt lat="45.533855" lon="10.8858017"><ele>164.0</ele><time>2026-03-22T13:43:18.426Z</time></trkpt><trkpt lat="45.5340583" lon="10.885915"><ele>164.33333333333331</ele><time>2026-03-22T13:43:19.426Z</time></trkpt><trkpt lat="45.5342717" lon="10.88601"><ele>164.66666666666666</ele><time>2026-03-22T13:43:20.425Z</time></trkpt><trkpt lat="45.5344833" lon="10.8860883"><ele>165.0</ele><time>2026-03-22T13:43:21.425Z</time></trkpt><trkpt lat="45.5347" lon="10.88615"><ele>165.33333333333334</ele><time>2026-03-22T13:43:22.425Z</time></trkpt><trkpt lat="45.5349183" lon="10.8862017"><ele>165.66666666666669</ele><time>2026-03-22T13:43:23.426Z</time></trkpt><trkpt lat="45.535135" lon="10.8862433"><ele>166.0</ele><time>2026-03-22T13:43:24.425Z</time></trkpt><trkpt lat="45.5353433" lon="10.88627"><ele>167.0</ele><time>2026-03-22T13:43:25.425Z</time></trkpt><trkpt lat="45.5355517" lon="10.8862683"><ele>168.0</ele><time>2026-03-22T13:43:26.425Z</time></trkpt><trkpt lat="45.5357533" lon="10.88624"><ele>169.0</ele><time>2026-03-22T13:43:27.426Z</time></trkpt><trkpt lat="45.5359417" lon="10.88619"><ele>169.0</ele><time>2026-03-22T13:43:28.425Z</time></trkpt><trkpt lat="45.5361267" lon="10.8861317"><ele>169.0</ele><time>2026-03-22T13:43:29.425Z</time></trkpt><trkpt lat="45.53629" lon="10.8860667"><ele>169.0</ele><time>2026-03-22T13:43:30.425Z</time></trkpt><trkpt lat="45.5364333" lon="10.886"><ele>169.25</ele><time>2026-03-22T13:43:31.425Z</time></trkpt><trkpt lat="45.5365733" lon="10.8859483"><ele>169.5</ele><time>2026-03-22T13:43:32.426Z</time></trkpt><trkpt lat="45.5367" lon="10.885905"><ele>169.75</ele><time>2026-03-22T13:43:33.426Z</time></trkpt><trkpt lat="45.5368217" lon="10.8858717"><ele>170.0</ele><time>2026-03-22T13:43:34.426Z</time></trkpt><trkpt lat="45.5369317" lon="10.8858583"><ele>170.0</ele><time>2026-03-22T13:43:35.426Z</time></trkpt><trkpt lat="45.5370317" lon="10.8858867"><ele>170.0</ele><time>2026-03-22T13:43:36.426Z</time></trkpt><trkpt lat="45.5371217" lon="10.8859117"><ele>170.0</ele><time>2026-03-22T13:43:37.425Z</time></trkpt><trkpt lat="45.5372167" lon="10.88592"><ele>170.0</ele><time>2026-03-22T13:43:38.426Z</time></trkpt><trkpt lat="45.5373167" lon="10.8859117"><ele>170.0</ele><time>2026-03-22T13:43:39.425Z</time></trkpt><trkpt lat="45.5374167" lon="10.8859067"><ele>170.0</ele><time>2026-03-22T13:43:40.425Z</time></trkpt><trkpt lat="45.53752" lon="10.8859083"><ele>170.0</ele><time>2026-03-22T13:43:41.426Z</time></trkpt><trkpt lat="45.537625" lon="10.8859133"><ele>170.0</ele><time>2026-03-22T13:43:42.426Z</time></trkpt><trkpt lat="45.53774" lon="10.8859133"><ele>170.0</ele><time>2026-03-22T13:43:43.425Z</time></trkpt><trkpt lat="45.5378533" lon="10.885915"><ele>170.0</ele><time>2026-03-22T13:43:44.426Z</time></trkpt><trkpt lat="45.5379717" lon="10.8859167"><ele>170.75</ele><time>2026-03-22T13:43:45.426Z</time></trkpt><trkpt lat="45.53809" lon="10.8859033"><ele>171.5</ele><time>2026-03-22T13:43:46.425Z</time></trkpt><trkpt lat="45.5382117" lon="10.8859033"><ele>172.25</ele><time>2026-03-22T13:43:47.425Z</time></trkpt><trkpt lat="45.5383333" lon="10.885895"><ele>173.0</ele><time>2026-03-22T13:43:48.426Z</time></trkpt><trkpt lat="45.5384533" lon="10.88589"><ele>173.0</ele><time>2026-03-22T13:43:49.425Z</time></trkpt><trkpt lat="45.53858" lon="10.8858917"><ele>173.0</ele><time>2026-03-22T13:43:50.425Z</time></trkpt><trkpt lat="45.5386983" lon="10.8858883"><ele>173.0</ele><time>2026-03-22T13:43:51.425Z</time></trkpt><trkpt lat="45.5388233" lon="10.8858883"><ele>173.0</ele><time>2026-03-22T13:43:52.426Z</time></trkpt><trkpt lat="45.538945" lon="10.88589"><ele>173.5</ele><time>2026-03-22T13:43:53.426Z</time></trkpt><trkpt lat="45.539065" lon="10.8858833"><ele>174.0</ele><time>2026-03-22T13:43:54.425Z</time></trkpt><trkpt lat="45.5391833" lon="10.8858733"><ele>174.5</ele><time>2026-03-22T13:43:55.425Z</time></trkpt><trkpt lat="45.539305" lon="10.8858733"><ele>175.0</ele><time>2026-03-22T13:43:56.425Z</time></trkpt><trkpt lat="45.5394183" lon="10.88587"><ele>175.0</ele><time>2026-03-22T13:43:57.426Z</time></trkpt><trkpt lat="45.5395433" lon="10.88586"><ele>175.0</ele><time>2026-03-22T13:43:58.426Z</time></trkpt><trkpt lat="45.5396617" lon="10.8858617"><ele>175.0</ele><time>2026-03-22T13:43:59.425Z</time></trkpt><trkpt lat="45.5397817" lon="10.8858617"><ele>175.0</ele><time>2026-03-22T13:44:00.426Z</time></trkpt><trkpt lat="45.53991" lon="10.8858567"><ele>175.75</ele><time>2026-03-22T13:44:01.425Z</time></trkpt><trkpt lat="45.540035" lon="10.885855"><ele>176.5</ele><time>2026-03-22T13:44:02.425Z</time></trkpt><trkpt lat="45.5401667" lon="10.885855"><ele>177.25</ele><time>2026-03-22T13:44:03.426Z</time></trkpt><trkpt lat="45.5403" lon="10.88585"><ele>178.0</ele><time>2026-03-22T13:44:04.426Z</time></trkpt><trkpt lat="45.54043" lon="10.8858483"><ele>178.25</ele><time>2026-03-22T13:44:05.425Z</time></trkpt><trkpt lat="45.5405567" lon="10.8858433"><ele>178.5</ele><time>2026-03-22T13:44:06.426Z</time></trkpt><trkpt lat="45.5406883" lon="10.885845"><ele>178.75</ele><time>2026-03-22T13:44:07.426Z</time></trkpt><trkpt lat="45.540815" lon="10.8858433"><ele>179.0</ele><time>2026-03-22T13:44:08.426Z</time></trkpt><trkpt lat="45.5409467" lon="10.8858283"><ele>179.0</ele><time>2026-03-22T13:44:09.425Z</time></trkpt><trkpt lat="45.5410783" lon="10.8858333"><ele>179.0</ele><time>2026-03-22T13:44:10.426Z</time></trkpt><trkpt lat="45.5412167" lon="10.8858267"><ele>179.0</ele><time>2026-03-22T13:44:11.426Z</time></trkpt><trkpt lat="45.5413467" lon="10.8858367"><ele>179.0</ele><time>2026-03-22T13:44:12.426Z</time></trkpt><trkpt lat="45.54148" lon="10.8858233"><ele>179.5</ele><time>2026-03-22T13:44:13.425Z</time></trkpt><trkpt lat="45.5416217" lon="10.885815"><ele>180.0</ele><time>2026-03-22T13:44:14.426Z</time></trkpt><trkpt lat="45.5417517" lon="10.8858083"><ele>180.5</ele><time>2026-03-22T13:44:15.426Z</time></trkpt><trkpt lat="45.541885" lon="10.885805"><ele>181.0</ele><time>2026-03-22T13:44:16.425Z</time></trkpt><trkpt lat="45.54201" lon="10.885805"><ele>181.25</ele><time>2026-03-22T13:44:17.425Z</time></trkpt><trkpt lat="45.542135" lon="10.8858"><ele>181.5</ele><time>2026-03-22T13:44:18.426Z</time></trkpt><trkpt lat="45.5422517" lon="10.8857983"><ele>181.75</ele><time>2026-03-22T13:44:19.426Z</time></trkpt><trkpt lat="45.5423633" lon="10.8858033"><ele>182.0</ele><time>2026-03-22T13:44:20.426Z</time></trkpt><trkpt lat="45.542475" lon="10.8857983"><ele>182.0</ele><time>2026-03-22T13:44:21.424Z</time></trkpt><trkpt lat="45.5425817" lon="10.8857983"><ele>182.0</ele><time>2026-03-22T13:44:22.425Z</time></trkpt><trkpt lat="45.5426817" lon="10.8857917"><ele>182.0</ele><time>2026-03-22T13:44:23.425Z</time></trkpt><trkpt lat="45.5427783" lon="10.88579"><ele>182.0</ele><time>2026-03-22T13:44:24.424Z</time></trkpt><trkpt lat="45.542865" lon="10.8857917"><ele>182.0</ele><time>2026-03-22T13:44:25.424Z</time></trkpt><trkpt lat="45.5429417" lon="10.8857817"><ele>182.5</ele><time>2026-03-22T13:44:26.425Z</time></trkpt><trkpt lat="45.5430067" lon="10.8857717"><ele>183.0</ele><time>2026-03-22T13:44:27.425Z</time></trkpt><trkpt lat="45.5431033" lon="10.8857533"><ele>183.5</ele><time>2026-03-22T13:44:29.424Z</time></trkpt><trkpt lat="45.5431733" lon="10.8857267"><ele>184.0</ele><time>2026-03-22T13:44:32.425Z</time></trkpt><trkpt lat="45.5432317" lon="10.8856617"><ele>184.5</ele><time>2026-03-22T13:44:36.425Z</time></trkpt><trkpt lat="45.5432817" lon="10.885535"><ele>185.0</ele><time>2026-03-22T13:44:38.425Z</time></trkpt><trkpt lat="45.5433367" lon="10.8854717"><ele>185.0</ele><time>2026-03-22T13:44:39.425Z</time></trkpt><trkpt lat="45.543415" lon="10.885415"><ele>185.0</ele><time>2026-03-22T13:44:40.425Z</time></trkpt><trkpt lat="45.5435133" lon="10.8853833"><ele>185.0</ele><time>2026-03-22T13:44:41.424Z</time></trkpt><trkpt lat="45.5436217" lon="10.8853567"><ele>185.0</ele><time>2026-03-22T13:44:42.424Z</time></trkpt><trkpt lat="45.5437367" lon="10.885335"><ele>185.0</ele><time>2026-03-22T13:44:43.424Z</time></trkpt><trkpt lat="45.5438567" lon="10.88531"><ele>185.25</ele><time>2026-03-22T13:44:44.425Z</time></trkpt><trkpt lat="45.543985" lon="10.885285"><ele>185.5</ele><time>2026-03-22T13:44:45.424Z</time></trkpt><trkpt lat="45.5441183" lon="10.8852667"><ele>185.75</ele><time>2026-03-22T13:44:46.425Z</time></trkpt><trkpt lat="45.5442583" lon="10.8852433"><ele>186.0</ele><time>2026-03-22T13:44:47.424Z</time></trkpt><trkpt lat="45.544405" lon="10.8852217"><ele>186.0</ele><time>2026-03-22T13:44:48.425Z</time></trkpt><trkpt lat="45.5445567" lon="10.885195"><ele>186.0</ele><time>2026-03-22T13:44:49.424Z</time></trkpt><trkpt lat="45.5447067" lon="10.8851733"><ele>186.0</ele><time>2026-03-22T13:44:50.425Z</time></trkpt><trkpt lat="45.54486" lon="10.8851433"><ele>186.0</ele><time>2026-03-22T13:44:51.425Z</time></trkpt><trkpt lat="45.5450167" lon="10.8851167"><ele>186.0</ele><time>2026-03-22T13:44:52.425Z</time></trkpt><trkpt lat="45.54518" lon="10.8850833"><ele>186.0</ele><time>2026-03-22T13:44:53.424Z</time></trkpt><trkpt lat="45.545345" lon="10.8850567"><ele>186.33333333333334</ele><time>2026-03-22T13:44:54.425Z</time></trkpt><trkpt lat="45.5455067" lon="10.8850283"><ele>186.66666666666669</ele><time>2026-03-22T13:44:55.424Z</time></trkpt><trkpt lat="45.5456717" lon="10.8850083"><ele>187.0</ele><time>2026-03-22T13:44:56.424Z</time></trkpt><trkpt lat="45.5458333" lon="10.884985"><ele>187.0</ele><time>2026-03-22T13:44:57.425Z</time></trkpt><trkpt lat="45.5460067" lon="10.8849583"><ele>187.0</ele><time>2026-03-22T13:44:58.424Z</time></trkpt><trkpt lat="45.5461867" lon="10.8849333"><ele>187.0</ele><time>2026-03-22T13:44:59.424Z</time></trkpt><trkpt lat="45.54636" lon="10.8849117"><ele>187.66666666666669</ele><time>2026-03-22T13:45:00.425Z</time></trkpt><trkpt lat="45.5465367" lon="10.8849133"><ele>188.33333333333334</ele><time>2026-03-22T13:45:01.425Z</time></trkpt><trkpt lat="45.5467183" lon="10.88493"><ele>189.0</ele><time>2026-03-22T13:45:02.424Z</time></trkpt><trkpt lat="45.5469033" lon="10.8849533"><ele>189.66666666666666</ele><time>2026-03-22T13:45:03.425Z</time></trkpt><trkpt lat="45.54709" lon="10.88497"><ele>190.33333333333331</ele><time>2026-03-22T13:45:04.424Z</time></trkpt><trkpt lat="45.5472683" lon="10.8849917"><ele>191.0</ele><time>2026-03-22T13:45:05.425Z</time></trkpt><trkpt lat="45.54745" lon="10.885015"><ele>191.0</ele><time>2026-03-22T13:45:06.424Z</time></trkpt><trkpt lat="45.5476367" lon="10.8850317"><ele>191.0</ele><time>2026-03-22T13:45:07.424Z</time></trkpt><trkpt lat="45.5478217" lon="10.885045"><ele>191.0</ele><time>2026-03-22T13:45:08.424Z</time></trkpt><trkpt lat="45.5480083" lon="10.8850617"><ele>191.33333333333331</ele><time>2026-03-22T13:45:09.424Z</time></trkpt><trkpt lat="45.5481883" lon="10.8850917"><ele>191.66666666666666</ele><time>2026-03-22T13:45:10.425Z</time></trkpt><trkpt lat="45.548375" lon="10.88513"><ele>192.0</ele><time>2026-03-22T13:45:11.424Z</time></trkpt><trkpt lat="45.5485567" lon="10.8851867"><ele>192.66666666666669</ele><time>2026-03-22T13:45:12.425Z</time></trkpt><trkpt lat="45.5487367" lon="10.8852517"><ele>193.33333333333334</ele><time>2026-03-22T13:45:13.424Z</time></trkpt><trkpt lat="45.5489133" lon="10.8853133"><ele>194.0</ele><time>2026-03-22T13:45:14.425Z</time></trkpt><trkpt lat="45.54909" lon="10.8853767"><ele>194.0</ele><time>2026-03-22T13:45:15.425Z</time></trkpt><trkpt lat="45.5492633" lon="10.8854583"><ele>194.0</ele><time>2026-03-22T13:45:16.425Z</time></trkpt><trkpt lat="45.549435" lon="10.885555"><ele>194.0</ele><time>2026-03-22T13:45:17.425Z</time></trkpt><trkpt lat="45.5496067" lon="10.88568"><ele>194.66666666666669</ele><time>2026-03-22T13:45:18.425Z</time></trkpt><trkpt lat="45.5497833" lon="10.88583"><ele>195.33333333333331</ele><time>2026-03-22T13:45:19.424Z</time></trkpt><trkpt lat="45.5499517" lon="10.885995"><ele>196.0</ele><time>2026-03-22T13:45:20.425Z</time></trkpt><trkpt lat="45.5501283" lon="10.8861667"><ele>196.66666666666666</ele><time>2026-03-22T13:45:21.424Z</time></trkpt><trkpt lat="45.55031" lon="10.8863383"><ele>197.33333333333331</ele><time>2026-03-22T13:45:22.424Z</time></trkpt><trkpt lat="45.550495" lon="10.8865133"><ele>198.0</ele><time>2026-03-22T13:45:23.425Z</time></trkpt><trkpt lat="45.5506883" lon="10.8867"><ele>201.5</ele><time>2026-03-22T13:45:24.425Z</time></trkpt><trkpt lat="45.5508867" lon="10.8868883"><ele>205.0</ele><time>2026-03-22T13:45:25.425Z</time></trkpt><trkpt lat="45.55108" lon="10.8870733"><ele>206.0</ele><time>2026-03-22T13:45:26.425Z</time></trkpt><trkpt lat="45.551265" lon="10.8872533"><ele>207.0</ele><time>2026-03-22T13:45:27.425Z</time></trkpt><trkpt lat="45.5514517" lon="10.88742"><ele>208.0</ele><time>2026-03-22T13:45:28.425Z</time></trkpt><trkpt lat="45.551635" lon="10.8875917"><ele>208.0</ele><time>2026-03-22T13:45:29.425Z</time></trkpt><trkpt lat="45.5518133" lon="10.88775"><ele>208.0</ele><time>2026-03-22T13:45:30.424Z</time></trkpt><trkpt lat="45.5519833" lon="10.88791"><ele>208.0</ele><time>2026-03-22T13:45:31.424Z</time></trkpt><trkpt lat="45.5521467" lon="10.888065"><ele>208.66666666666666</ele><time>2026-03-22T13:45:32.425Z</time></trkpt><trkpt lat="45.5523083" lon="10.8882183"><ele>209.33333333333331</ele><time>2026-03-22T13:45:33.424Z</time></trkpt><trkpt lat="45.5524883" lon="10.88836"><ele>210.0</ele><time>2026-03-22T13:45:34.424Z</time></trkpt><trkpt lat="45.5526833" lon="10.8884817"><ele>210.0</ele><time>2026-03-22T13:45:35.424Z</time></trkpt><trkpt lat="45.5528867" lon="10.88858"><ele>210.0</ele><time>2026-03-22T13:45:36.424Z</time></trkpt><trkpt lat="45.5531083" lon="10.8886467"><ele>210.0</ele><time>2026-03-22T13:45:37.424Z</time></trkpt><trkpt lat="45.5533217" lon="10.888705"><ele>210.0</ele><time>2026-03-22T13:45:38.425Z</time></trkpt><trkpt lat="45.5535333" lon="10.8887583"><ele>210.0</ele><time>2026-03-22T13:45:39.425Z</time></trkpt><trkpt lat="45.5537467" lon="10.8887933"><ele>210.0</ele><time>2026-03-22T13:45:40.424Z</time></trkpt><trkpt lat="45.5539633" lon="10.8888383"><ele>210.33333333333331</ele><time>2026-03-22T13:45:41.424Z</time></trkpt><trkpt lat="45.5541867" lon="10.8888733"><ele>210.66666666666666</ele><time>2026-03-22T13:45:42.425Z</time></trkpt><trkpt lat="45.5544033" lon="10.8889017"><ele>211.0</ele><time>2026-03-22T13:45:43.424Z</time></trkpt><trkpt lat="45.5546233" lon="10.8889317"><ele>212.33333333333331</ele><time>2026-03-22T13:45:44.424Z</time></trkpt><trkpt lat="45.55484" lon="10.8889717"><ele>213.66666666666669</ele><time>2026-03-22T13:45:45.425Z</time></trkpt><trkpt lat="45.55506" lon="10.889015"><ele>215.0</ele><time>2026-03-22T13:45:46.424Z</time></trkpt><trkpt lat="45.5552767" lon="10.8890633"><ele>216.66666666666669</ele><time>2026-03-22T13:45:47.425Z</time></trkpt><trkpt lat="45.5554933" lon="10.8891183"><ele>218.33333333333331</ele><time>2026-03-22T13:45:48.425Z</time></trkpt><trkpt lat="45.55571" lon="10.8891433"><ele>220.0</ele><time>2026-03-22T13:45:49.425Z</time></trkpt><trkpt lat="45.5559183" lon="10.8891783"><ele>220.0</ele><time>2026-03-22T13:45:50.424Z</time></trkpt><trkpt lat="45.55612" lon="10.8891967"><ele>220.0</ele><time>2026-03-22T13:45:51.424Z</time></trkpt><trkpt lat="45.5563083" lon="10.889205"><ele>220.0</ele><time>2026-03-22T13:45:52.425Z</time></trkpt><trkpt lat="45.5564817" lon="10.88923"><ele>220.0</ele><time>2026-03-22T13:45:53.425Z</time></trkpt><trkpt lat="45.5566717" lon="10.8893033"><ele>220.0</ele><time>2026-03-22T13:45:54.425Z</time></trkpt><trkpt lat="45.55687" lon="10.8893833"><ele>220.0</ele><time>2026-03-22T13:45:55.425Z</time></trkpt><trkpt lat="45.5570633" lon="10.889465"><ele>220.0</ele><time>2026-03-22T13:45:56.424Z</time></trkpt><trkpt lat="45.5572383" lon="10.8895467"><ele>220.0</ele><time>2026-03-22T13:45:57.424Z</time></trkpt><trkpt lat="45.5573967" lon="10.8896433"><ele>220.0</ele><time>2026-03-22T13:45:58.425Z</time></trkpt><trkpt lat="45.557535" lon="10.88976"><ele>220.0</ele><time>2026-03-22T13:45:59.425Z</time></trkpt><trkpt lat="45.5576633" lon="10.889845"><ele>220.0</ele><time>2026-03-22T13:46:00.425Z</time></trkpt><trkpt lat="45.5577917" lon="10.8899217"><ele>220.0</ele><time>2026-03-22T13:46:01.425Z</time></trkpt><trkpt lat="45.5579283" lon="10.8899817"><ele>220.0</ele><time>2026-03-22T13:46:02.424Z</time></trkpt><trkpt lat="45.5580733" lon="10.8900117"><ele>219.66666666666666</ele><time>2026-03-22T13:46:03.425Z</time></trkpt><trkpt lat="45.5582233" lon="10.8900517"><ele>219.33333333333331</ele><time>2026-03-22T13:46:04.424Z</time></trkpt><trkpt lat="45.5583867" lon="10.8901"><ele>219.0</ele><time>2026-03-22T13:46:05.425Z</time></trkpt><trkpt lat="45.5585433" lon="10.8901983"><ele>221.66666666666669</ele><time>2026-03-22T13:46:06.424Z</time></trkpt><trkpt lat="45.5587033" lon="10.8903067"><ele>224.33333333333334</ele><time>2026-03-22T13:46:07.424Z</time></trkpt><trkpt lat="45.5588633" lon="10.8904067"><ele>227.0</ele><time>2026-03-22T13:46:08.424Z</time></trkpt><trkpt lat="45.55902" lon="10.8905067"><ele>227.0</ele><time>2026-03-22T13:46:09.425Z</time></trkpt><trkpt lat="45.5591567" lon="10.8906383"><ele>227.0</ele><time>2026-03-22T13:46:10.425Z</time></trkpt><trkpt lat="45.5592733" lon="10.8907633"><ele>227.0</ele><time>2026-03-22T13:46:11.424Z</time></trkpt><trkpt lat="45.5594017" lon="10.8908783"><ele>227.33333333333334</ele><time>2026-03-22T13:46:12.424Z</time></trkpt><trkpt lat="45.559545" lon="10.8909717"><ele>227.66666666666669</ele><time>2026-03-22T13:46:13.425Z</time></trkpt><trkpt lat="45.5597033" lon="10.891055"><ele>228.0</ele><time>2026-03-22T13:46:14.424Z</time></trkpt><trkpt lat="45.55987" lon="10.8911433"><ele>228.0</ele><time>2026-03-22T13:46:15.425Z</time></trkpt><trkpt lat="45.560025" lon="10.8912633"><ele>228.0</ele><time>2026-03-22T13:46:16.425Z</time></trkpt><trkpt lat="45.5601783" lon="10.89141"><ele>228.0</ele><time>2026-03-22T13:46:17.425Z</time></trkpt><trkpt lat="45.5603333" lon="10.8915683"><ele>227.0</ele><time>2026-03-22T13:46:18.425Z</time></trkpt><trkpt lat="45.56049" lon="10.891705"><ele>226.0</ele><time>2026-03-22T13:46:19.425Z</time></trkpt><trkpt lat="45.5606517" lon="10.8918333"><ele>225.0</ele><time>2026-03-22T13:46:20.424Z</time></trkpt><trkpt lat="45.56081" lon="10.8919467"><ele>225.0</ele><time>2026-03-22T13:46:21.425Z</time></trkpt><trkpt lat="45.56097" lon="10.89204"><ele>225.0</ele><time>2026-03-22T13:46:22.424Z</time></trkpt><trkpt lat="45.561125" lon="10.8921417"><ele>225.0</ele><time>2026-03-22T13:46:23.424Z</time></trkpt><trkpt lat="45.5612767" lon="10.8922267"><ele>226.5</ele><time>2026-03-22T13:46:24.425Z</time></trkpt><trkpt lat="45.5614233" lon="10.89229"><ele>228.0</ele><time>2026-03-22T13:46:25.425Z</time></trkpt><trkpt lat="45.5615633" lon="10.8923283"><ele>229.5</ele><time>2026-03-22T13:46:26.425Z</time></trkpt><trkpt lat="45.5616883" lon="10.892355"><ele>231.0</ele><time>2026-03-22T13:46:27.425Z</time></trkpt><trkpt lat="45.5617933" lon="10.8923967"><ele>231.0</ele><time>2026-03-22T13:46:28.425Z</time></trkpt><trkpt lat="45.56188" lon="10.8924617"><ele>231.0</ele><time>2026-03-22T13:46:29.425Z</time></trkpt><trkpt lat="45.5619567" lon="10.89257"><ele>231.0</ele><time>2026-03-22T13:46:30.424Z</time></trkpt><trkpt lat="45.562035" lon="10.8926983"><ele>231.0</ele><time>2026-03-22T13:46:31.425Z</time></trkpt><trkpt lat="45.5621133" lon="10.8928433"><ele>230.75</ele><time>2026-03-22T13:46:32.424Z</time></trkpt><trkpt lat="45.5621983" lon="10.8929933"><ele>230.5</ele><time>2026-03-22T13:46:33.424Z</time></trkpt><trkpt lat="45.5622933" lon="10.89313"><ele>230.25</ele><time>2026-03-22T13:46:34.424Z</time></trkpt><trkpt lat="45.5623983" lon="10.89325"><ele>230.0</ele><time>2026-03-22T13:46:35.425Z</time></trkpt><trkpt lat="45.5625217" lon="10.8933483"><ele>232.33333333333334</ele><time>2026-03-22T13:46:36.424Z</time></trkpt><trkpt lat="45.5626517" lon="10.8934433"><ele>234.66666666666669</ele><time>2026-03-22T13:46:37.424Z</time></trkpt><trkpt lat="45.5627883" lon="10.8935383"><ele>237.0</ele><time>2026-03-22T13:46:38.424Z</time></trkpt><trkpt lat="45.5629233" lon="10.8936383"><ele>237.0</ele><time>2026-03-22T13:46:39.424Z</time></trkpt><trkpt lat="45.563065" lon="10.8937483"><ele>237.0</ele><time>2026-03-22T13:46:40.425Z</time></trkpt><trkpt lat="45.5632067" lon="10.893855"><ele>237.0</ele><time>2026-03-22T13:46:41.425Z</time></trkpt><trkpt lat="45.563345" lon="10.8939617"><ele>237.0</ele><time>2026-03-22T13:46:42.425Z</time></trkpt><trkpt lat="45.563485" lon="10.89408"><ele>237.0</ele><time>2026-03-22T13:46:43.424Z</time></trkpt><trkpt lat="45.5636133" lon="10.8941967"><ele>237.0</ele><time>2026-03-22T13:46:44.424Z</time></trkpt><trkpt lat="45.5637317" lon="10.8943067"><ele>238.39999999999998</ele><time>2026-03-22T13:46:45.424Z</time></trkpt><trkpt lat="45.5638483" lon="10.8943833"><ele>239.79999999999998</ele><time>2026-03-22T13:46:46.425Z</time></trkpt><trkpt lat="45.5639517" lon="10.894435"><ele>241.2</ele><time>2026-03-22T13:46:47.425Z</time></trkpt><trkpt lat="45.5640517" lon="10.8944517"><ele>242.6</ele><time>2026-03-22T13:46:48.424Z</time></trkpt><trkpt lat="45.5641533" lon="10.8944417"><ele>244.0</ele><time>2026-03-22T13:46:49.424Z</time></trkpt><trkpt lat="45.564255" lon="10.8943983"><ele>244.0</ele><time>2026-03-22T13:46:50.424Z</time></trkpt><trkpt lat="45.5643583" lon="10.8943367"><ele>244.0</ele><time>2026-03-22T13:46:51.425Z</time></trkpt><trkpt lat="45.5644683" lon="10.89428"><ele>244.0</ele><time>2026-03-22T13:46:52.425Z</time></trkpt><trkpt lat="45.5645833" lon="10.8942167"><ele>244.0</ele><time>2026-03-22T13:46:53.424Z</time></trkpt><trkpt lat="45.5646983" lon="10.89416"><ele>242.5</ele><time>2026-03-22T13:46:54.425Z</time></trkpt><trkpt lat="45.56481" lon="10.8941033"><ele>241.0</ele><time>2026-03-22T13:46:55.424Z</time></trkpt><trkpt lat="45.56492" lon="10.8940483"><ele>239.5</ele><time>2026-03-22T13:46:56.425Z</time></trkpt><trkpt lat="45.5650283" lon="10.8940167"><ele>238.0</ele><time>2026-03-22T13:46:57.424Z</time></trkpt><trkpt lat="45.56514" lon="10.8940067"><ele>238.0</ele><time>2026-03-22T13:46:58.424Z</time></trkpt><trkpt lat="45.5652683" lon="10.8940183"><ele>238.0</ele><time>2026-03-22T13:46:59.425Z</time></trkpt><trkpt lat="45.565405" lon="10.8940333"><ele>238.0</ele><time>2026-03-22T13:47:00.425Z</time></trkpt><trkpt lat="45.5655483" lon="10.8940617"><ele>238.0</ele><time>2026-03-22T13:47:01.425Z</time></trkpt><trkpt lat="45.565695" lon="10.8940683"><ele>239.5</ele><time>2026-03-22T13:47:02.424Z</time></trkpt><trkpt lat="45.56584" lon="10.894075"><ele>241.0</ele><time>2026-03-22T13:47:03.424Z</time></trkpt><trkpt lat="45.565975" lon="10.8940983"><ele>242.5</ele><time>2026-03-22T13:47:04.424Z</time></trkpt><trkpt lat="45.56612" lon="10.8941517"><ele>244.0</ele><time>2026-03-22T13:47:05.425Z</time></trkpt><trkpt lat="45.5662483" lon="10.8942567"><ele>244.0</ele><time>2026-03-22T13:47:06.425Z</time></trkpt><trkpt lat="45.5663667" lon="10.89436"><ele>244.0</ele><time>2026-03-22T13:47:07.425Z</time></trkpt><trkpt lat="45.5664783" lon="10.8944983"><ele>244.0</ele><time>2026-03-22T13:47:08.425Z</time></trkpt><trkpt lat="45.56658" lon="10.8946117"><ele>244.0</ele><time>2026-03-22T13:47:09.424Z</time></trkpt><trkpt lat="45.566665" lon="10.8947167"><ele>243.99999999999997</ele><time>2026-03-22T13:47:10.424Z</time></trkpt><trkpt lat="45.566745" lon="10.894815"><ele>244.0</ele><time>2026-03-22T13:47:11.424Z</time></trkpt><trkpt lat="45.5668033" lon="10.8948867"><ele>244.0</ele><time>2026-03-22T13:47:12.424Z</time></trkpt><trkpt lat="45.5668667" lon="10.8949317"><ele>244.0</ele><time>2026-03-22T13:47:13.424Z</time></trkpt><trkpt lat="45.566945" lon="10.89493"><ele>243.99999999999997</ele><time>2026-03-22T13:47:14.425Z</time></trkpt><trkpt lat="45.567015" lon="10.8948917"><ele>244.0</ele><time>2026-03-22T13:47:15.424Z</time></trkpt><trkpt lat="45.56708" lon="10.894815"><ele>244.2</ele><time>2026-03-22T13:47:16.424Z</time></trkpt><trkpt lat="45.567155" lon="10.8947267"><ele>244.39999999999998</ele><time>2026-03-22T13:47:17.425Z</time></trkpt><trkpt lat="45.567235" lon="10.8946567"><ele>244.6</ele><time>2026-03-22T13:47:18.425Z</time></trkpt><trkpt lat="45.5673283" lon="10.8946317"><ele>244.8</ele><time>2026-03-22T13:47:19.425Z</time></trkpt><trkpt lat="45.5674333" lon="10.8946283"><ele>245.0</ele><time>2026-03-22T13:47:20.424Z</time></trkpt><trkpt lat="45.5675483" lon="10.8946417"><ele>245.0</ele><time>2026-03-22T13:47:21.424Z</time></trkpt><trkpt lat="45.5676633" lon="10.894685"><ele>245.0</ele><time>2026-03-22T13:47:22.425Z</time></trkpt><trkpt lat="45.5677833" lon="10.8947367"><ele>245.0</ele><time>2026-03-22T13:47:23.424Z</time></trkpt><trkpt lat="45.567905" lon="10.894825"><ele>245.0</ele><time>2026-03-22T13:47:24.424Z</time></trkpt><trkpt lat="45.568035" lon="10.8949017"><ele>246.0</ele><time>2026-03-22T13:47:25.425Z</time></trkpt><trkpt lat="45.5681733" lon="10.8949633"><ele>247.0</ele><time>2026-03-22T13:47:26.424Z</time></trkpt><trkpt lat="45.568315" lon="10.89502"><ele>248.0</ele><time>2026-03-22T13:47:27.424Z</time></trkpt><trkpt lat="45.5684517" lon="10.8950633"><ele>249.0</ele><time>2026-03-22T13:47:28.424Z</time></trkpt><trkpt lat="45.5685867" lon="10.89511"><ele>249.0</ele><time>2026-03-22T13:47:29.425Z</time></trkpt><trkpt lat="45.5686917" lon="10.8951833"><ele>249.0</ele><time>2026-03-22T13:47:30.425Z</time></trkpt><trkpt lat="45.5687817" lon="10.8952833"><ele>249.0</ele><time>2026-03-22T13:47:31.425Z</time></trkpt><trkpt lat="45.5688533" lon="10.8954067"><ele>249.0</ele><time>2026-03-22T13:47:32.425Z</time></trkpt><trkpt lat="45.568915" lon="10.8955567"><ele>249.25</ele><time>2026-03-22T13:47:33.425Z</time></trkpt><trkpt lat="45.5689633" lon="10.89572"><ele>249.5</ele><time>2026-03-22T13:47:34.424Z</time></trkpt><trkpt lat="45.5690067" lon="10.8958933"><ele>249.75</ele><time>2026-03-22T13:47:35.425Z</time></trkpt><trkpt lat="45.5690317" lon="10.896065"><ele>250.0</ele><time>2026-03-22T13:47:36.425Z</time></trkpt><trkpt lat="45.5690767" lon="10.89619"><ele>250.0</ele><time>2026-03-22T13:47:37.424Z</time></trkpt><trkpt lat="45.569135" lon="10.8963033"><ele>250.0</ele><time>2026-03-22T13:47:38.424Z</time></trkpt><trkpt lat="45.5692167" lon="10.8964083"><ele>250.0</ele><time>2026-03-22T13:47:39.424Z</time></trkpt><trkpt lat="45.5693" lon="10.8965"><ele>250.0</ele><time>2026-03-22T13:47:40.425Z</time></trkpt><trkpt lat="45.5694083" lon="10.896565"><ele>250.0</ele><time>2026-03-22T13:47:41.424Z</time></trkpt><trkpt lat="45.5695333" lon="10.8966167"><ele>253.75</ele><time>2026-03-22T13:47:42.424Z</time></trkpt><trkpt lat="45.56967" lon="10.8966533"><ele>257.5</ele><time>2026-03-22T13:47:43.424Z</time></trkpt><trkpt lat="45.5698167" lon="10.896675"><ele>261.25</ele><time>2026-03-22T13:47:44.425Z</time></trkpt><trkpt lat="45.56997" lon="10.8966833"><ele>265.0</ele><time>2026-03-22T13:47:45.425Z</time></trkpt><trkpt lat="45.5701233" lon="10.8967133"><ele>262.3333333333333</ele><time>2026-03-22T13:47:46.424Z</time></trkpt><trkpt lat="45.5702833" lon="10.8967733"><ele>259.6666666666667</ele><time>2026-03-22T13:47:47.424Z</time></trkpt><trkpt lat="45.57043" lon="10.8968683"><ele>257.0</ele><time>2026-03-22T13:47:48.424Z</time></trkpt><trkpt lat="45.5705617" lon="10.8969517"><ele>257.0</ele><time>2026-03-22T13:47:49.424Z</time></trkpt><trkpt lat="45.5706783" lon="10.8970317"><ele>257.0</ele><time>2026-03-22T13:47:50.424Z</time></trkpt><trkpt lat="45.5707833" lon="10.8971083"><ele>257.0</ele><time>2026-03-22T13:47:51.424Z</time></trkpt><trkpt lat="45.570885" lon="10.8971717"><ele>257.0</ele><time>2026-03-22T13:47:52.424Z</time></trkpt><trkpt lat="45.5710017" lon="10.8971983"><ele>257.0</ele><time>2026-03-22T13:47:53.424Z</time></trkpt><trkpt lat="45.5711133" lon="10.8972283"><ele>257.0</ele><time>2026-03-22T13:47:54.425Z</time></trkpt><trkpt lat="45.5712233" lon="10.897265"><ele>257.0</ele><time>2026-03-22T13:47:55.425Z</time></trkpt><trkpt lat="45.571325" lon="10.8973383"><ele>257.0</ele><time>2026-03-22T13:47:56.425Z</time></trkpt><trkpt lat="45.5714083" lon="10.897465"><ele>257.5</ele><time>2026-03-22T13:47:57.425Z</time></trkpt><trkpt lat="45.5714983" lon="10.8975983"><ele>258.0</ele><time>2026-03-22T13:47:58.425Z</time></trkpt><trkpt lat="45.5715967" lon="10.89774"><ele>258.5</ele><time>2026-03-22T13:47:59.425Z</time></trkpt><trkpt lat="45.5717033" lon="10.897895"><ele>259.0</ele><time>2026-03-22T13:48:00.424Z</time></trkpt><trkpt lat="45.5717833" lon="10.89802"><ele>259.0</ele><time>2026-03-22T13:48:01.425Z</time></trkpt><trkpt lat="45.5718567" lon="10.8981483"><ele>259.0</ele><time>2026-03-22T13:48:02.424Z</time></trkpt><trkpt lat="45.57195" lon="10.89825"><ele>259.0</ele><time>2026-03-22T13:48:03.425Z</time></trkpt><trkpt lat="45.57207" lon="10.898325"><ele>259.0</ele><time>2026-03-22T13:48:04.425Z</time></trkpt><trkpt lat="45.5722" lon="10.8983717"><ele>260.5</ele><time>2026-03-22T13:48:05.424Z</time></trkpt><trkpt lat="45.5723267" lon="10.8984017"><ele>262.0</ele><time>2026-03-22T13:48:06.424Z</time></trkpt><trkpt lat="45.5724467" lon="10.8984333"><ele>263.5</ele><time>2026-03-22T13:48:07.425Z</time></trkpt><trkpt lat="45.5725633" lon="10.8984533"><ele>265.0</ele><time>2026-03-22T13:48:08.425Z</time></trkpt><trkpt lat="45.572685" lon="10.898455"><ele>265.0</ele><time>2026-03-22T13:48:09.425Z</time></trkpt><trkpt lat="45.5728083" lon="10.8984433"><ele>265.0</ele><time>2026-03-22T13:48:10.424Z</time></trkpt><trkpt lat="45.5729383" lon="10.8984217"><ele>265.0</ele><time>2026-03-22T13:48:11.424Z</time></trkpt><trkpt lat="45.5730717" lon="10.8983917"><ele>265.0</ele><time>2026-03-22T13:48:12.424Z</time></trkpt><trkpt lat="45.5732083" lon="10.898365"><ele>266.5</ele><time>2026-03-22T13:48:13.424Z</time></trkpt><trkpt lat="45.5733517" lon="10.8983483"><ele>268.0</ele><time>2026-03-22T13:48:14.424Z</time></trkpt><trkpt lat="45.5734917" lon="10.898355"><ele>269.5</ele><time>2026-03-22T13:48:15.424Z</time></trkpt><trkpt lat="45.57364" lon="10.8983817"><ele>271.0</ele><time>2026-03-22T13:48:16.424Z</time></trkpt><trkpt lat="45.57377" lon="10.89849"><ele>271.0</ele><time>2026-03-22T13:48:17.425Z</time></trkpt><trkpt lat="45.5739017" lon="10.8985867"><ele>271.0</ele><time>2026-03-22T13:48:18.425Z</time></trkpt><trkpt lat="45.5740317" lon="10.8986767"><ele>271.0</ele><time>2026-03-22T13:48:19.425Z</time></trkpt><trkpt lat="45.574165" lon="10.8987683"><ele>271.0</ele><time>2026-03-22T13:48:20.425Z</time></trkpt><trkpt lat="45.574295" lon="10.898845"><ele>271.0</ele><time>2026-03-22T13:48:21.425Z</time></trkpt><trkpt lat="45.5744183" lon="10.8989283"><ele>271.0</ele><time>2026-03-22T13:48:22.425Z</time></trkpt><trkpt lat="45.57452" lon="10.8990067"><ele>271.0</ele><time>2026-03-22T13:48:23.424Z</time></trkpt><trkpt lat="45.5746133" lon="10.899085"><ele>271.0</ele><time>2026-03-22T13:48:24.424Z</time></trkpt><trkpt lat="45.5747033" lon="10.899145"><ele>272.0</ele><time>2026-03-22T13:48:25.425Z</time></trkpt><trkpt lat="45.5747917" lon="10.8992017"><ele>273.0</ele><time>2026-03-22T13:48:26.424Z</time></trkpt><trkpt lat="45.5748833" lon="10.8992583"><ele>274.0</ele><time>2026-03-22T13:48:27.425Z</time></trkpt><trkpt lat="45.5749567" lon="10.8993217"><ele>275.0</ele><time>2026-03-22T13:48:28.425Z</time></trkpt><trkpt lat="45.5750267" lon="10.8993783"><ele>276.0</ele><time>2026-03-22T13:48:29.424Z</time></trkpt><trkpt lat="45.575085" lon="10.8994217"><ele>277.0</ele><time>2026-03-22T13:48:30.425Z</time></trkpt><trkpt lat="45.5751917" lon="10.8994983"><ele>277.0</ele><time>2026-03-22T13:48:32.425Z</time></trkpt><trkpt lat="45.5752967" lon="10.8995783"><ele>277.0</ele><time>2026-03-22T13:48:34.424Z</time></trkpt><trkpt lat="45.57537" lon="10.8996317"><ele>277.0</ele><time>2026-03-22T13:48:35.424Z</time></trkpt><trkpt lat="45.5754733" lon="10.899675"><ele>277.0</ele><time>2026-03-22T13:48:36.424Z</time></trkpt><trkpt lat="45.5755717" lon="10.899735"><ele>277.0</ele><time>2026-03-22T13:48:37.425Z</time></trkpt><trkpt lat="45.5756717" lon="10.8997867"><ele>277.5</ele><time>2026-03-22T13:48:38.424Z</time></trkpt><trkpt lat="45.5757467" lon="10.8998267"><ele>278.0</ele><time>2026-03-22T13:48:39.424Z</time></trkpt><trkpt lat="45.5758133" lon="10.89986"><ele>278.5</ele><time>2026-03-22T13:48:40.425Z</time></trkpt><trkpt lat="45.5758817" lon="10.8998833"><ele>279.0</ele><time>2026-03-22T13:48:41.424Z</time></trkpt><trkpt lat="45.575965" lon="10.899905"><ele>279.5</ele><time>2026-03-22T13:48:42.425Z</time></trkpt><trkpt lat="45.576065" lon="10.8999367"><ele>280.0</ele><time>2026-03-22T13:48:43.425Z</time></trkpt><trkpt lat="45.5761667" lon="10.8999733"><ele>282.2</ele><time>2026-03-22T13:48:44.425Z</time></trkpt><trkpt lat="45.5762783" lon="10.9000133"><ele>284.4</ele><time>2026-03-22T13:48:45.424Z</time></trkpt><trkpt lat="45.576395" lon="10.9000483"><ele>286.6</ele><time>2026-03-22T13:48:46.425Z</time></trkpt><trkpt lat="45.5765067" lon="10.90009"><ele>288.8</ele><time>2026-03-22T13:48:47.425Z</time></trkpt><trkpt lat="45.5766033" lon="10.90011"><ele>291.0</ele><time>2026-03-22T13:48:48.424Z</time></trkpt><trkpt lat="45.5766933" lon="10.9001067"><ele>291.0</ele><time>2026-03-22T13:48:49.425Z</time></trkpt><trkpt lat="45.5767867" lon="10.9001033"><ele>291.0</ele><time>2026-03-22T13:48:50.424Z</time></trkpt><trkpt lat="45.5768933" lon="10.90009"><ele>291.0</ele><time>2026-03-22T13:48:51.425Z</time></trkpt><trkpt lat="45.5770183" lon="10.9000733"><ele>291.0</ele><time>2026-03-22T13:48:52.425Z</time></trkpt><trkpt lat="45.5771633" lon="10.9000433"><ele>294.0</ele><time>2026-03-22T13:48:53.424Z</time></trkpt><trkpt lat="45.5773333" lon="10.9000083"><ele>297.0</ele><time>2026-03-22T13:48:54.424Z</time></trkpt><trkpt lat="45.5775167" lon="10.89998"><ele>300.0</ele><time>2026-03-22T13:48:55.425Z</time></trkpt><trkpt lat="45.5777" lon="10.8999183"><ele>298.0</ele><time>2026-03-22T13:48:56.424Z</time></trkpt><trkpt lat="45.5778767" lon="10.8998683"><ele>296.0</ele><time>2026-03-22T13:48:57.424Z</time></trkpt><trkpt lat="45.5780483" lon="10.89983"><ele>294.0</ele><time>2026-03-22T13:48:58.425Z</time></trkpt><trkpt lat="45.57821" lon="10.8998067"><ele>294.0</ele><time>2026-03-22T13:48:59.424Z</time></trkpt><trkpt lat="45.5783633" lon="10.8997933"><ele>294.0</ele><time>2026-03-22T13:49:00.425Z</time></trkpt><trkpt lat="45.5785" lon="10.8997867"><ele>294.0</ele><time>2026-03-22T13:49:01.424Z</time></trkpt><trkpt lat="45.5786233" lon="10.89979"><ele>294.0</ele><time>2026-03-22T13:49:02.424Z</time></trkpt><trkpt lat="45.5787483" lon="10.8998267"><ele>293.25</ele><time>2026-03-22T13:49:03.425Z</time></trkpt><trkpt lat="45.5788817" lon="10.8998933"><ele>292.5</ele><time>2026-03-22T13:49:04.425Z</time></trkpt><trkpt lat="45.5790233" lon="10.8999467"><ele>291.75</ele><time>2026-03-22T13:49:05.425Z</time></trkpt><trkpt lat="45.57917" lon="10.90002"><ele>291.0</ele><time>2026-03-22T13:49:06.425Z</time></trkpt><trkpt lat="45.5793133" lon="10.9001017"><ele>291.0</ele><time>2026-03-22T13:49:07.424Z</time></trkpt><trkpt lat="45.5794617" lon="10.900195"><ele>291.0</ele><time>2026-03-22T13:49:08.425Z</time></trkpt><trkpt lat="45.579605" lon="10.90034"><ele>291.0</ele><time>2026-03-22T13:49:09.424Z</time></trkpt><trkpt lat="45.5797433" lon="10.9004733"><ele>297.5</ele><time>2026-03-22T13:49:10.425Z</time></trkpt><trkpt lat="45.5798617" lon="10.9006"><ele>304.0</ele><time>2026-03-22T13:49:11.425Z</time></trkpt><trkpt lat="45.57997" lon="10.9007133"><ele>310.5</ele><time>2026-03-22T13:49:12.424Z</time></trkpt><trkpt lat="45.5800783" lon="10.9007967"><ele>317.0</ele><time>2026-03-22T13:49:13.425Z</time></trkpt><trkpt lat="45.5801883" lon="10.90086"><ele>317.0</ele><time>2026-03-22T13:49:14.424Z</time></trkpt><trkpt lat="45.580285" lon="10.900895"><ele>317.0</ele><time>2026-03-22T13:49:15.424Z</time></trkpt><trkpt lat="45.580385" lon="10.9009"><ele>317.0</ele><time>2026-03-22T13:49:16.424Z</time></trkpt><trkpt lat="45.58048" lon="10.9008733"><ele>317.0</ele><time>2026-03-22T13:49:17.425Z</time></trkpt><trkpt lat="45.5805633" lon="10.9007733"><ele>317.0</ele><time>2026-03-22T13:49:18.425Z</time></trkpt><trkpt lat="45.5806483" lon="10.9006067"><ele>321.33333333333337</ele><time>2026-03-22T13:49:19.425Z</time></trkpt><trkpt lat="45.5807333" lon="10.900405"><ele>325.6666666666667</ele><time>2026-03-22T13:49:20.424Z</time></trkpt><trkpt lat="45.5808333" lon="10.900205"><ele>330.0</ele><time>2026-03-22T13:49:21.424Z</time></trkpt><trkpt lat="45.5809417" lon="10.90001"><ele>336.0</ele><time>2026-03-22T13:49:22.424Z</time></trkpt><trkpt lat="45.5810417" lon="10.8998317"><ele>342.0</ele><time>2026-03-22T13:49:23.425Z</time></trkpt><trkpt lat="45.581145" lon="10.8996783"><ele>348.0</ele><time>2026-03-22T13:49:24.424Z</time></trkpt><trkpt lat="45.5812483" lon="10.8995533"><ele>354.0</ele><time>2026-03-22T13:49:25.424Z</time></trkpt><trkpt lat="45.5813433" lon="10.8994633"><ele>355.3333333333333</ele><time>2026-03-22T13:49:26.425Z</time></trkpt><trkpt lat="45.581435" lon="10.8994117"><ele>356.6666666666667</ele><time>2026-03-22T13:49:27.424Z</time></trkpt><trkpt lat="45.5815217" lon="10.8994"><ele>358.0</ele><time>2026-03-22T13:49:28.424Z</time></trkpt><trkpt lat="45.5815883" lon="10.8994483"><ele>359.33333333333337</ele><time>2026-03-22T13:49:29.424Z</time></trkpt><trkpt lat="45.5816483" lon="10.899495"><ele>360.6666666666667</ele><time>2026-03-22T13:49:30.424Z</time></trkpt><trkpt lat="45.5816733" lon="10.8996067"><ele>362.0</ele><time>2026-03-22T13:49:31.425Z</time></trkpt><trkpt lat="45.58168" lon="10.8997417"><ele>362.0</ele><time>2026-03-22T13:49:32.425Z</time></trkpt><trkpt lat="45.5816667" lon="10.8999033"><ele>362.0</ele><time>2026-03-22T13:49:33.424Z</time></trkpt><trkpt lat="45.5816433" lon="10.9000917"><ele>362.0</ele><time>2026-03-22T13:49:34.425Z</time></trkpt><trkpt lat="45.5816117" lon="10.9002883"><ele>362.0</ele><time>2026-03-22T13:49:35.424Z</time></trkpt><trkpt lat="45.5815717" lon="10.9004667"><ele>362.0</ele><time>2026-03-22T13:49:36.424Z</time></trkpt><trkpt lat="45.5815217" lon="10.900635"><ele>362.0</ele><time>2026-03-22T13:49:37.425Z</time></trkpt><trkpt lat="45.5814717" lon="10.900805"><ele>362.0</ele><time>2026-03-22T13:49:38.425Z</time></trkpt><trkpt lat="45.581435" lon="10.9009833"><ele>362.0</ele><time>2026-03-22T13:49:39.424Z</time></trkpt><trkpt lat="45.5814017" lon="10.9011533"><ele>362.0</ele><time>2026-03-22T13:49:40.424Z</time></trkpt><trkpt lat="45.5813783" lon="10.901305"><ele>362.0</ele><time>2026-03-22T13:49:41.425Z</time></trkpt><trkpt lat="45.5813817" lon="10.9014483"><ele>362.0</ele><time>2026-03-22T13:49:42.425Z</time></trkpt><trkpt lat="45.5814033" lon="10.9015917"><ele>362.0</ele><time>2026-03-22T13:49:43.424Z</time></trkpt><trkpt lat="45.5814483" lon="10.9017267"><ele>362.0</ele><time>2026-03-22T13:49:44.425Z</time></trkpt><trkpt lat="45.58149" lon="10.90183"><ele>354.0</ele><time>2026-03-22T13:49:45.424Z</time></trkpt><trkpt lat="45.5815517" lon="10.90191"><ele>346.0</ele><time>2026-03-22T13:49:46.425Z</time></trkpt><trkpt lat="45.5816283" lon="10.9019667"><ele>338.0</ele><time>2026-03-22T13:49:47.424Z</time></trkpt><trkpt lat="45.5817233" lon="10.9020017"><ele>330.0</ele><time>2026-03-22T13:49:48.424Z</time></trkpt><trkpt lat="45.58183" lon="10.901995"><ele>322.0</ele><time>2026-03-22T13:49:49.424Z</time></trkpt><trkpt lat="45.5819683" lon="10.9019333"><ele>326.0</ele><time>2026-03-22T13:49:50.424Z</time></trkpt><trkpt lat="45.5821317" lon="10.90183"><ele>330.0</ele><time>2026-03-22T13:49:51.424Z</time></trkpt><trkpt lat="45.5823" lon="10.9017333"><ele>334.0</ele><time>2026-03-22T13:49:52.424Z</time></trkpt><trkpt lat="45.5824583" lon="10.9016233"><ele>349.0</ele><time>2026-03-22T13:49:53.424Z</time></trkpt><trkpt lat="45.5826117" lon="10.90153"><ele>364.0</ele><time>2026-03-22T13:49:54.425Z</time></trkpt><trkpt lat="45.5827617" lon="10.901455"><ele>379.0</ele><time>2026-03-22T13:49:55.425Z</time></trkpt><trkpt lat="45.5829033" lon="10.9014133"><ele>382.75</ele><time>2026-03-22T13:49:56.425Z</time></trkpt><trkpt lat="45.58304" lon="10.90142"><ele>386.5</ele><time>2026-03-22T13:49:57.424Z</time></trkpt><trkpt lat="45.5831767" lon="10.9014817"><ele>390.25</ele><time>2026-03-22T13:49:58.425Z</time></trkpt><trkpt lat="45.58332" lon="10.9016"><ele>394.0</ele><time>2026-03-22T13:49:59.424Z</time></trkpt><trkpt lat="45.5834617" lon="10.9017167"><ele>394.33333333333337</ele><time>2026-03-22T13:50:00.424Z</time></trkpt><trkpt lat="45.5836117" lon="10.9018383"><ele>394.66666666666663</ele><time>2026-03-22T13:50:01.425Z</time></trkpt><trkpt lat="45.5837567" lon="10.901985"><ele>395.0</ele><time>2026-03-22T13:50:02.425Z</time></trkpt><trkpt lat="45.58388" lon="10.9021533"><ele>395.0</ele><time>2026-03-22T13:50:03.424Z</time></trkpt><trkpt lat="45.5840033" lon="10.90231"><ele>395.0</ele><time>2026-03-22T13:50:04.424Z</time></trkpt><trkpt lat="45.58414" lon="10.9024317"><ele>395.0</ele><time>2026-03-22T13:50:05.425Z</time></trkpt><trkpt lat="45.5843" lon="10.9025333"><ele>392.25</ele><time>2026-03-22T13:50:06.425Z</time></trkpt><trkpt lat="45.5844467" lon="10.9026417"><ele>389.5</ele><time>2026-03-22T13:50:07.424Z</time></trkpt><trkpt lat="45.584585" lon="10.9027283"><ele>386.75</ele><time>2026-03-22T13:50:08.424Z</time></trkpt><trkpt lat="45.5847033" lon="10.9027917"><ele>384.0</ele><time>2026-03-22T13:50:09.424Z</time></trkpt><trkpt lat="45.584815" lon="10.9028183"><ele>384.0</ele><time>2026-03-22T13:50:10.425Z</time></trkpt><trkpt lat="45.5849233" lon="10.9028033"><ele>384.0</ele><time>2026-03-22T13:50:11.425Z</time></trkpt><trkpt lat="45.5850167" lon="10.9027383"><ele>384.0</ele><time>2026-03-22T13:50:12.424Z</time></trkpt><trkpt lat="45.5851017" lon="10.9026333"><ele>384.0</ele><time>2026-03-22T13:50:13.425Z</time></trkpt><trkpt lat="45.5852083" lon="10.9025233"><ele>391.75</ele><time>2026-03-22T13:50:14.425Z</time></trkpt><trkpt lat="45.58533" lon="10.90242"><ele>399.5</ele><time>2026-03-22T13:50:15.425Z</time></trkpt><trkpt lat="45.5854583" lon="10.902335"><ele>407.25</ele><time>2026-03-22T13:50:16.425Z</time></trkpt><trkpt lat="45.5855933" lon="10.902255"><ele>415.0</ele><time>2026-03-22T13:50:17.425Z</time></trkpt><trkpt lat="45.5857333" lon="10.9021983"><ele>415.0</ele><time>2026-03-22T13:50:18.424Z</time></trkpt><trkpt lat="45.58589" lon="10.9021833"><ele>415.0</ele><time>2026-03-22T13:50:19.424Z</time></trkpt><trkpt lat="45.586065" lon="10.90219"><ele>415.0</ele><time>2026-03-22T13:50:20.425Z</time></trkpt><trkpt lat="45.5862383" lon="10.9022133"><ele>419.33333333333337</ele><time>2026-03-22T13:50:21.425Z</time></trkpt><trkpt lat="45.5864067" lon="10.9022333"><ele>423.66666666666663</ele><time>2026-03-22T13:50:22.424Z</time></trkpt><trkpt lat="45.586575" lon="10.90224"><ele>428.0</ele><time>2026-03-22T13:50:23.424Z</time></trkpt><trkpt lat="45.5867283" lon="10.9022383"><ele>428.0</ele><time>2026-03-22T13:50:24.425Z</time></trkpt><trkpt lat="45.5868833" lon="10.902205"><ele>428.0</ele><time>2026-03-22T13:50:25.425Z</time></trkpt><trkpt lat="45.5870333" lon="10.9021617"><ele>428.0</ele><time>2026-03-22T13:50:26.425Z</time></trkpt><trkpt lat="45.5871617" lon="10.90213"><ele>428.0</ele><time>2026-03-22T13:50:27.425Z</time></trkpt><trkpt lat="45.5872683" lon="10.9021283"><ele>430.59999999999997</ele><time>2026-03-22T13:50:28.424Z</time></trkpt><trkpt lat="45.5873583" lon="10.902175"><ele>433.19999999999993</ele><time>2026-03-22T13:50:29.425Z</time></trkpt><trkpt lat="45.5874333" lon="10.9022483"><ele>435.8</ele><time>2026-03-22T13:50:30.424Z</time></trkpt><trkpt lat="45.5874983" lon="10.902355"><ele>438.4</ele><time>2026-03-22T13:50:31.425Z</time></trkpt><trkpt lat="45.5875467" lon="10.9025017"><ele>441.0</ele><time>2026-03-22T13:50:32.424Z</time></trkpt><trkpt lat="45.5875883" lon="10.9026717"><ele>441.0</ele><time>2026-03-22T13:50:33.424Z</time></trkpt><trkpt lat="45.58763" lon="10.9028533"><ele>441.0</ele><time>2026-03-22T13:50:34.424Z</time></trkpt><trkpt lat="45.5876767" lon="10.9030183"><ele>441.0</ele><time>2026-03-22T13:50:35.424Z</time></trkpt><trkpt lat="45.5877383" lon="10.9031617"><ele>441.0</ele><time>2026-03-22T13:50:36.424Z</time></trkpt><trkpt lat="45.5878167" lon="10.903275"><ele>442.0</ele><time>2026-03-22T13:50:37.425Z</time></trkpt><trkpt lat="45.58791" lon="10.9033533"><ele>443.0</ele><time>2026-03-22T13:50:38.425Z</time></trkpt><trkpt lat="45.5880217" lon="10.903415"><ele>444.0</ele><time>2026-03-22T13:50:39.424Z</time></trkpt><trkpt lat="45.5881433" lon="10.9034417"><ele>445.0</ele><time>2026-03-22T13:50:40.425Z</time></trkpt><trkpt lat="45.588275" lon="10.9034367"><ele>445.0</ele><time>2026-03-22T13:50:41.425Z</time></trkpt><trkpt lat="45.58841" lon="10.9034017"><ele>445.0</ele><time>2026-03-22T13:50:42.425Z</time></trkpt><trkpt lat="45.5885567" lon="10.9033517"><ele>445.0</ele><time>2026-03-22T13:50:43.425Z</time></trkpt><trkpt lat="45.5886967" lon="10.9033"><ele>445.0</ele><time>2026-03-22T13:50:44.424Z</time></trkpt><trkpt lat="45.58884" lon="10.9032383"><ele>443.5</ele><time>2026-03-22T13:50:45.424Z</time></trkpt><trkpt lat="45.5889733" lon="10.9031633"><ele>442.0</ele><time>2026-03-22T13:50:46.424Z</time></trkpt><trkpt lat="45.5890917" lon="10.9030667"><ele>440.5</ele><time>2026-03-22T13:50:47.424Z</time></trkpt><trkpt lat="45.5891767" lon="10.9029317"><ele>439.0</ele><time>2026-03-22T13:50:48.425Z</time></trkpt><trkpt lat="45.5892433" lon="10.902765"><ele>441.0</ele><time>2026-03-22T13:50:49.424Z</time></trkpt><trkpt lat="45.589295" lon="10.9025683"><ele>443.0</ele><time>2026-03-22T13:50:50.425Z</time></trkpt><trkpt lat="45.5893483" lon="10.90237"><ele>445.0</ele><time>2026-03-22T13:50:51.425Z</time></trkpt><trkpt lat="45.58941" lon="10.9021867"><ele>447.0</ele><time>2026-03-22T13:50:52.425Z</time></trkpt><trkpt lat="45.589485" lon="10.90203"><ele>447.66666666666663</ele><time>2026-03-22T13:50:53.424Z</time></trkpt><trkpt lat="45.5895983" lon="10.901895"><ele>448.3333333333333</ele><time>2026-03-22T13:50:54.425Z</time></trkpt><trkpt lat="45.5897233" lon="10.901775"><ele>449.0</ele><time>2026-03-22T13:50:55.425Z</time></trkpt><trkpt lat="45.5898583" lon="10.9016517"><ele>449.0</ele><time>2026-03-22T13:50:56.424Z</time></trkpt><trkpt lat="45.5899883" lon="10.9015267"><ele>449.0</ele><time>2026-03-22T13:50:57.424Z</time></trkpt><trkpt lat="45.5901217" lon="10.9014067"><ele>449.0</ele><time>2026-03-22T13:50:58.424Z</time></trkpt><trkpt lat="45.5902667" lon="10.9012783"><ele>447.0</ele><time>2026-03-22T13:50:59.424Z</time></trkpt><trkpt lat="45.5904083" lon="10.90115"><ele>445.0</ele><time>2026-03-22T13:51:00.424Z</time></trkpt><trkpt lat="45.5905483" lon="10.9010117"><ele>443.0</ele><time>2026-03-22T13:51:01.425Z</time></trkpt><trkpt lat="45.5907" lon="10.9008733"><ele>444.66666666666663</ele><time>2026-03-22T13:51:02.424Z</time></trkpt><trkpt lat="45.5908617" lon="10.9007333"><ele>446.33333333333337</ele><time>2026-03-22T13:51:03.424Z</time></trkpt><trkpt lat="45.5910233" lon="10.9005867"><ele>448.0</ele><time>2026-03-22T13:51:04.424Z</time></trkpt><trkpt lat="45.5911933" lon="10.9004467"><ele>448.0</ele><time>2026-03-22T13:51:05.425Z</time></trkpt><trkpt lat="45.59136" lon="10.9003117"><ele>448.0</ele><time>2026-03-22T13:51:06.424Z</time></trkpt><trkpt lat="45.591525" lon="10.9001783"><ele>448.0</ele><time>2026-03-22T13:51:07.424Z</time></trkpt><trkpt lat="45.591675" lon="10.90005"><ele>450.0</ele><time>2026-03-22T13:51:08.424Z</time></trkpt><trkpt lat="45.5918167" lon="10.8999183"><ele>452.0</ele><time>2026-03-22T13:51:09.424Z</time></trkpt><trkpt lat="45.59195" lon="10.89979"><ele>454.0</ele><time>2026-03-22T13:51:10.424Z</time></trkpt><trkpt lat="45.5920783" lon="10.89966"><ele>454.0</ele><time>2026-03-22T13:51:11.425Z</time></trkpt><trkpt lat="45.59221" lon="10.899535"><ele>454.0</ele><time>2026-03-22T13:51:12.424Z</time></trkpt><trkpt lat="45.5923383" lon="10.8994133"><ele>454.0</ele><time>2026-03-22T13:51:13.425Z</time></trkpt><trkpt lat="45.592465" lon="10.8993067"><ele>459.6666666666667</ele><time>2026-03-22T13:51:14.424Z</time></trkpt><trkpt lat="45.592605" lon="10.8992433"><ele>465.33333333333337</ele><time>2026-03-22T13:51:15.424Z</time></trkpt><trkpt lat="45.592755" lon="10.899225"><ele>471.0</ele><time>2026-03-22T13:51:16.425Z</time></trkpt><trkpt lat="45.592915" lon="10.8992283"><ele>472.0</ele><time>2026-03-22T13:51:17.425Z</time></trkpt><trkpt lat="45.5930867" lon="10.8992167"><ele>473.0</ele><time>2026-03-22T13:51:18.425Z</time></trkpt><trkpt lat="45.5932517" lon="10.8992067"><ele>474.0</ele><time>2026-03-22T13:51:19.425Z</time></trkpt><trkpt lat="45.5934083" lon="10.89922"><ele>474.0</ele><time>2026-03-22T13:51:20.424Z</time></trkpt><trkpt lat="45.59357" lon="10.899215"><ele>474.0</ele><time>2026-03-22T13:51:21.424Z</time></trkpt><trkpt lat="45.593735" lon="10.899175"><ele>474.0</ele><time>2026-03-22T13:51:22.424Z</time></trkpt><trkpt lat="45.593905" lon="10.8991017"><ele>474.0</ele><time>2026-03-22T13:51:23.424Z</time></trkpt><trkpt lat="45.594065" lon="10.8990067"><ele>474.0</ele><time>2026-03-22T13:51:24.425Z</time></trkpt><trkpt lat="45.5942167" lon="10.8988983"><ele>474.0</ele><time>2026-03-22T13:51:25.425Z</time></trkpt><trkpt lat="45.59437" lon="10.89876"><ele>471.33333333333337</ele><time>2026-03-22T13:51:26.424Z</time></trkpt><trkpt lat="45.594515" lon="10.898595"><ele>468.6666666666667</ele><time>2026-03-22T13:51:27.425Z</time></trkpt><trkpt lat="45.5946467" lon="10.8984417"><ele>466.0</ele><time>2026-03-22T13:51:28.424Z</time></trkpt><trkpt lat="45.594805" lon="10.8983183"><ele>475.6666666666667</ele><time>2026-03-22T13:51:29.424Z</time></trkpt><trkpt lat="45.5949733" lon="10.898205"><ele>485.33333333333337</ele><time>2026-03-22T13:51:30.424Z</time></trkpt><trkpt lat="45.5951417" lon="10.8981"><ele>495.0</ele><time>2026-03-22T13:51:31.425Z</time></trkpt><trkpt lat="45.5952817" lon="10.8979817"><ele>493.75</ele><time>2026-03-22T13:51:32.425Z</time></trkpt><trkpt lat="45.5954133" lon="10.8978883"><ele>492.5</ele><time>2026-03-22T13:51:33.424Z</time></trkpt><trkpt lat="45.5955467" lon="10.8978367"><ele>491.25</ele><time>2026-03-22T13:51:34.425Z</time></trkpt><trkpt lat="45.5956733" lon="10.8978367"><ele>490.0</ele><time>2026-03-22T13:51:35.425Z</time></trkpt><trkpt lat="45.5958283" lon="10.8978183"><ele>490.0</ele><time>2026-03-22T13:51:36.425Z</time></trkpt><trkpt lat="45.5959867" lon="10.8977733"><ele>490.0</ele><time>2026-03-22T13:51:37.425Z</time></trkpt><trkpt lat="45.5961333" lon="10.8976917"><ele>490.0</ele><time>2026-03-22T13:51:38.424Z</time></trkpt><trkpt lat="45.596285" lon="10.8975867"><ele>500.6666666666667</ele><time>2026-03-22T13:51:39.424Z</time></trkpt><trkpt lat="45.5964383" lon="10.8974883"><ele>511.33333333333337</ele><time>2026-03-22T13:51:40.424Z</time></trkpt><trkpt lat="45.596605" lon="10.897405"><ele>522.0</ele><time>2026-03-22T13:51:41.424Z</time></trkpt><trkpt lat="45.596775" lon="10.8973467"><ele>522.0</ele><time>2026-03-22T13:51:42.424Z</time></trkpt><trkpt lat="45.5969583" lon="10.8973217"><ele>522.0</ele><time>2026-03-22T13:51:43.425Z</time></trkpt><trkpt lat="45.5971433" lon="10.8972867"><ele>522.0</ele><time>2026-03-22T13:51:44.424Z</time></trkpt><trkpt lat="45.597335" lon="10.8972333"><ele>522.6666666666666</ele><time>2026-03-22T13:51:45.424Z</time></trkpt><trkpt lat="45.597525" lon="10.89718"><ele>523.3333333333333</ele><time>2026-03-22T13:51:46.425Z</time></trkpt><trkpt lat="45.5977167" lon="10.8971367"><ele>524.0</ele><time>2026-03-22T13:51:47.424Z</time></trkpt><trkpt lat="45.5979133" lon="10.8970983"><ele>525.6666666666666</ele><time>2026-03-22T13:51:48.425Z</time></trkpt><trkpt lat="45.5980867" lon="10.8970883"><ele>527.3333333333334</ele><time>2026-03-22T13:51:49.424Z</time></trkpt><trkpt lat="45.59825" lon="10.8970733"><ele>529.0</ele><time>2026-03-22T13:51:50.425Z</time></trkpt><trkpt lat="45.5984067" lon="10.8970067"><ele>529.0</ele><time>2026-03-22T13:51:51.425Z</time></trkpt><trkpt lat="45.5985517" lon="10.8968983"><ele>529.0</ele><time>2026-03-22T13:51:52.425Z</time></trkpt><trkpt lat="45.5987017" lon="10.8967617"><ele>529.0</ele><time>2026-03-22T13:51:53.424Z</time></trkpt><trkpt lat="45.5988533" lon="10.8966383"><ele>535.5</ele><time>2026-03-22T13:51:54.424Z</time></trkpt><trkpt lat="45.5989917" lon="10.8965133"><ele>542.0</ele><time>2026-03-22T13:51:55.424Z</time></trkpt><trkpt lat="45.5991083" lon="10.8963983"><ele>548.5</ele><time>2026-03-22T13:51:56.424Z</time></trkpt><trkpt lat="45.5992067" lon="10.8962983"><ele>555.0</ele><time>2026-03-22T13:51:57.425Z</time></trkpt><trkpt lat="45.5993017" lon="10.8962383"><ele>555.0</ele><time>2026-03-22T13:51:58.424Z</time></trkpt><trkpt lat="45.5993933" lon="10.89624"><ele>555.0</ele><time>2026-03-22T13:51:59.425Z</time></trkpt><trkpt lat="45.599475" lon="10.896295"><ele>555.0</ele><time>2026-03-22T13:52:00.424Z</time></trkpt><trkpt lat="45.5995517" lon="10.8964"><ele>555.0</ele><time>2026-03-22T13:52:01.424Z</time></trkpt><trkpt lat="45.5996067" lon="10.8965633"><ele>555.0</ele><time>2026-03-22T13:52:02.424Z</time></trkpt><trkpt lat="45.5996367" lon="10.896715"><ele>553.6</ele><time>2026-03-22T13:52:03.424Z</time></trkpt><trkpt lat="45.5996767" lon="10.8968217"><ele>552.2</ele><time>2026-03-22T13:52:04.425Z</time></trkpt><trkpt lat="45.5997383" lon="10.8968917"><ele>550.8</ele><time>2026-03-22T13:52:05.425Z</time></trkpt><trkpt lat="45.5998333" lon="10.8969317"><ele>549.4</ele><time>2026-03-22T13:52:06.425Z</time></trkpt><trkpt lat="45.5999767" lon="10.896935"><ele>548.0</ele><time>2026-03-22T13:52:07.425Z</time></trkpt><trkpt lat="45.600135" lon="10.8969283"><ele>548.0</ele><time>2026-03-22T13:52:08.425Z</time></trkpt><trkpt lat="45.6002967" lon="10.8969067"><ele>548.0</ele><time>2026-03-22T13:52:09.425Z</time></trkpt><trkpt lat="45.600475" lon="10.8968633"><ele>548.0</ele><time>2026-03-22T13:52:10.425Z</time></trkpt><trkpt lat="45.6006567" lon="10.8968117"><ele>548.75</ele><time>2026-03-22T13:52:11.424Z</time></trkpt><trkpt lat="45.6008183" lon="10.8967717"><ele>549.5</ele><time>2026-03-22T13:52:12.424Z</time></trkpt><trkpt lat="45.60096" lon="10.8967333"><ele>550.25</ele><time>2026-03-22T13:52:13.424Z</time></trkpt><trkpt lat="45.6010867" lon="10.8966767"><ele>551.0</ele><time>2026-03-22T13:52:14.424Z</time></trkpt><trkpt lat="45.6012017" lon="10.896595"><ele>556.25</ele><time>2026-03-22T13:52:15.425Z</time></trkpt><trkpt lat="45.6012983" lon="10.8964683"><ele>561.5</ele><time>2026-03-22T13:52:16.424Z</time></trkpt><trkpt lat="45.60138" lon="10.8963017"><ele>566.75</ele><time>2026-03-22T13:52:17.425Z</time></trkpt><trkpt lat="45.601445" lon="10.89616"><ele>572.0</ele><time>2026-03-22T13:52:18.425Z</time></trkpt><trkpt lat="45.6015167" lon="10.8960633"><ele>572.0</ele><time>2026-03-22T13:52:19.424Z</time></trkpt><trkpt lat="45.6016067" lon="10.896"><ele>572.0</ele><time>2026-03-22T13:52:20.424Z</time></trkpt><trkpt lat="45.6017083" lon="10.8959917"><ele>572.0</ele><time>2026-03-22T13:52:21.425Z</time></trkpt><trkpt lat="45.6018283" lon="10.8960183"><ele>572.0</ele><time>2026-03-22T13:52:22.424Z</time></trkpt><trkpt lat="45.6019583" lon="10.89607"><ele>575.75</ele><time>2026-03-22T13:52:23.425Z</time></trkpt><trkpt lat="45.6020783" lon="10.8961367"><ele>579.5</ele><time>2026-03-22T13:52:24.425Z</time></trkpt><trkpt lat="45.6021983" lon="10.89622"><ele>583.25</ele><time>2026-03-22T13:52:25.424Z</time></trkpt><trkpt lat="45.6023133" lon="10.8963233"><ele>587.0</ele><time>2026-03-22T13:52:26.425Z</time></trkpt><trkpt lat="45.602435" lon="10.8964433"><ele>587.0</ele><time>2026-03-22T13:52:27.424Z</time></trkpt><trkpt lat="45.6025517" lon="10.89656"><ele>587.0</ele><time>2026-03-22T13:52:28.425Z</time></trkpt><trkpt lat="45.60266" lon="10.8966633"><ele>587.0</ele><time>2026-03-22T13:52:29.425Z</time></trkpt><trkpt lat="45.6027533" lon="10.8967467"><ele>587.0</ele><time>2026-03-22T13:52:30.424Z</time></trkpt><trkpt lat="45.602825" lon="10.896825"><ele>587.6</ele><time>2026-03-22T13:52:31.424Z</time></trkpt><trkpt lat="45.6028683" lon="10.8969067"><ele>588.2</ele><time>2026-03-22T13:52:32.425Z</time></trkpt><trkpt lat="45.6028383" lon="10.897085"><ele>588.8</ele><time>2026-03-22T13:52:34.424Z</time></trkpt><trkpt lat="45.6027683" lon="10.89717"><ele>589.4</ele><time>2026-03-22T13:52:35.425Z</time></trkpt><trkpt lat="45.6026683" lon="10.8972517"><ele>590.0</ele><time>2026-03-22T13:52:36.425Z</time></trkpt><trkpt lat="45.60257" lon="10.897345"><ele>590.0</ele><time>2026-03-22T13:52:37.424Z</time></trkpt><trkpt lat="45.60249" lon="10.8974633"><ele>590.0</ele><time>2026-03-22T13:52:38.425Z</time></trkpt><trkpt lat="45.6024233" lon="10.89761"><ele>590.0</ele><time>2026-03-22T13:52:39.425Z</time></trkpt><trkpt lat="45.6023733" lon="10.897785"><ele>590.0</ele><time>2026-03-22T13:52:40.425Z</time></trkpt><trkpt lat="45.602335" lon="10.8979833"><ele>591.25</ele><time>2026-03-22T13:52:41.424Z</time></trkpt><trkpt lat="45.6022817" lon="10.89817"><ele>592.5</ele><time>2026-03-22T13:52:42.424Z</time></trkpt><trkpt lat="45.6022467" lon="10.898335"><ele>593.75</ele><time>2026-03-22T13:52:43.424Z</time></trkpt><trkpt lat="45.6022317" lon="10.8984817"><ele>595.0</ele><time>2026-03-22T13:52:44.425Z</time></trkpt><trkpt lat="45.60224" lon="10.8986167"><ele>592.6</ele><time>2026-03-22T13:52:45.424Z</time></trkpt><trkpt lat="45.60226" lon="10.8987433"><ele>590.2</ele><time>2026-03-22T13:52:46.424Z</time></trkpt><trkpt lat="45.602305" lon="10.8988583"><ele>587.8</ele><time>2026-03-22T13:52:47.424Z</time></trkpt><trkpt lat="45.602365" lon="10.8989567"><ele>585.4</ele><time>2026-03-22T13:52:48.425Z</time></trkpt><trkpt lat="45.6024383" lon="10.8990183"><ele>583.0</ele><time>2026-03-22T13:52:49.425Z</time></trkpt><trkpt lat="45.6025317" lon="10.8990567"><ele>583.0</ele><time>2026-03-22T13:52:50.424Z</time></trkpt><trkpt lat="45.6026483" lon="10.8990617"><ele>583.0</ele><time>2026-03-22T13:52:51.425Z</time></trkpt><trkpt lat="45.6027833" lon="10.8990533"><ele>583.0</ele><time>2026-03-22T13:52:52.425Z</time></trkpt><trkpt lat="45.6029317" lon="10.8990267"><ele>583.0</ele><time>2026-03-22T13:52:53.424Z</time></trkpt><trkpt lat="45.6030983" lon="10.899"><ele>581.6666666666667</ele><time>2026-03-22T13:52:54.425Z</time></trkpt><trkpt lat="45.60328" lon="10.8989733"><ele>580.3333333333334</ele><time>2026-03-22T13:52:55.425Z</time></trkpt><trkpt lat="45.60348" lon="10.8989533"><ele>579.0</ele><time>2026-03-22T13:52:56.425Z</time></trkpt><trkpt lat="45.603685" lon="10.8989333"><ele>577.3333333333334</ele><time>2026-03-22T13:52:57.425Z</time></trkpt><trkpt lat="45.6038833" lon="10.89893"><ele>575.6666666666667</ele><time>2026-03-22T13:52:58.425Z</time></trkpt><trkpt lat="45.6040467" lon="10.898925"><ele>574.0</ele><time>2026-03-22T13:52:59.425Z</time></trkpt><trkpt lat="45.6042067" lon="10.8989317"><ele>574.0</ele><time>2026-03-22T13:53:00.424Z</time></trkpt><trkpt lat="45.6043717" lon="10.8989133"><ele>574.0</ele><time>2026-03-22T13:53:01.424Z</time></trkpt><trkpt lat="45.6045433" lon="10.8988583"><ele>574.0</ele><time>2026-03-22T13:53:02.424Z</time></trkpt><trkpt lat="45.604725" lon="10.8987767"><ele>575.0</ele><time>2026-03-22T13:53:03.425Z</time></trkpt><trkpt lat="45.6049067" lon="10.8986933"><ele>576.0</ele><time>2026-03-22T13:53:04.425Z</time></trkpt><trkpt lat="45.6050817" lon="10.898625"><ele>577.0</ele><time>2026-03-22T13:53:05.424Z</time></trkpt><trkpt lat="45.605245" lon="10.8985717"><ele>584.25</ele><time>2026-03-22T13:53:06.425Z</time></trkpt><trkpt lat="45.6053983" lon="10.898525"><ele>591.5</ele><time>2026-03-22T13:53:07.424Z</time></trkpt><trkpt lat="45.605535" lon="10.89849"><ele>598.75</ele><time>2026-03-22T13:53:08.424Z</time></trkpt><trkpt lat="45.60564" lon="10.8984633"><ele>606.0</ele><time>2026-03-22T13:53:09.424Z</time></trkpt><trkpt lat="45.6057183" lon="10.8984667"><ele>606.0</ele><time>2026-03-22T13:53:10.424Z</time></trkpt><trkpt lat="45.605795" lon="10.8984883"><ele>606.0</ele><time>2026-03-22T13:53:11.424Z</time></trkpt><trkpt lat="45.6058517" lon="10.8985383"><ele>606.0</ele><time>2026-03-22T13:53:12.425Z</time></trkpt><trkpt lat="45.60583" lon="10.898655"><ele>606.0</ele><time>2026-03-22T13:53:13.424Z</time></trkpt><trkpt lat="45.605785" lon="10.898775"><ele>606.0</ele><time>2026-03-22T13:53:14.425Z</time></trkpt><trkpt lat="45.6056883" lon="10.898905"><ele>606.0</ele><time>2026-03-22T13:53:15.424Z</time></trkpt><trkpt lat="45.6055783" lon="10.89906"><ele>606.0</ele><time>2026-03-22T13:53:16.424Z</time></trkpt><trkpt lat="45.60547" lon="10.8992367"><ele>606.0</ele><time>2026-03-22T13:53:17.424Z</time></trkpt><trkpt lat="45.605385" lon="10.8994283"><ele>604.75</ele><time>2026-03-22T13:53:18.424Z</time></trkpt><trkpt lat="45.6053233" lon="10.8996117"><ele>603.5</ele><time>2026-03-22T13:53:19.424Z</time></trkpt><trkpt lat="45.6052717" lon="10.8997867"><ele>602.25</ele><time>2026-03-22T13:53:20.425Z</time></trkpt><trkpt lat="45.60525" lon="10.8999667"><ele>601.0</ele><time>2026-03-22T13:53:21.424Z</time></trkpt><trkpt lat="45.6052567" lon="10.9001667"><ele>601.0</ele><time>2026-03-22T13:53:22.424Z</time></trkpt><trkpt lat="45.6052717" lon="10.9003567"><ele>601.0</ele><time>2026-03-22T13:53:23.425Z</time></trkpt><trkpt lat="45.60529" lon="10.9005017"><ele>601.0</ele><time>2026-03-22T13:53:24.424Z</time></trkpt><trkpt lat="45.6052917" lon="10.9006267"><ele>601.0</ele><time>2026-03-22T13:53:25.424Z</time></trkpt><trkpt lat="45.60527" lon="10.9007217"><ele>601.0</ele><time>2026-03-22T13:53:26.424Z</time></trkpt><trkpt lat="45.60513" lon="10.900785"><ele>601.0</ele><time>2026-03-22T13:53:28.425Z</time></trkpt><trkpt lat="45.6050217" lon="10.90079"><ele>601.0</ele><time>2026-03-22T13:53:29.424Z</time></trkpt><trkpt lat="45.6048867" lon="10.9008083"><ele>601.0</ele><time>2026-03-22T13:53:30.425Z</time></trkpt><trkpt lat="45.6047367" lon="10.9008333"><ele>601.0</ele><time>2026-03-22T13:53:31.425Z</time></trkpt><trkpt lat="45.6045933" lon="10.9008717"><ele>603.75</ele><time>2026-03-22T13:53:32.425Z</time></trkpt><trkpt lat="45.6044633" lon="10.90093"><ele>606.5</ele><time>2026-03-22T13:53:33.424Z</time></trkpt><trkpt lat="45.6043383" lon="10.901015"><ele>609.25</ele><time>2026-03-22T13:53:34.424Z</time></trkpt><trkpt lat="45.604235" lon="10.9011417"><ele>612.0</ele><time>2026-03-22T13:53:35.424Z</time></trkpt><trkpt lat="45.604135" lon="10.90129"><ele>612.0</ele><time>2026-03-22T13:53:36.425Z</time></trkpt><trkpt lat="45.6040333" lon="10.90145"><ele>612.0</ele><time>2026-03-22T13:53:37.425Z</time></trkpt><trkpt lat="45.6039217" lon="10.9016"><ele>612.0</ele><time>2026-03-22T13:53:38.424Z</time></trkpt><trkpt lat="45.6038217" lon="10.90176"><ele>609.3333333333334</ele><time>2026-03-22T13:53:39.425Z</time></trkpt><trkpt lat="45.6037233" lon="10.901945"><ele>606.6666666666667</ele><time>2026-03-22T13:53:40.425Z</time></trkpt><trkpt lat="45.6036317" lon="10.9021617"><ele>604.0</ele><time>2026-03-22T13:53:41.424Z</time></trkpt><trkpt lat="45.6035483" lon="10.9023983"><ele>609.6666666666667</ele><time>2026-03-22T13:53:42.425Z</time></trkpt><trkpt lat="45.6034583" lon="10.9026433"><ele>615.3333333333334</ele><time>2026-03-22T13:53:43.425Z</time></trkpt><trkpt lat="45.6033617" lon="10.9028833"><ele>621.0</ele><time>2026-03-22T13:53:44.424Z</time></trkpt><trkpt lat="45.6032617" lon="10.903115"><ele>621.0</ele><time>2026-03-22T13:53:45.425Z</time></trkpt><trkpt lat="45.603175" lon="10.9033333"><ele>621.0</ele><time>2026-03-22T13:53:46.424Z</time></trkpt><trkpt lat="45.6030933" lon="10.9035317"><ele>621.0</ele><time>2026-03-22T13:53:47.424Z</time></trkpt><trkpt lat="45.603025" lon="10.90371"><ele>624.25</ele><time>2026-03-22T13:53:48.424Z</time></trkpt><trkpt lat="45.60297" lon="10.903885"><ele>627.5</ele><time>2026-03-22T13:53:49.425Z</time></trkpt><trkpt lat="45.6029417" lon="10.9040317"><ele>630.75</ele><time>2026-03-22T13:53:50.425Z</time></trkpt><trkpt lat="45.6029367" lon="10.9041983"><ele>634.0</ele><time>2026-03-22T13:53:51.425Z</time></trkpt><trkpt lat="45.6029583" lon="10.9043683"><ele>634.0</ele><time>2026-03-22T13:53:52.425Z</time></trkpt><trkpt lat="45.6029867" lon="10.9045583"><ele>634.0</ele><time>2026-03-22T13:53:53.425Z</time></trkpt><trkpt lat="45.603035" lon="10.9047617"><ele>634.0</ele><time>2026-03-22T13:53:54.425Z</time></trkpt><trkpt lat="45.60309" lon="10.90498"><ele>634.0</ele><time>2026-03-22T13:53:55.425Z</time></trkpt><trkpt lat="45.60315" lon="10.9051933"><ele>632.0</ele><time>2026-03-22T13:53:56.425Z</time></trkpt><trkpt lat="45.6032067" lon="10.9053833"><ele>630.0</ele><time>2026-03-22T13:53:57.425Z</time></trkpt><trkpt lat="45.603265" lon="10.905555"><ele>628.0</ele><time>2026-03-22T13:53:58.425Z</time></trkpt><trkpt lat="45.603335" lon="10.9056933"><ele>626.0</ele><time>2026-03-22T13:53:59.424Z</time></trkpt><trkpt lat="45.6034233" lon="10.905795"><ele>626.0</ele><time>2026-03-22T13:54:00.425Z</time></trkpt><trkpt lat="45.6035367" lon="10.9058667"><ele>626.0</ele><time>2026-03-22T13:54:01.424Z</time></trkpt><trkpt lat="45.60367" lon="10.9059117"><ele>626.0</ele><time>2026-03-22T13:54:02.425Z</time></trkpt><trkpt lat="45.6038233" lon="10.90593"><ele>626.0</ele><time>2026-03-22T13:54:03.424Z</time></trkpt><trkpt lat="45.603985" lon="10.9059283"><ele>628.3333333333333</ele><time>2026-03-22T13:54:04.424Z</time></trkpt><trkpt lat="45.6041517" lon="10.9059083"><ele>630.6666666666666</ele><time>2026-03-22T13:54:05.424Z</time></trkpt><trkpt lat="45.6043317" lon="10.905885"><ele>633.0</ele><time>2026-03-22T13:54:06.424Z</time></trkpt><trkpt lat="45.604515" lon="10.905865"><ele>635.3333333333334</ele><time>2026-03-22T13:54:07.425Z</time></trkpt><trkpt lat="45.6046983" lon="10.905845"><ele>637.6666666666667</ele><time>2026-03-22T13:54:08.425Z</time></trkpt><trkpt lat="45.6048717" lon="10.9058283"><ele>640.0</ele><time>2026-03-22T13:54:09.424Z</time></trkpt><trkpt lat="45.6050367" lon="10.9058183"><ele>640.0</ele><time>2026-03-22T13:54:10.424Z</time></trkpt><trkpt lat="45.60519" lon="10.9058017"><ele>640.0</ele><time>2026-03-22T13:54:11.424Z</time></trkpt><trkpt lat="45.60533" lon="10.9057967"><ele>640.0</ele><time>2026-03-22T13:54:12.425Z</time></trkpt><trkpt lat="45.6054667" lon="10.9058017"><ele>640.0</ele><time>2026-03-22T13:54:13.424Z</time></trkpt><trkpt lat="45.605595" lon="10.9058233"><ele>640.8</ele><time>2026-03-22T13:54:14.425Z</time></trkpt><trkpt lat="45.6057" lon="10.9058683"><ele>641.6</ele><time>2026-03-22T13:54:15.424Z</time></trkpt><trkpt lat="45.605775" lon="10.9059567"><ele>642.4000000000001</ele><time>2026-03-22T13:54:16.424Z</time></trkpt><trkpt lat="45.6058433" lon="10.9060833"><ele>643.2</ele><time>2026-03-22T13:54:17.425Z</time></trkpt><trkpt lat="45.6058983" lon="10.9062167"><ele>644.0</ele><time>2026-03-22T13:54:18.425Z</time></trkpt><trkpt lat="45.6059367" lon="10.9063417"><ele>644.0</ele><time>2026-03-22T13:54:19.424Z</time></trkpt><trkpt lat="45.6059383" lon="10.9064767"><ele>644.0</ele><time>2026-03-22T13:54:20.425Z</time></trkpt><trkpt lat="45.6059217" lon="10.9066517"><ele>644.0</ele><time>2026-03-22T13:54:21.424Z</time></trkpt><trkpt lat="45.6059067" lon="10.90683"><ele>644.0</ele><time>2026-03-22T13:54:22.425Z</time></trkpt><trkpt lat="45.605905" lon="10.907005"><ele>642.5</ele><time>2026-03-22T13:54:23.424Z</time></trkpt><trkpt lat="45.6059233" lon="10.90719"><ele>641.0</ele><time>2026-03-22T13:54:24.424Z</time></trkpt><trkpt lat="45.6059717" lon="10.907375"><ele>639.5</ele><time>2026-03-22T13:54:25.425Z</time></trkpt><trkpt lat="45.606035" lon="10.907555"><ele>638.0</ele><time>2026-03-22T13:54:26.424Z</time></trkpt><trkpt lat="45.606095" lon="10.9077217"><ele>638.0</ele><time>2026-03-22T13:54:27.425Z</time></trkpt><trkpt lat="45.6061317" lon="10.9078783"><ele>638.0</ele><time>2026-03-22T13:54:28.424Z</time></trkpt><trkpt lat="45.60614" lon="10.90805"><ele>638.0</ele><time>2026-03-22T13:54:29.424Z</time></trkpt><trkpt lat="45.6061217" lon="10.9082233"><ele>638.0</ele><time>2026-03-22T13:54:30.424Z</time></trkpt><trkpt lat="45.6060683" lon="10.9084067"><ele>641.0</ele><time>2026-03-22T13:54:31.425Z</time></trkpt><trkpt lat="45.60599" lon="10.9085833"><ele>644.0</ele><time>2026-03-22T13:54:32.425Z</time></trkpt><trkpt lat="45.6058933" lon="10.9087317"><ele>647.0</ele><time>2026-03-22T13:54:33.425Z</time></trkpt><trkpt lat="45.60581" lon="10.9088483"><ele>650.0</ele><time>2026-03-22T13:54:34.424Z</time></trkpt><trkpt lat="45.6057483" lon="10.9089467"><ele>650.0</ele><time>2026-03-22T13:54:35.424Z</time></trkpt><trkpt lat="45.6057" lon="10.9090383"><ele>650.0</ele><time>2026-03-22T13:54:36.425Z</time></trkpt><trkpt lat="45.6056583" lon="10.9091317"><ele>650.0</ele><time>2026-03-22T13:54:37.424Z</time></trkpt><trkpt lat="45.605625" lon="10.909225"><ele>650.0</ele><time>2026-03-22T13:54:38.424Z</time></trkpt><trkpt lat="45.6056067" lon="10.9093817"><ele>650.0</ele><time>2026-03-22T13:54:40.424Z</time></trkpt><trkpt lat="45.605635" lon="10.909565"><ele>649.5</ele><time>2026-03-22T13:54:42.425Z</time></trkpt><trkpt lat="45.6056567" lon="10.9096683"><ele>649.0</ele><time>2026-03-22T13:54:43.425Z</time></trkpt><trkpt lat="45.60569" lon="10.9097717"><ele>648.5</ele><time>2026-03-22T13:54:44.425Z</time></trkpt><trkpt lat="45.605725" lon="10.909875"><ele>648.0</ele><time>2026-03-22T13:54:45.425Z</time></trkpt><trkpt lat="45.6057733" lon="10.9099833"><ele>647.5</ele><time>2026-03-22T13:54:46.424Z</time></trkpt><trkpt lat="45.60583" lon="10.9100817"><ele>647.0</ele><time>2026-03-22T13:54:47.424Z</time></trkpt><trkpt lat="45.6058933" lon="10.9101633"><ele>646.0</ele><time>2026-03-22T13:54:48.425Z</time></trkpt><trkpt lat="45.6059617" lon="10.9102433"><ele>645.0</ele><time>2026-03-22T13:54:49.425Z</time></trkpt><trkpt lat="45.606035" lon="10.9103167"><ele>644.0</ele><time>2026-03-22T13:54:50.424Z</time></trkpt><trkpt lat="45.6061167" lon="10.91039"><ele>643.0</ele><time>2026-03-22T13:54:51.424Z</time></trkpt><trkpt lat="45.6062183" lon="10.9104733"><ele>642.0</ele><time>2026-03-22T13:54:52.425Z</time></trkpt><trkpt lat="45.6063567" lon="10.91057"><ele>642.0</ele><time>2026-03-22T13:54:53.424Z</time></trkpt><trkpt lat="45.6065083" lon="10.910685"><ele>642.0</ele><time>2026-03-22T13:54:54.425Z</time></trkpt><trkpt lat="45.6066783" lon="10.91081"><ele>642.0</ele><time>2026-03-22T13:54:55.424Z</time></trkpt><trkpt lat="45.606855" lon="10.9109317"><ele>637.0</ele><time>2026-03-22T13:54:56.424Z</time></trkpt><trkpt lat="45.60702" lon="10.911045"><ele>632.0</ele><time>2026-03-22T13:54:57.425Z</time></trkpt><trkpt lat="45.6071633" lon="10.9111483"><ele>627.0</ele><time>2026-03-22T13:54:58.424Z</time></trkpt><trkpt lat="45.6072933" lon="10.9112367"><ele>627.0</ele><time>2026-03-22T13:54:59.425Z</time></trkpt><trkpt lat="45.6074083" lon="10.9113133"><ele>627.0</ele><time>2026-03-22T13:55:00.425Z</time></trkpt><trkpt lat="45.6075217" lon="10.9113833"><ele>627.0</ele><time>2026-03-22T13:55:01.425Z</time></trkpt><trkpt lat="45.607625" lon="10.9114467"><ele>627.0</ele><time>2026-03-22T13:55:02.424Z</time></trkpt><trkpt lat="45.6077233" lon="10.9115083"><ele>627.0</ele><time>2026-03-22T13:55:03.424Z</time></trkpt><trkpt lat="45.6078217" lon="10.911555"><ele>627.0</ele><time>2026-03-22T13:55:04.424Z</time></trkpt><trkpt lat="45.6079067" lon="10.9115917"><ele>627.0</ele><time>2026-03-22T13:55:05.425Z</time></trkpt><trkpt lat="45.6079917" lon="10.9116067"><ele>627.0</ele><time>2026-03-22T13:55:06.424Z</time></trkpt><trkpt lat="45.6080667" lon="10.91159"><ele>627.0</ele><time>2026-03-22T13:55:07.425Z</time></trkpt><trkpt lat="45.6081467" lon="10.91155"><ele>627.0</ele><time>2026-03-22T13:55:08.425Z</time></trkpt><trkpt lat="45.6082433" lon="10.9114683"><ele>624.3333333333334</ele><time>2026-03-22T13:55:09.424Z</time></trkpt><trkpt lat="45.608365" lon="10.911345"><ele>621.6666666666667</ele><time>2026-03-22T13:55:10.425Z</time></trkpt><trkpt lat="45.6085017" lon="10.9112183"><ele>619.0</ele><time>2026-03-22T13:55:11.424Z</time></trkpt><trkpt lat="45.6086417" lon="10.9110933"><ele>618.6666666666667</ele><time>2026-03-22T13:55:12.424Z</time></trkpt><trkpt lat="45.608785" lon="10.9109833"><ele>618.3333333333334</ele><time>2026-03-22T13:55:13.425Z</time></trkpt><trkpt lat="45.6089433" lon="10.9109117"><ele>618.0</ele><time>2026-03-22T13:55:14.424Z</time></trkpt><trkpt lat="45.6091067" lon="10.9108583"><ele>618.0</ele><time>2026-03-22T13:55:15.425Z</time></trkpt><trkpt lat="45.60927" lon="10.9108083"><ele>618.0</ele><time>2026-03-22T13:55:16.424Z</time></trkpt><trkpt lat="45.609445" lon="10.910765"><ele>618.0</ele><time>2026-03-22T13:55:17.424Z</time></trkpt><trkpt lat="45.6096167" lon="10.9107267"><ele>611.3333333333334</ele><time>2026-03-22T13:55:18.425Z</time></trkpt><trkpt lat="45.60978" lon="10.9106967"><ele>604.6666666666667</ele><time>2026-03-22T13:55:19.424Z</time></trkpt><trkpt lat="45.60994" lon="10.9106667"><ele>598.0</ele><time>2026-03-22T13:55:20.424Z</time></trkpt><trkpt lat="45.6100817" lon="10.9106367"><ele>598.0</ele><time>2026-03-22T13:55:21.425Z</time></trkpt><trkpt lat="45.6102017" lon="10.9105967"><ele>598.0</ele><time>2026-03-22T13:55:22.424Z</time></trkpt><trkpt lat="45.6103" lon="10.9105517"><ele>598.0</ele><time>2026-03-22T13:55:23.424Z</time></trkpt><trkpt lat="45.6103917" lon="10.9104967"><ele>598.0</ele><time>2026-03-22T13:55:24.425Z</time></trkpt><trkpt lat="45.6104717" lon="10.9104283"><ele>598.0</ele><time>2026-03-22T13:55:25.424Z</time></trkpt><trkpt lat="45.6105433" lon="10.9103383"><ele>597.0</ele><time>2026-03-22T13:55:26.425Z</time></trkpt><trkpt lat="45.6106183" lon="10.9102367"><ele>596.0</ele><time>2026-03-22T13:55:27.424Z</time></trkpt><trkpt lat="45.6106917" lon="10.91014"><ele>595.0</ele><time>2026-03-22T13:55:28.424Z</time></trkpt><trkpt lat="45.61077" lon="10.910065"><ele>594.0</ele><time>2026-03-22T13:55:29.424Z</time></trkpt><trkpt lat="45.610845" lon="10.910015"><ele>593.0</ele><time>2026-03-22T13:55:30.425Z</time></trkpt><trkpt lat="45.6109233" lon="10.90999"><ele>593.0</ele><time>2026-03-22T13:55:31.425Z</time></trkpt><trkpt lat="45.61101" lon="10.9100467"><ele>593.0</ele><time>2026-03-22T13:55:32.424Z</time></trkpt><trkpt lat="45.611105" lon="10.910105"><ele>593.0</ele><time>2026-03-22T13:55:33.424Z</time></trkpt><trkpt lat="45.611205" lon="10.910145"><ele>593.0</ele><time>2026-03-22T13:55:34.425Z</time></trkpt><trkpt lat="45.6113083" lon="10.9101617"><ele>593.0</ele><time>2026-03-22T13:55:35.424Z</time></trkpt><trkpt lat="45.6114017" lon="10.9101567"><ele>594.0</ele><time>2026-03-22T13:55:36.424Z</time></trkpt><trkpt lat="45.6114967" lon="10.9101417"><ele>595.0</ele><time>2026-03-22T13:55:37.425Z</time></trkpt><trkpt lat="45.6115867" lon="10.9101"><ele>596.0</ele><time>2026-03-22T13:55:38.425Z</time></trkpt><trkpt lat="45.6116683" lon="10.91002"><ele>597.0</ele><time>2026-03-22T13:55:39.425Z</time></trkpt><trkpt lat="45.611745" lon="10.90992"><ele>598.0</ele><time>2026-03-22T13:55:40.424Z</time></trkpt><trkpt lat="45.61181" lon="10.9098133"><ele>597.0</ele><time>2026-03-22T13:55:41.424Z</time></trkpt><trkpt lat="45.6118783" lon="10.9096933"><ele>596.0</ele><time>2026-03-22T13:55:42.424Z</time></trkpt><trkpt lat="45.6119367" lon="10.90957"><ele>595.0</ele><time>2026-03-22T13:55:43.424Z</time></trkpt><trkpt lat="45.6119883" lon="10.9094383"><ele>594.0</ele><time>2026-03-22T13:55:44.424Z</time></trkpt><trkpt lat="45.6120383" lon="10.9092983"><ele>593.0</ele><time>2026-03-22T13:55:45.424Z</time></trkpt><trkpt lat="45.61209" lon="10.9091617"><ele>595.1999999999999</ele><time>2026-03-22T13:55:46.425Z</time></trkpt><trkpt lat="45.6121417" lon="10.90902"><ele>597.4</ele><time>2026-03-22T13:55:47.424Z</time></trkpt><trkpt lat="45.612195" lon="10.9088833"><ele>599.5999999999999</ele><time>2026-03-22T13:55:48.425Z</time></trkpt><trkpt lat="45.6122583" lon="10.908755"><ele>601.8</ele><time>2026-03-22T13:55:49.424Z</time></trkpt><trkpt lat="45.61232" lon="10.9086133"><ele>604.0</ele><time>2026-03-22T13:55:50.425Z</time></trkpt><trkpt lat="45.61238" lon="10.908485"><ele>608.25</ele><time>2026-03-22T13:55:51.425Z</time></trkpt><trkpt lat="45.61243" lon="10.9083533"><ele>612.5</ele><time>2026-03-22T13:55:52.424Z</time></trkpt><trkpt lat="45.6124967" lon="10.90823"><ele>616.75</ele><time>2026-03-22T13:55:53.425Z</time></trkpt><trkpt lat="45.6125883" lon="10.9081283"><ele>621.0</ele><time>2026-03-22T13:55:54.424Z</time></trkpt><trkpt lat="45.6127" lon="10.9080533"><ele>619.5</ele><time>2026-03-22T13:55:55.424Z</time></trkpt><trkpt lat="45.6128267" lon="10.9079733"><ele>618.0</ele><time>2026-03-22T13:55:56.425Z</time></trkpt><trkpt lat="45.61295" lon="10.9079"><ele>616.5</ele><time>2026-03-22T13:55:57.424Z</time></trkpt><trkpt lat="45.6130733" lon="10.9078467"><ele>615.0</ele><time>2026-03-22T13:55:58.425Z</time></trkpt><trkpt lat="45.6132067" lon="10.90781"><ele>615.0</ele><time>2026-03-22T13:55:59.424Z</time></trkpt><trkpt lat="45.6133283" lon="10.9077783"><ele>615.0</ele><time>2026-03-22T13:56:00.424Z</time></trkpt><trkpt lat="45.6134683" lon="10.9077683"><ele>615.0</ele><time>2026-03-22T13:56:01.425Z</time></trkpt><trkpt lat="45.6136067" lon="10.90776"><ele>615.0</ele><time>2026-03-22T13:56:02.424Z</time></trkpt><trkpt lat="45.6137367" lon="10.9077367"><ele>615.75</ele><time>2026-03-22T13:56:03.424Z</time></trkpt><trkpt lat="45.613865" lon="10.9076883"><ele>616.5</ele><time>2026-03-22T13:56:04.424Z</time></trkpt><trkpt lat="45.613985" lon="10.9075983"><ele>617.25</ele><time>2026-03-22T13:56:05.425Z</time></trkpt><trkpt lat="45.614105" lon="10.907475"><ele>618.0</ele><time>2026-03-22T13:56:06.424Z</time></trkpt><trkpt lat="45.6142183" lon="10.9073217"><ele>620.8</ele><time>2026-03-22T13:56:07.424Z</time></trkpt><trkpt lat="45.6143117" lon="10.9071767"><ele>623.5999999999999</ele><time>2026-03-22T13:56:08.425Z</time></trkpt><trkpt lat="45.6143933" lon="10.907045"><ele>626.4000000000001</ele><time>2026-03-22T13:56:09.424Z</time></trkpt><trkpt lat="45.614465" lon="10.9069467"><ele>629.2</ele><time>2026-03-22T13:56:10.424Z</time></trkpt><trkpt lat="45.6145333" lon="10.90688"><ele>632.0</ele><time>2026-03-22T13:56:11.425Z</time></trkpt><trkpt lat="45.6146083" lon="10.90685"><ele>634.2</ele><time>2026-03-22T13:56:12.424Z</time></trkpt><trkpt lat="45.6146767" lon="10.9068583"><ele>636.4000000000001</ele><time>2026-03-22T13:56:13.424Z</time></trkpt><trkpt lat="45.6147433" lon="10.906915"><ele>638.5999999999999</ele><time>2026-03-22T13:56:14.425Z</time></trkpt><trkpt lat="45.6147967" lon="10.9070517"><ele>640.8</ele><time>2026-03-22T13:56:15.425Z</time></trkpt><trkpt lat="45.614855" lon="10.9072033"><ele>643.0</ele><time>2026-03-22T13:56:16.425Z</time></trkpt><trkpt lat="45.614905" lon="10.907345"><ele>643.0</ele><time>2026-03-22T13:56:17.425Z</time></trkpt><trkpt lat="45.61493" lon="10.9075017"><ele>643.0</ele><time>2026-03-22T13:56:18.424Z</time></trkpt><trkpt lat="45.6149367" lon="10.9076483"><ele>643.0</ele><time>2026-03-22T13:56:19.425Z</time></trkpt><trkpt lat="45.6149333" lon="10.9077717"><ele>643.0</ele><time>2026-03-22T13:56:20.425Z</time></trkpt><trkpt lat="45.6149583" lon="10.907855"><ele>643.0</ele><time>2026-03-22T13:56:21.425Z</time></trkpt><trkpt lat="45.6150333" lon="10.90787"><ele>643.0</ele><time>2026-03-22T13:56:23.424Z</time></trkpt><trkpt lat="45.6150883" lon="10.9077383"><ele>643.0</ele><time>2026-03-22T13:56:25.425Z</time></trkpt><trkpt lat="45.615095" lon="10.9076133"><ele>643.0</ele><time>2026-03-22T13:56:26.424Z</time></trkpt><trkpt lat="45.6150933" lon="10.9074733"><ele>643.0</ele><time>2026-03-22T13:56:27.424Z</time></trkpt><trkpt lat="45.615085" lon="10.9073483"><ele>643.0</ele><time>2026-03-22T13:56:28.425Z</time></trkpt><trkpt lat="45.6150733" lon="10.9072183"><ele>643.0</ele><time>2026-03-22T13:56:29.425Z</time></trkpt><trkpt lat="45.615045" lon="10.9071067"><ele>643.0</ele><time>2026-03-22T13:56:30.424Z</time></trkpt><trkpt lat="45.615045" lon="10.90696"><ele>643.0</ele><time>2026-03-22T13:56:32.424Z</time></trkpt><trkpt lat="45.6151167" lon="10.9069433"><ele>643.0</ele><time>2026-03-22T13:56:34.424Z</time></trkpt><trkpt lat="45.6151483" lon="10.9070383"><ele>643.0</ele><time>2026-03-22T13:56:35.424Z</time></trkpt><trkpt lat="45.6151767" lon="10.9071533"><ele>643.0</ele><time>2026-03-22T13:56:36.424Z</time></trkpt><trkpt lat="45.6152067" lon="10.9072783"><ele>643.0</ele><time>2026-03-22T13:56:37.424Z</time></trkpt><trkpt lat="45.615245" lon="10.9073967"><ele>643.0</ele><time>2026-03-22T13:56:38.425Z</time></trkpt><trkpt lat="45.6152867" lon="10.9075"><ele>647.0</ele><time>2026-03-22T13:56:39.425Z</time></trkpt><trkpt lat="45.6153417" lon="10.9075833"><ele>651.0</ele><time>2026-03-22T13:56:40.424Z</time></trkpt><trkpt lat="45.615415" lon="10.9076283"><ele>655.0</ele><time>2026-03-22T13:56:41.424Z</time></trkpt><trkpt lat="45.6155117" lon="10.9076367"><ele>659.0</ele><time>2026-03-22T13:56:42.424Z</time></trkpt><trkpt lat="45.6156267" lon="10.9076267"><ele>663.0</ele><time>2026-03-22T13:56:43.425Z</time></trkpt><trkpt lat="45.6157517" lon="10.9076017"><ele>663.0</ele><time>2026-03-22T13:56:44.425Z</time></trkpt><trkpt lat="45.61588" lon="10.9075783"><ele>663.0</ele><time>2026-03-22T13:56:45.425Z</time></trkpt><trkpt lat="45.6160067" lon="10.9075483"><ele>663.0</ele><time>2026-03-22T13:56:46.424Z</time></trkpt><trkpt lat="45.6161183" lon="10.9075217"><ele>663.0</ele><time>2026-03-22T13:56:47.424Z</time></trkpt><trkpt lat="45.6162183" lon="10.907525"><ele>667.4</ele><time>2026-03-22T13:56:48.425Z</time></trkpt><trkpt lat="45.6163" lon="10.9075633"><ele>671.8</ele><time>2026-03-22T13:56:49.424Z</time></trkpt><trkpt lat="45.616375" lon="10.9076733"><ele>676.2</ele><time>2026-03-22T13:56:51.425Z</time></trkpt><trkpt lat="45.6163417" lon="10.907765"><ele>680.6</ele><time>2026-03-22T13:56:52.425Z</time></trkpt><trkpt lat="45.6162967" lon="10.9078783"><ele>685.0</ele><time>2026-03-22T13:56:53.425Z</time></trkpt><trkpt lat="45.6162633" lon="10.9080067"><ele>685.0</ele><time>2026-03-22T13:56:54.425Z</time></trkpt><trkpt lat="45.6162433" lon="10.9081517"><ele>685.0</ele><time>2026-03-22T13:56:55.424Z</time></trkpt><trkpt lat="45.6162517" lon="10.90832"><ele>685.0</ele><time>2026-03-22T13:56:56.425Z</time></trkpt><trkpt lat="45.616275" lon="10.908485"><ele>685.0</ele><time>2026-03-22T13:56:57.425Z</time></trkpt><trkpt lat="45.6163133" lon="10.90866"><ele>686.0</ele><time>2026-03-22T13:56:58.424Z</time></trkpt><trkpt lat="45.6163533" lon="10.9088433"><ele>687.0</ele><time>2026-03-22T13:56:59.424Z</time></trkpt><trkpt lat="45.61637" lon="10.9090233"><ele>688.0</ele><time>2026-03-22T13:57:00.424Z</time></trkpt><trkpt lat="45.6163633" lon="10.9092067"><ele>689.0</ele><time>2026-03-22T13:57:01.425Z</time></trkpt><trkpt lat="45.61634" lon="10.9093683"><ele>689.6</ele><time>2026-03-22T13:57:02.424Z</time></trkpt><trkpt lat="45.6163183" lon="10.9095233"><ele>690.2</ele><time>2026-03-22T13:57:03.424Z</time></trkpt><trkpt lat="45.6163033" lon="10.9096667"><ele>690.8000000000001</ele><time>2026-03-22T13:57:04.425Z</time></trkpt><trkpt lat="45.6162983" lon="10.909815"><ele>691.4000000000001</ele><time>2026-03-22T13:57:05.425Z</time></trkpt><trkpt lat="45.6163133" lon="10.9099683"><ele>692.0</ele><time>2026-03-22T13:57:06.425Z</time></trkpt><trkpt lat="45.6163567" lon="10.9101217"><ele>690.25</ele><time>2026-03-22T13:57:07.425Z</time></trkpt><trkpt lat="45.61642" lon="10.9102817"><ele>688.5</ele><time>2026-03-22T13:57:08.424Z</time></trkpt><trkpt lat="45.61649" lon="10.9104467"><ele>686.75</ele><time>2026-03-22T13:57:09.424Z</time></trkpt><trkpt lat="45.6165567" lon="10.9106067"><ele>685.0</ele><time>2026-03-22T13:57:10.425Z</time></trkpt><trkpt lat="45.6166183" lon="10.910755"><ele>685.0</ele><time>2026-03-22T13:57:11.425Z</time></trkpt><trkpt lat="45.616695" lon="10.9108833"><ele>685.0</ele><time>2026-03-22T13:57:12.425Z</time></trkpt><trkpt lat="45.61679" lon="10.9109983"><ele>685.0</ele><time>2026-03-22T13:57:13.424Z</time></trkpt><trkpt lat="45.6169017" lon="10.9110917"><ele>685.0</ele><time>2026-03-22T13:57:14.424Z</time></trkpt><trkpt lat="45.6170233" lon="10.9111617"><ele>686.25</ele><time>2026-03-22T13:57:15.425Z</time></trkpt><trkpt lat="45.6171533" lon="10.9112"><ele>687.5</ele><time>2026-03-22T13:57:16.424Z</time></trkpt><trkpt lat="45.6173" lon="10.9111917"><ele>688.75</ele><time>2026-03-22T13:57:17.424Z</time></trkpt><trkpt lat="45.6174583" lon="10.9111483"><ele>690.0</ele><time>2026-03-22T13:57:18.424Z</time></trkpt><trkpt lat="45.6176117" lon="10.91109"><ele>690.0</ele><time>2026-03-22T13:57:19.425Z</time></trkpt><trkpt lat="45.6177733" lon="10.91104"><ele>690.0</ele><time>2026-03-22T13:57:20.424Z</time></trkpt><trkpt lat="45.6179333" lon="10.9109933"><ele>690.0</ele><time>2026-03-22T13:57:21.424Z</time></trkpt><trkpt lat="45.618105" lon="10.910905"><ele>696.6666666666666</ele><time>2026-03-22T13:57:22.425Z</time></trkpt><trkpt lat="45.6182717" lon="10.91083"><ele>703.3333333333333</ele><time>2026-03-22T13:57:23.424Z</time></trkpt><trkpt lat="45.6184683" lon="10.9107733"><ele>710.0</ele><time>2026-03-22T13:57:24.425Z</time></trkpt><trkpt lat="45.6186533" lon="10.91074"><ele>712.0</ele><time>2026-03-22T13:57:25.424Z</time></trkpt><trkpt lat="45.61882" lon="10.9106867"><ele>714.0</ele><time>2026-03-22T13:57:26.424Z</time></trkpt><trkpt lat="45.6189567" lon="10.9106117"><ele>716.0</ele><time>2026-03-22T13:57:27.425Z</time></trkpt><trkpt lat="45.61908" lon="10.9105517"><ele>718.0</ele><time>2026-03-22T13:57:28.425Z</time></trkpt><trkpt lat="45.6191917" lon="10.9105167"><ele>718.0</ele><time>2026-03-22T13:57:29.425Z</time></trkpt><trkpt lat="45.6192883" lon="10.9105333"><ele>718.0</ele><time>2026-03-22T13:57:30.425Z</time></trkpt><trkpt lat="45.6193717" lon="10.9105933"><ele>718.0</ele><time>2026-03-22T13:57:31.424Z</time></trkpt><trkpt lat="45.6194317" lon="10.9107"><ele>718.0</ele><time>2026-03-22T13:57:32.424Z</time></trkpt><trkpt lat="45.61948" lon="10.910825"><ele>718.0</ele><time>2026-03-22T13:57:33.425Z</time></trkpt><trkpt lat="45.6195433" lon="10.9109433"><ele>720.5</ele><time>2026-03-22T13:57:34.424Z</time></trkpt><trkpt lat="45.6196117" lon="10.911055"><ele>723.0</ele><time>2026-03-22T13:57:35.424Z</time></trkpt><trkpt lat="45.61972" lon="10.91112"><ele>725.5</ele><time>2026-03-22T13:57:36.425Z</time></trkpt><trkpt lat="45.6198433" lon="10.91115"><ele>728.0</ele><time>2026-03-22T13:57:37.424Z</time></trkpt><trkpt lat="45.6199817" lon="10.91115"><ele>728.0</ele><time>2026-03-22T13:57:38.424Z</time></trkpt><trkpt lat="45.6201133" lon="10.9111317"><ele>728.0</ele><time>2026-03-22T13:57:39.425Z</time></trkpt><trkpt lat="45.6202333" lon="10.9111117"><ele>728.0</ele><time>2026-03-22T13:57:40.425Z</time></trkpt><trkpt lat="45.6203367" lon="10.911115"><ele>728.0</ele><time>2026-03-22T13:57:41.425Z</time></trkpt><trkpt lat="45.6204217" lon="10.9111533"><ele>728.0</ele><time>2026-03-22T13:57:42.425Z</time></trkpt><trkpt lat="45.620495" lon="10.91123"><ele>731.25</ele><time>2026-03-22T13:57:43.425Z</time></trkpt><trkpt lat="45.6205633" lon="10.9113433"><ele>734.5</ele><time>2026-03-22T13:57:44.424Z</time></trkpt><trkpt lat="45.620625" lon="10.9114817"><ele>737.75</ele><time>2026-03-22T13:57:45.424Z</time></trkpt><trkpt lat="45.6206733" lon="10.9116333"><ele>741.0</ele><time>2026-03-22T13:57:46.424Z</time></trkpt><trkpt lat="45.6207083" lon="10.9118017"><ele>741.5999999999999</ele><time>2026-03-22T13:57:47.425Z</time></trkpt><trkpt lat="45.6207283" lon="10.91197"><ele>742.2</ele><time>2026-03-22T13:57:48.425Z</time></trkpt><trkpt lat="45.6207367" lon="10.9121283"><ele>742.8</ele><time>2026-03-22T13:57:49.425Z</time></trkpt><trkpt lat="45.6207133" lon="10.912265"><ele>743.4000000000001</ele><time>2026-03-22T13:57:50.425Z</time></trkpt><trkpt lat="45.6206583" lon="10.91237"><ele>744.0</ele><time>2026-03-22T13:57:51.424Z</time></trkpt><trkpt lat="45.6205833" lon="10.91244"><ele>744.0</ele><time>2026-03-22T13:57:52.425Z</time></trkpt><trkpt lat="45.6205067" lon="10.9124817"><ele>744.0</ele><time>2026-03-22T13:57:53.424Z</time></trkpt><trkpt lat="45.6204183" lon="10.9125017"><ele>744.0</ele><time>2026-03-22T13:57:54.424Z</time></trkpt><trkpt lat="45.62031" lon="10.91251"><ele>744.0</ele><time>2026-03-22T13:57:55.424Z</time></trkpt><trkpt lat="45.6201917" lon="10.9125433"><ele>744.0</ele><time>2026-03-22T13:57:56.425Z</time></trkpt><trkpt lat="45.6200833" lon="10.9126067"><ele>744.4000000000001</ele><time>2026-03-22T13:57:57.425Z</time></trkpt><trkpt lat="45.6199817" lon="10.912675"><ele>744.8</ele><time>2026-03-22T13:57:58.425Z</time></trkpt><trkpt lat="45.6198867" lon="10.91274"><ele>745.2</ele><time>2026-03-22T13:57:59.424Z</time></trkpt><trkpt lat="45.6197967" lon="10.91281"><ele>745.5999999999999</ele><time>2026-03-22T13:58:00.424Z</time></trkpt><trkpt lat="45.6197133" lon="10.912875"><ele>746.0</ele><time>2026-03-22T13:58:01.424Z</time></trkpt><trkpt lat="45.619645" lon="10.9129467"><ele>746.0</ele><time>2026-03-22T13:58:02.424Z</time></trkpt><trkpt lat="45.6195883" lon="10.913045"><ele>746.0</ele><time>2026-03-22T13:58:03.424Z</time></trkpt><trkpt lat="45.6195483" lon="10.9131667"><ele>746.0</ele><time>2026-03-22T13:58:04.424Z</time></trkpt><trkpt lat="45.61951" lon="10.913295"><ele>746.0</ele><time>2026-03-22T13:58:05.425Z</time></trkpt><trkpt lat="45.6194733" lon="10.91342"><ele>746.0</ele><time>2026-03-22T13:58:06.424Z</time></trkpt><trkpt lat="45.61944" lon="10.9135483"><ele>743.8</ele><time>2026-03-22T13:58:07.424Z</time></trkpt><trkpt lat="45.6194117" lon="10.91368"><ele>741.5999999999999</ele><time>2026-03-22T13:58:08.424Z</time></trkpt><trkpt lat="45.6194" lon="10.9138183"><ele>739.4</ele><time>2026-03-22T13:58:09.425Z</time></trkpt><trkpt lat="45.6193867" lon="10.9139567"><ele>737.2</ele><time>2026-03-22T13:58:10.425Z</time></trkpt><trkpt lat="45.6193733" lon="10.9141"><ele>735.0</ele><time>2026-03-22T13:58:11.424Z</time></trkpt><trkpt lat="45.61935" lon="10.9142267"><ele>734.4</ele><time>2026-03-22T13:58:12.425Z</time></trkpt><trkpt lat="45.619335" lon="10.91436"><ele>733.8</ele><time>2026-03-22T13:58:13.425Z</time></trkpt><trkpt lat="45.619325" lon="10.9144833"><ele>733.2</ele><time>2026-03-22T13:58:14.425Z</time></trkpt><trkpt lat="45.6193417" lon="10.914595"><ele>732.6</ele><time>2026-03-22T13:58:15.424Z</time></trkpt><trkpt lat="45.6193717" lon="10.91472"><ele>732.0</ele><time>2026-03-22T13:58:16.424Z</time></trkpt><trkpt lat="45.6194117" lon="10.9148483"><ele>732.0</ele><time>2026-03-22T13:58:17.424Z</time></trkpt><trkpt lat="45.6194533" lon="10.9149633"><ele>732.0</ele><time>2026-03-22T13:58:18.425Z</time></trkpt><trkpt lat="45.619515" lon="10.9150583"><ele>732.0</ele><time>2026-03-22T13:58:19.424Z</time></trkpt><trkpt lat="45.6195917" lon="10.915115"><ele>732.0</ele><time>2026-03-22T13:58:20.424Z</time></trkpt><trkpt lat="45.6196883" lon="10.915155"><ele>732.0</ele><time>2026-03-22T13:58:21.424Z</time></trkpt><trkpt lat="45.6197967" lon="10.9151933"><ele>736.0</ele><time>2026-03-22T13:58:22.425Z</time></trkpt><trkpt lat="45.6199017" lon="10.9152283"><ele>740.0</ele><time>2026-03-22T13:58:23.425Z</time></trkpt><trkpt lat="45.6200017" lon="10.91528"><ele>744.0</ele><time>2026-03-22T13:58:24.425Z</time></trkpt><trkpt lat="45.6200867" lon="10.9153433"><ele>748.0</ele><time>2026-03-22T13:58:25.425Z</time></trkpt><trkpt lat="45.6201717" lon="10.9154267"><ele>752.0</ele><time>2026-03-22T13:58:26.424Z</time></trkpt><trkpt lat="45.62024" lon="10.9155217"><ele>752.0</ele><time>2026-03-22T13:58:27.425Z</time></trkpt><trkpt lat="45.6203067" lon="10.9156267"><ele>752.0</ele><time>2026-03-22T13:58:28.424Z</time></trkpt><trkpt lat="45.6203517" lon="10.9157467"><ele>752.0</ele><time>2026-03-22T13:58:29.424Z</time></trkpt><trkpt lat="45.6203883" lon="10.9158783"><ele>752.0</ele><time>2026-03-22T13:58:30.425Z</time></trkpt><trkpt lat="45.620425" lon="10.916"><ele>752.0</ele><time>2026-03-22T13:58:31.424Z</time></trkpt><trkpt lat="45.6204583" lon="10.91611"><ele>754.6666666666666</ele><time>2026-03-22T13:58:32.425Z</time></trkpt><trkpt lat="45.6204933" lon="10.91621"><ele>757.3333333333333</ele><time>2026-03-22T13:58:33.424Z</time></trkpt><trkpt lat="45.6205067" lon="10.9163633"><ele>760.0</ele><time>2026-03-22T13:58:35.424Z</time></trkpt><trkpt lat="45.6204883" lon="10.91653"><ele>762.6666666666666</ele><time>2026-03-22T13:58:37.424Z</time></trkpt><trkpt lat="45.620475" lon="10.9166183"><ele>765.3333333333334</ele><time>2026-03-22T13:58:38.424Z</time></trkpt><trkpt lat="45.6205133" lon="10.916715"><ele>768.0</ele><time>2026-03-22T13:58:40.424Z</time></trkpt><trkpt lat="45.620625" lon="10.9166117"><ele>768.0</ele><time>2026-03-22T13:58:42.424Z</time></trkpt><trkpt lat="45.620685" lon="10.91653"><ele>768.0</ele><time>2026-03-22T13:58:43.424Z</time></trkpt><trkpt lat="45.6207333" lon="10.9164383"><ele>768.0</ele><time>2026-03-22T13:58:44.425Z</time></trkpt><trkpt lat="45.6207817" lon="10.9163667"><ele>768.0</ele><time>2026-03-22T13:58:45.425Z</time></trkpt><trkpt lat="45.6208633" lon="10.9162867"><ele>768.0</ele><time>2026-03-22T13:58:47.425Z</time></trkpt><trkpt lat="45.621" lon="10.9162717"><ele>768.0</ele><time>2026-03-22T13:58:49.424Z</time></trkpt><trkpt lat="45.62109" lon="10.9162567"><ele>768.0</ele><time>2026-03-22T13:58:50.424Z</time></trkpt><trkpt lat="45.6211783" lon="10.9162217"><ele>768.0</ele><time>2026-03-22T13:58:51.424Z</time></trkpt><trkpt lat="45.6212533" lon="10.9161817"><ele>768.0</ele><time>2026-03-22T13:58:52.425Z</time></trkpt><trkpt lat="45.6213167" lon="10.916105"><ele>768.0</ele><time>2026-03-22T13:58:53.424Z</time></trkpt><trkpt lat="45.621345" lon="10.915995"><ele>768.0</ele><time>2026-03-22T13:58:54.425Z</time></trkpt><trkpt lat="45.6213567" lon="10.91585"><ele>770.2</ele><time>2026-03-22T13:58:55.425Z</time></trkpt><trkpt lat="45.62136" lon="10.9157"><ele>772.4</ele><time>2026-03-22T13:58:56.424Z</time></trkpt><trkpt lat="45.621355" lon="10.9155517"><ele>774.6</ele><time>2026-03-22T13:58:57.424Z</time></trkpt><trkpt lat="45.621365" lon="10.91541"><ele>776.8000000000001</ele><time>2026-03-22T13:58:58.424Z</time></trkpt><trkpt lat="45.6213917" lon="10.9152733"><ele>779.0</ele><time>2026-03-22T13:58:59.425Z</time></trkpt><trkpt lat="45.621445" lon="10.915145"><ele>779.25</ele><time>2026-03-22T13:59:00.425Z</time></trkpt><trkpt lat="45.6215283" lon="10.9150033"><ele>779.5</ele><time>2026-03-22T13:59:01.424Z</time></trkpt><trkpt lat="45.6216333" lon="10.9148667"><ele>779.75</ele><time>2026-03-22T13:59:02.425Z</time></trkpt><trkpt lat="45.62174" lon="10.91472"><ele>780.0</ele><time>2026-03-22T13:59:03.424Z</time></trkpt><trkpt lat="45.6218433" lon="10.9145767"><ele>780.0</ele><time>2026-03-22T13:59:04.425Z</time></trkpt><trkpt lat="45.62195" lon="10.9144483"><ele>780.0</ele><time>2026-03-22T13:59:05.425Z</time></trkpt><trkpt lat="45.6220517" lon="10.9143433"><ele>780.0</ele><time>2026-03-22T13:59:06.425Z</time></trkpt><trkpt lat="45.6221483" lon="10.91428"><ele>780.0</ele><time>2026-03-22T13:59:07.425Z</time></trkpt><trkpt lat="45.6222383" lon="10.9142533"><ele>781.8</ele><time>2026-03-22T13:59:08.424Z</time></trkpt><trkpt lat="45.622325" lon="10.9142767"><ele>783.6</ele><time>2026-03-22T13:59:09.425Z</time></trkpt><trkpt lat="45.62241" lon="10.91435"><ele>785.4000000000001</ele><time>2026-03-22T13:59:10.424Z</time></trkpt><trkpt lat="45.62248" lon="10.914445"><ele>787.2</ele><time>2026-03-22T13:59:11.425Z</time></trkpt><trkpt lat="45.6225283" lon="10.91455"><ele>789.0</ele><time>2026-03-22T13:59:12.425Z</time></trkpt><trkpt lat="45.6225683" lon="10.9146483"><ele>789.0</ele><time>2026-03-22T13:59:13.425Z</time></trkpt><trkpt lat="45.622625" lon="10.9147167"><ele>789.0</ele><time>2026-03-22T13:59:14.424Z</time></trkpt><trkpt lat="45.6226983" lon="10.914755"><ele>789.0</ele><time>2026-03-22T13:59:15.425Z</time></trkpt><trkpt lat="45.6227833" lon="10.914755"><ele>789.0</ele><time>2026-03-22T13:59:16.425Z</time></trkpt><trkpt lat="45.62288" lon="10.91472"><ele>789.0</ele><time>2026-03-22T13:59:17.424Z</time></trkpt><trkpt lat="45.622975" lon="10.914635"><ele>789.0</ele><time>2026-03-22T13:59:18.425Z</time></trkpt><trkpt lat="45.6230667" lon="10.9145317"><ele>789.5</ele><time>2026-03-22T13:59:19.425Z</time></trkpt><trkpt lat="45.62316" lon="10.9144217"><ele>790.0</ele><time>2026-03-22T13:59:20.425Z</time></trkpt><trkpt lat="45.6232667" lon="10.9142933"><ele>790.5</ele><time>2026-03-22T13:59:21.425Z</time></trkpt><trkpt lat="45.623375" lon="10.9141367"><ele>791.0</ele><time>2026-03-22T13:59:22.424Z</time></trkpt><trkpt lat="45.623475" lon="10.9139633"><ele>791.0</ele><time>2026-03-22T13:59:23.424Z</time></trkpt><trkpt lat="45.6235767" lon="10.9138117"><ele>791.0</ele><time>2026-03-22T13:59:24.425Z</time></trkpt><trkpt lat="45.6236717" lon="10.9136833"><ele>791.0</ele><time>2026-03-22T13:59:25.424Z</time></trkpt><trkpt lat="45.6237467" lon="10.91356"><ele>791.0</ele><time>2026-03-22T13:59:26.424Z</time></trkpt><trkpt lat="45.6237983" lon="10.91343"><ele>790.5999999999999</ele><time>2026-03-22T13:59:27.424Z</time></trkpt><trkpt lat="45.6238133" lon="10.913305"><ele>790.2</ele><time>2026-03-22T13:59:28.425Z</time></trkpt><trkpt lat="45.6237933" lon="10.9131883"><ele>789.8</ele><time>2026-03-22T13:59:29.425Z</time></trkpt><trkpt lat="45.6237467" lon="10.913075"><ele>789.4000000000001</ele><time>2026-03-22T13:59:30.424Z</time></trkpt><trkpt lat="45.6236633" lon="10.9129367"><ele>789.0</ele><time>2026-03-22T13:59:31.425Z</time></trkpt><trkpt lat="45.6235767" lon="10.9127733"><ele>789.0</ele><time>2026-03-22T13:59:32.424Z</time></trkpt><trkpt lat="45.6234917" lon="10.912585"><ele>789.0</ele><time>2026-03-22T13:59:33.425Z</time></trkpt><trkpt lat="45.6233783" lon="10.9123833"><ele>789.0</ele><time>2026-03-22T13:59:34.425Z</time></trkpt><trkpt lat="45.6232317" lon="10.912185"><ele>792.6666666666667</ele><time>2026-03-22T13:59:35.425Z</time></trkpt><trkpt lat="45.6230767" lon="10.911975"><ele>796.3333333333334</ele><time>2026-03-22T13:59:36.424Z</time></trkpt><trkpt lat="45.622935" lon="10.91176"><ele>800.0</ele><time>2026-03-22T13:59:37.425Z</time></trkpt><trkpt lat="45.6228233" lon="10.9115583"><ele>799.25</ele><time>2026-03-22T13:59:38.424Z</time></trkpt><trkpt lat="45.6227383" lon="10.9113733"><ele>798.5</ele><time>2026-03-22T13:59:39.425Z</time></trkpt><trkpt lat="45.6226767" lon="10.9111917"><ele>797.75</ele><time>2026-03-22T13:59:40.424Z</time></trkpt><trkpt lat="45.6226217" lon="10.911035"><ele>797.0</ele><time>2026-03-22T13:59:41.424Z</time></trkpt><trkpt lat="45.6225967" lon="10.9108767"><ele>800.25</ele><time>2026-03-22T13:59:42.425Z</time></trkpt><trkpt lat="45.6226117" lon="10.9107083"><ele>803.5</ele><time>2026-03-22T13:59:43.425Z</time></trkpt><trkpt lat="45.62265" lon="10.9105333"><ele>806.75</ele><time>2026-03-22T13:59:44.425Z</time></trkpt><trkpt lat="45.622695" lon="10.9103583"><ele>810.0</ele><time>2026-03-22T13:59:45.425Z</time></trkpt><trkpt lat="45.6227367" lon="10.91018"><ele>810.3333333333333</ele><time>2026-03-22T13:59:46.424Z</time></trkpt><trkpt lat="45.62276" lon="10.9099733"><ele>810.6666666666666</ele><time>2026-03-22T13:59:47.424Z</time></trkpt><trkpt lat="45.6227583" lon="10.9097467"><ele>811.0</ele><time>2026-03-22T13:59:48.424Z</time></trkpt><trkpt lat="45.6227383" lon="10.9095217"><ele>811.0</ele><time>2026-03-22T13:59:49.425Z</time></trkpt><trkpt lat="45.62272" lon="10.909295"><ele>811.0</ele><time>2026-03-22T13:59:50.424Z</time></trkpt><trkpt lat="45.6226683" lon="10.9090683"><ele>811.0</ele><time>2026-03-22T13:59:51.424Z</time></trkpt><trkpt lat="45.622595" lon="10.90885"><ele>813.25</ele><time>2026-03-22T13:59:52.424Z</time></trkpt><trkpt lat="45.622535" lon="10.9086517"><ele>815.5</ele><time>2026-03-22T13:59:53.425Z</time></trkpt><trkpt lat="45.6224867" lon="10.90847"><ele>817.75</ele><time>2026-03-22T13:59:54.424Z</time></trkpt><trkpt lat="45.62247" lon="10.9083067"><ele>820.0</ele><time>2026-03-22T13:59:55.425Z</time></trkpt><trkpt lat="45.6224667" lon="10.9081533"><ele>822.2</ele><time>2026-03-22T13:59:56.425Z</time></trkpt><trkpt lat="45.6224583" lon="10.90802"><ele>824.4</ele><time>2026-03-22T13:59:57.425Z</time></trkpt><trkpt lat="45.6224083" lon="10.9079133"><ele>826.5999999999999</ele><time>2026-03-22T13:59:58.425Z</time></trkpt><trkpt lat="45.6223333" lon="10.90782"><ele>828.8</ele><time>2026-03-22T13:59:59.425Z</time></trkpt><trkpt lat="45.6222467" lon="10.90774"><ele>831.0</ele><time>2026-03-22T14:00:00.425Z</time></trkpt><trkpt lat="45.622165" lon="10.9076683"><ele>832.1999999999999</ele><time>2026-03-22T14:00:01.425Z</time></trkpt><trkpt lat="45.6220883" lon="10.9075583"><ele>833.4</ele><time>2026-03-22T14:00:02.425Z</time></trkpt><trkpt lat="45.6220217" lon="10.9074417"><ele>834.6</ele><time>2026-03-22T14:00:03.424Z</time></trkpt><trkpt lat="45.6219683" lon="10.9073283"><ele>835.8</ele><time>2026-03-22T14:00:04.425Z</time></trkpt><trkpt lat="45.6219317" lon="10.907205"><ele>837.0</ele><time>2026-03-22T14:00:05.425Z</time></trkpt><trkpt lat="45.6219167" lon="10.907075"><ele>836.5</ele><time>2026-03-22T14:00:06.425Z</time></trkpt><trkpt lat="45.621925" lon="10.9069333"><ele>836.0</ele><time>2026-03-22T14:00:07.425Z</time></trkpt><trkpt lat="45.621945" lon="10.906775"><ele>835.5</ele><time>2026-03-22T14:00:08.424Z</time></trkpt><trkpt lat="45.6219783" lon="10.9065983"><ele>835.0</ele><time>2026-03-22T14:00:09.424Z</time></trkpt><trkpt lat="45.62201" lon="10.9064083"><ele>835.0</ele><time>2026-03-22T14:00:10.425Z</time></trkpt><trkpt lat="45.6220417" lon="10.9062"><ele>835.0</ele><time>2026-03-22T14:00:11.425Z</time></trkpt><trkpt lat="45.6220683" lon="10.9060033"><ele>835.0</ele><time>2026-03-22T14:00:12.424Z</time></trkpt><trkpt lat="45.6221" lon="10.9058233"><ele>835.0</ele><time>2026-03-22T14:00:13.425Z</time></trkpt><trkpt lat="45.6221367" lon="10.9056583"><ele>834.8</ele><time>2026-03-22T14:00:14.424Z</time></trkpt><trkpt lat="45.6221817" lon="10.905515"><ele>834.6</ele><time>2026-03-22T14:00:15.424Z</time></trkpt><trkpt lat="45.6222383" lon="10.9053867"><ele>834.4000000000001</ele><time>2026-03-22T14:00:16.425Z</time></trkpt><trkpt lat="45.6223067" lon="10.9052833"><ele>834.2</ele><time>2026-03-22T14:00:17.424Z</time></trkpt><trkpt lat="45.62238" lon="10.9052"><ele>834.0</ele><time>2026-03-22T14:00:18.425Z</time></trkpt><trkpt lat="45.6224433" lon="10.905135"><ele>834.0</ele><time>2026-03-22T14:00:19.424Z</time></trkpt><trkpt lat="45.6224983" lon="10.9050867"><ele>834.0</ele><time>2026-03-22T14:00:20.424Z</time></trkpt><trkpt lat="45.6225833" lon="10.905055"><ele>834.0</ele><time>2026-03-22T14:00:22.425Z</time></trkpt><trkpt lat="45.6226383" lon="10.905125"><ele>834.0</ele><time>2026-03-22T14:00:24.424Z</time></trkpt><trkpt lat="45.6226633" lon="10.9052083"><ele>834.0</ele><time>2026-03-22T14:00:25.425Z</time></trkpt><trkpt lat="45.62268" lon="10.9053267"><ele>834.0</ele><time>2026-03-22T14:00:26.424Z</time></trkpt><trkpt lat="45.6227067" lon="10.9054867"><ele>834.0</ele><time>2026-03-22T14:00:27.424Z</time></trkpt><trkpt lat="45.6227317" lon="10.9056833"><ele>834.0</ele><time>2026-03-22T14:00:28.425Z</time></trkpt><trkpt lat="45.6227617" lon="10.9059067"><ele>834.0</ele><time>2026-03-22T14:00:29.425Z</time></trkpt><trkpt lat="45.6227983" lon="10.9061517"><ele>840.0</ele><time>2026-03-22T14:00:30.425Z</time></trkpt><trkpt lat="45.6228383" lon="10.90642"><ele>846.0</ele><time>2026-03-22T14:00:31.424Z</time></trkpt><trkpt lat="45.6228733" lon="10.9066917"><ele>852.0</ele><time>2026-03-22T14:00:32.424Z</time></trkpt><trkpt lat="45.62289" lon="10.9069767"><ele>854.3333333333333</ele><time>2026-03-22T14:00:33.425Z</time></trkpt><trkpt lat="45.6228817" lon="10.9072767"><ele>856.6666666666666</ele><time>2026-03-22T14:00:34.424Z</time></trkpt><trkpt lat="45.6228583" lon="10.9075667"><ele>859.0</ele><time>2026-03-22T14:00:35.425Z</time></trkpt><trkpt lat="45.6228367" lon="10.9078267"><ele>859.0</ele><time>2026-03-22T14:00:36.425Z</time></trkpt><trkpt lat="45.6228383" lon="10.9080733"><ele>859.0</ele><time>2026-03-22T14:00:37.425Z</time></trkpt><trkpt lat="45.6228633" lon="10.9083033"><ele>859.0</ele><time>2026-03-22T14:00:38.424Z</time></trkpt><trkpt lat="45.6229183" lon="10.90853"><ele>857.0</ele><time>2026-03-22T14:00:39.425Z</time></trkpt><trkpt lat="45.6230083" lon="10.90876"><ele>855.0</ele><time>2026-03-22T14:00:40.424Z</time></trkpt><trkpt lat="45.623105" lon="10.909005"><ele>853.0</ele><time>2026-03-22T14:00:41.425Z</time></trkpt><trkpt lat="45.6232" lon="10.9092717"><ele>850.6666666666666</ele><time>2026-03-22T14:00:42.424Z</time></trkpt><trkpt lat="45.6232883" lon="10.9095367"><ele>848.3333333333333</ele><time>2026-03-22T14:00:43.424Z</time></trkpt><trkpt lat="45.6233733" lon="10.9097783"><ele>846.0</ele><time>2026-03-22T14:00:44.424Z</time></trkpt><trkpt lat="45.6234517" lon="10.91"><ele>843.6666666666667</ele><time>2026-03-22T14:00:45.425Z</time></trkpt><trkpt lat="45.6235417" lon="10.9101817"><ele>841.3333333333334</ele><time>2026-03-22T14:00:46.424Z</time></trkpt><trkpt lat="45.623665" lon="10.9103333"><ele>839.0</ele><time>2026-03-22T14:00:47.424Z</time></trkpt><trkpt lat="45.6238133" lon="10.9104533"><ele>845.6666666666667</ele><time>2026-03-22T14:00:48.424Z</time></trkpt><trkpt lat="45.6239833" lon="10.9105517"><ele>852.3333333333333</ele><time>2026-03-22T14:00:49.425Z</time></trkpt><trkpt lat="45.6241683" lon="10.910645"><ele>859.0</ele><time>2026-03-22T14:00:50.424Z</time></trkpt><trkpt lat="45.624365" lon="10.9107417"><ele>858.0</ele><time>2026-03-22T14:00:51.425Z</time></trkpt><trkpt lat="45.62457" lon="10.91085"><ele>857.0</ele><time>2026-03-22T14:00:52.425Z</time></trkpt><trkpt lat="45.62477" lon="10.91096"><ele>856.0</ele><time>2026-03-22T14:00:53.425Z</time></trkpt><trkpt lat="45.6249733" lon="10.911065"><ele>856.0</ele><time>2026-03-22T14:00:54.425Z</time></trkpt><trkpt lat="45.6251683" lon="10.9111467"><ele>856.0</ele><time>2026-03-22T14:00:55.425Z</time></trkpt><trkpt lat="45.6253667" lon="10.9112"><ele>856.0</ele><time>2026-03-22T14:00:56.425Z</time></trkpt><trkpt lat="45.6255567" lon="10.9112633"><ele>860.3333333333333</ele><time>2026-03-22T14:00:57.424Z</time></trkpt><trkpt lat="45.62574" lon="10.9113033"><ele>864.6666666666667</ele><time>2026-03-22T14:00:58.425Z</time></trkpt><trkpt lat="45.6259333" lon="10.91131"><ele>869.0</ele><time>2026-03-22T14:00:59.425Z</time></trkpt><trkpt lat="45.6261383" lon="10.911285"><ele>869.3333333333334</ele><time>2026-03-22T14:01:00.424Z</time></trkpt><trkpt lat="45.626345" lon="10.9112217"><ele>869.6666666666667</ele><time>2026-03-22T14:01:01.425Z</time></trkpt><trkpt lat="45.62654" lon="10.9111433"><ele>870.0</ele><time>2026-03-22T14:01:02.425Z</time></trkpt><trkpt lat="45.6267233" lon="10.9110717"><ele>870.0</ele><time>2026-03-22T14:01:03.424Z</time></trkpt><trkpt lat="45.6268833" lon="10.9110083"><ele>870.0</ele><time>2026-03-22T14:01:04.425Z</time></trkpt><trkpt lat="45.6270367" lon="10.9109717"><ele>870.0</ele><time>2026-03-22T14:01:05.424Z</time></trkpt><trkpt lat="45.6271867" lon="10.910965"><ele>872.3333333333333</ele><time>2026-03-22T14:01:06.424Z</time></trkpt><trkpt lat="45.627335" lon="10.91101"><ele>874.6666666666666</ele><time>2026-03-22T14:01:07.424Z</time></trkpt><trkpt lat="45.6274967" lon="10.9110983"><ele>877.0</ele><time>2026-03-22T14:01:08.425Z</time></trkpt><trkpt lat="45.627665" lon="10.911205"><ele>881.6666666666666</ele><time>2026-03-22T14:01:09.424Z</time></trkpt><trkpt lat="45.6278317" lon="10.9113317"><ele>886.3333333333333</ele><time>2026-03-22T14:01:10.424Z</time></trkpt><trkpt lat="45.628" lon="10.91149"><ele>891.0</ele><time>2026-03-22T14:01:11.424Z</time></trkpt><trkpt lat="45.6281633" lon="10.9116817"><ele>888.6666666666667</ele><time>2026-03-22T14:01:12.424Z</time></trkpt><trkpt lat="45.6283183" lon="10.9119033"><ele>886.3333333333334</ele><time>2026-03-22T14:01:13.425Z</time></trkpt><trkpt lat="45.6284667" lon="10.9121467"><ele>884.0</ele><time>2026-03-22T14:01:14.425Z</time></trkpt><trkpt lat="45.628615" lon="10.9124117"><ele>893.5</ele><time>2026-03-22T14:01:15.424Z</time></trkpt><trkpt lat="45.6287667" lon="10.9126817"><ele>903.0</ele><time>2026-03-22T14:01:16.424Z</time></trkpt><trkpt lat="45.628915" lon="10.9129583"><ele>903.0</ele><time>2026-03-22T14:01:17.425Z</time></trkpt><trkpt lat="45.62906" lon="10.9132283"><ele>903.0</ele><time>2026-03-22T14:01:18.425Z</time></trkpt><trkpt lat="45.6291967" lon="10.9134833"><ele>901.0</ele><time>2026-03-22T14:01:19.425Z</time></trkpt><trkpt lat="45.6293233" lon="10.9137217"><ele>899.0</ele><time>2026-03-22T14:01:20.424Z</time></trkpt><trkpt lat="45.62944" lon="10.9139417"><ele>897.0</ele><time>2026-03-22T14:01:21.425Z</time></trkpt><trkpt lat="45.6295683" lon="10.9141333"><ele>900.3333333333333</ele><time>2026-03-22T14:01:22.425Z</time></trkpt><trkpt lat="45.6297083" lon="10.9142767"><ele>903.6666666666666</ele><time>2026-03-22T14:01:23.424Z</time></trkpt><trkpt lat="45.6298417" lon="10.91438"><ele>907.0</ele><time>2026-03-22T14:01:24.424Z</time></trkpt><trkpt lat="45.6299767" lon="10.9144583"><ele>907.0</ele><time>2026-03-22T14:01:25.425Z</time></trkpt><trkpt lat="45.6301" lon="10.9145483"><ele>907.0</ele><time>2026-03-22T14:01:26.424Z</time></trkpt><trkpt lat="45.63021" lon="10.9146667"><ele>907.0</ele><time>2026-03-22T14:01:27.424Z</time></trkpt><trkpt lat="45.630305" lon="10.914815"><ele>907.0</ele><time>2026-03-22T14:01:28.424Z</time></trkpt><trkpt lat="45.6303883" lon="10.9150033"><ele>905.6666666666666</ele><time>2026-03-22T14:01:29.425Z</time></trkpt><trkpt lat="45.6304617" lon="10.9152083"><ele>904.3333333333333</ele><time>2026-03-22T14:01:30.424Z</time></trkpt><trkpt lat="45.6305283" lon="10.91543"><ele>903.0</ele><time>2026-03-22T14:01:31.424Z</time></trkpt><trkpt lat="45.6305933" lon="10.915655"><ele>903.0</ele><time>2026-03-22T14:01:32.425Z</time></trkpt><trkpt lat="45.6306683" lon="10.9158867"><ele>903.0</ele><time>2026-03-22T14:01:33.424Z</time></trkpt><trkpt lat="45.630745" lon="10.916115"><ele>903.0</ele><time>2026-03-22T14:01:34.424Z</time></trkpt><trkpt lat="45.630815" lon="10.9163517"><ele>904.0</ele><time>2026-03-22T14:01:35.424Z</time></trkpt><trkpt lat="45.6308933" lon="10.9165817"><ele>905.0</ele><time>2026-03-22T14:01:36.424Z</time></trkpt><trkpt lat="45.6309783" lon="10.91681"><ele>906.0</ele><time>2026-03-22T14:01:37.424Z</time></trkpt><trkpt lat="45.631065" lon="10.9170367"><ele>906.3333333333333</ele><time>2026-03-22T14:01:38.424Z</time></trkpt><trkpt lat="45.6311683" lon="10.9172567"><ele>906.6666666666666</ele><time>2026-03-22T14:01:39.425Z</time></trkpt><trkpt lat="45.6312833" lon="10.9174733"><ele>907.0</ele><time>2026-03-22T14:01:40.424Z</time></trkpt><trkpt lat="45.63141" lon="10.9176867"><ele>908.6666666666666</ele><time>2026-03-22T14:01:41.424Z</time></trkpt><trkpt lat="45.6315467" lon="10.9179033"><ele>910.3333333333333</ele><time>2026-03-22T14:01:42.425Z</time></trkpt><trkpt lat="45.6317017" lon="10.9181283"><ele>912.0</ele><time>2026-03-22T14:01:43.425Z</time></trkpt><trkpt lat="45.6318683" lon="10.9183483"><ele>914.3333333333333</ele><time>2026-03-22T14:01:44.425Z</time></trkpt><trkpt lat="45.632025" lon="10.9185633"><ele>916.6666666666666</ele><time>2026-03-22T14:01:45.424Z</time></trkpt><trkpt lat="45.6321633" lon="10.9187633"><ele>919.0</ele><time>2026-03-22T14:01:46.424Z</time></trkpt><trkpt lat="45.632295" lon="10.918945"><ele>919.0</ele><time>2026-03-22T14:01:47.425Z</time></trkpt><trkpt lat="45.6324183" lon="10.9191167"><ele>919.0</ele><time>2026-03-22T14:01:48.424Z</time></trkpt><trkpt lat="45.63254" lon="10.9192767"><ele>919.0</ele><time>2026-03-22T14:01:49.424Z</time></trkpt><trkpt lat="45.6326667" lon="10.9194333"><ele>920.6666666666666</ele><time>2026-03-22T14:01:50.424Z</time></trkpt><trkpt lat="45.6327783" lon="10.9195917"><ele>922.3333333333333</ele><time>2026-03-22T14:01:51.425Z</time></trkpt><trkpt lat="45.6328983" lon="10.9197517"><ele>924.0</ele><time>2026-03-22T14:01:52.424Z</time></trkpt><trkpt lat="45.6330217" lon="10.9199233"><ele>927.6666666666667</ele><time>2026-03-22T14:01:53.424Z</time></trkpt><trkpt lat="45.63314" lon="10.920085"><ele>931.3333333333334</ele><time>2026-03-22T14:01:54.425Z</time></trkpt><trkpt lat="45.6332633" lon="10.9202483"><ele>935.0</ele><time>2026-03-22T14:01:55.424Z</time></trkpt><trkpt lat="45.633385" lon="10.9204"><ele>935.0</ele><time>2026-03-22T14:01:56.424Z</time></trkpt><trkpt lat="45.633515" lon="10.92054"><ele>935.0</ele><time>2026-03-22T14:01:57.424Z</time></trkpt><trkpt lat="45.6336467" lon="10.92066"><ele>935.0</ele><time>2026-03-22T14:01:58.424Z</time></trkpt><trkpt lat="45.6337783" lon="10.9207683"><ele>934.0</ele><time>2026-03-22T14:01:59.424Z</time></trkpt><trkpt lat="45.6339133" lon="10.92088"><ele>933.0</ele><time>2026-03-22T14:02:00.424Z</time></trkpt><trkpt lat="45.6340483" lon="10.9209967"><ele>932.0</ele><time>2026-03-22T14:02:01.425Z</time></trkpt><trkpt lat="45.6341883" lon="10.9211067"><ele>934.0</ele><time>2026-03-22T14:02:02.424Z</time></trkpt><trkpt lat="45.63433" lon="10.9212267"><ele>936.0</ele><time>2026-03-22T14:02:03.424Z</time></trkpt><trkpt lat="45.6344783" lon="10.9213583"><ele>938.0</ele><time>2026-03-22T14:02:04.424Z</time></trkpt><trkpt lat="45.634635" lon="10.9214783"><ele>938.3333333333334</ele><time>2026-03-22T14:02:05.424Z</time></trkpt><trkpt lat="45.6348017" lon="10.9215983"><ele>938.6666666666667</ele><time>2026-03-22T14:02:06.425Z</time></trkpt><trkpt lat="45.634985" lon="10.9216983"><ele>939.0</ele><time>2026-03-22T14:02:07.424Z</time></trkpt><trkpt lat="45.635185" lon="10.9217883"><ele>942.0</ele><time>2026-03-22T14:02:08.424Z</time></trkpt><trkpt lat="45.6353967" lon="10.9218667"><ele>945.0</ele><time>2026-03-22T14:02:09.424Z</time></trkpt><trkpt lat="45.6356217" lon="10.9219233"><ele>948.0</ele><time>2026-03-22T14:02:10.425Z</time></trkpt><trkpt lat="45.635855" lon="10.9219783"><ele>948.0</ele><time>2026-03-22T14:02:11.425Z</time></trkpt><trkpt lat="45.6360983" lon="10.922005"><ele>948.0</ele><time>2026-03-22T14:02:12.425Z</time></trkpt><trkpt lat="45.6363417" lon="10.92203"><ele>950.3333333333333</ele><time>2026-03-22T14:02:13.424Z</time></trkpt><trkpt lat="45.6365717" lon="10.92206"><ele>952.6666666666666</ele><time>2026-03-22T14:02:14.424Z</time></trkpt><trkpt lat="45.6367667" lon="10.922085"><ele>955.0</ele><time>2026-03-22T14:02:15.424Z</time></trkpt><trkpt lat="45.6369367" lon="10.9221017"><ele>955.0</ele><time>2026-03-22T14:02:16.424Z</time></trkpt><trkpt lat="45.6371" lon="10.9221233"><ele>955.0</ele><time>2026-03-22T14:02:17.425Z</time></trkpt><trkpt lat="45.6372583" lon="10.922155"><ele>955.0</ele><time>2026-03-22T14:02:18.425Z</time></trkpt><trkpt lat="45.6373983" lon="10.922185"><ele>955.0</ele><time>2026-03-22T14:02:19.425Z</time></trkpt><trkpt lat="45.6375417" lon="10.9222383"><ele>955.0</ele><time>2026-03-22T14:02:20.425Z</time></trkpt><trkpt lat="45.637685" lon="10.9223117"><ele>955.0</ele><time>2026-03-22T14:02:21.424Z</time></trkpt><trkpt lat="45.6378317" lon="10.9224083"><ele>954.6666666666666</ele><time>2026-03-22T14:02:22.424Z</time></trkpt><trkpt lat="45.637985" lon="10.9225267"><ele>954.3333333333333</ele><time>2026-03-22T14:02:23.425Z</time></trkpt><trkpt lat="45.63815" lon="10.9226567"><ele>954.0</ele><time>2026-03-22T14:02:24.424Z</time></trkpt><trkpt lat="45.63833" lon="10.9228"><ele>954.0</ele><time>2026-03-22T14:02:25.425Z</time></trkpt><trkpt lat="45.6385267" lon="10.9229517"><ele>954.0</ele><time>2026-03-22T14:02:26.424Z</time></trkpt><trkpt lat="45.6387367" lon="10.9231167"><ele>954.0</ele><time>2026-03-22T14:02:27.424Z</time></trkpt><trkpt lat="45.63895" lon="10.9232867"><ele>954.0</ele><time>2026-03-22T14:02:28.424Z</time></trkpt><trkpt lat="45.6391717" lon="10.9234617"><ele>957.5</ele><time>2026-03-22T14:02:29.425Z</time></trkpt><trkpt lat="45.6393983" lon="10.9236367"><ele>961.0</ele><time>2026-03-22T14:02:30.425Z</time></trkpt><trkpt lat="45.6396183" lon="10.9238033"><ele>961.0</ele><time>2026-03-22T14:02:31.425Z</time></trkpt><trkpt lat="45.63983" lon="10.923965"><ele>961.0</ele><time>2026-03-22T14:02:32.424Z</time></trkpt><trkpt lat="45.640035" lon="10.9241233"><ele>963.6666666666666</ele><time>2026-03-22T14:02:33.425Z</time></trkpt><trkpt lat="45.6402333" lon="10.9242733"><ele>966.3333333333333</ele><time>2026-03-22T14:02:34.425Z</time></trkpt><trkpt lat="45.640415" lon="10.9244167"><ele>969.0</ele><time>2026-03-22T14:02:35.424Z</time></trkpt><trkpt lat="45.6405767" lon="10.924555"><ele>969.0</ele><time>2026-03-22T14:02:36.424Z</time></trkpt><trkpt lat="45.64073" lon="10.9246867"><ele>969.0</ele><time>2026-03-22T14:02:37.424Z</time></trkpt><trkpt lat="45.6408633" lon="10.9248083"><ele>969.0</ele><time>2026-03-22T14:02:38.424Z</time></trkpt><trkpt lat="45.640975" lon="10.9249317"><ele>969.75</ele><time>2026-03-22T14:02:39.424Z</time></trkpt><trkpt lat="45.64107" lon="10.9250767"><ele>970.5</ele><time>2026-03-22T14:02:40.424Z</time></trkpt><trkpt lat="45.64114" lon="10.9252467"><ele>971.25</ele><time>2026-03-22T14:02:41.424Z</time></trkpt><trkpt lat="45.6411833" lon="10.92545"><ele>972.0</ele><time>2026-03-22T14:02:42.425Z</time></trkpt><trkpt lat="45.6412183" lon="10.925665"><ele>972.75</ele><time>2026-03-22T14:02:43.425Z</time></trkpt><trkpt lat="45.6412533" lon="10.9258817"><ele>973.5</ele><time>2026-03-22T14:02:44.424Z</time></trkpt><trkpt lat="45.6412817" lon="10.9260883"><ele>974.25</ele><time>2026-03-22T14:02:45.425Z</time></trkpt><trkpt lat="45.641325" lon="10.9262533"><ele>975.0</ele><time>2026-03-22T14:02:46.424Z</time></trkpt><trkpt lat="45.6413967" lon="10.9263717"><ele>975.0</ele><time>2026-03-22T14:02:47.425Z</time></trkpt><trkpt lat="45.6414733" lon="10.9264433"><ele>975.0</ele><time>2026-03-22T14:02:48.425Z</time></trkpt><trkpt lat="45.64157" lon="10.92646"><ele>975.0</ele><time>2026-03-22T14:02:49.425Z</time></trkpt><trkpt lat="45.6416833" lon="10.9264217"><ele>975.0</ele><time>2026-03-22T14:02:50.424Z</time></trkpt><trkpt lat="45.6418117" lon="10.92637"><ele>975.0</ele><time>2026-03-22T14:02:51.425Z</time></trkpt><trkpt lat="45.6419317" lon="10.9263383"><ele>975.3333333333333</ele><time>2026-03-22T14:02:52.424Z</time></trkpt><trkpt lat="45.6420683" lon="10.92637"><ele>975.6666666666666</ele><time>2026-03-22T14:02:53.424Z</time></trkpt><trkpt lat="45.6422233" lon="10.92645"><ele>976.0</ele><time>2026-03-22T14:02:54.425Z</time></trkpt><trkpt lat="45.64238" lon="10.926545"><ele>976.0</ele><time>2026-03-22T14:02:55.424Z</time></trkpt><trkpt lat="45.6425483" lon="10.9266567"><ele>976.0</ele><time>2026-03-22T14:02:56.425Z</time></trkpt><trkpt lat="45.6427167" lon="10.9267683"><ele>976.0</ele><time>2026-03-22T14:02:57.424Z</time></trkpt><trkpt lat="45.6428617" lon="10.926875"><ele>977.0</ele><time>2026-03-22T14:02:58.424Z</time></trkpt><trkpt lat="45.6430067" lon="10.92698"><ele>978.0</ele><time>2026-03-22T14:02:59.424Z</time></trkpt><trkpt lat="45.6431567" lon="10.927075"><ele>979.0</ele><time>2026-03-22T14:03:00.425Z</time></trkpt><trkpt lat="45.643305" lon="10.9271817"><ele>979.0</ele><time>2026-03-22T14:03:01.424Z</time></trkpt><trkpt lat="45.6434467" lon="10.9273067"><ele>979.0</ele><time>2026-03-22T14:03:02.425Z</time></trkpt><trkpt lat="45.6435967" lon="10.9274517"><ele>979.0</ele><time>2026-03-22T14:03:03.425Z</time></trkpt><trkpt lat="45.6437367" lon="10.9276317"><ele>979.0</ele><time>2026-03-22T14:03:04.425Z</time></trkpt><trkpt lat="45.6438833" lon="10.9278283"><ele>979.0</ele><time>2026-03-22T14:03:05.424Z</time></trkpt><trkpt lat="45.6440183" lon="10.9280183"><ele>979.0</ele><time>2026-03-22T14:03:06.424Z</time></trkpt><trkpt lat="45.6441383" lon="10.9281983"><ele>979.0</ele><time>2026-03-22T14:03:07.425Z</time></trkpt><trkpt lat="45.6442567" lon="10.9283733"><ele>979.0</ele><time>2026-03-22T14:03:08.425Z</time></trkpt><trkpt lat="45.6443683" lon="10.9285467"><ele>979.0</ele><time>2026-03-22T14:03:09.425Z</time></trkpt><trkpt lat="45.644465" lon="10.9287417"><ele>973.6666666666666</ele><time>2026-03-22T14:03:10.424Z</time></trkpt><trkpt lat="45.64456" lon="10.92896"><ele>968.3333333333333</ele><time>2026-03-22T14:03:11.424Z</time></trkpt><trkpt lat="45.6446433" lon="10.929195"><ele>963.0</ele><time>2026-03-22T14:03:12.425Z</time></trkpt><trkpt lat="45.64473" lon="10.9294333"><ele>963.0</ele><time>2026-03-22T14:03:13.424Z</time></trkpt><trkpt lat="45.6448117" lon="10.929675"><ele>963.0</ele><time>2026-03-22T14:03:14.424Z</time></trkpt><trkpt lat="45.6448917" lon="10.929905"><ele>963.0</ele><time>2026-03-22T14:03:15.425Z</time></trkpt><trkpt lat="45.6449733" lon="10.9301267"><ele>965.6666666666667</ele><time>2026-03-22T14:03:16.424Z</time></trkpt><trkpt lat="45.6450583" lon="10.9303317"><ele>968.3333333333334</ele><time>2026-03-22T14:03:17.424Z</time></trkpt><trkpt lat="45.6451383" lon="10.930535"><ele>971.0</ele><time>2026-03-22T14:03:18.425Z</time></trkpt><trkpt lat="45.6452083" lon="10.9307183"><ele>969.5</ele><time>2026-03-22T14:03:19.424Z</time></trkpt><trkpt lat="45.6452733" lon="10.930905"><ele>968.0</ele><time>2026-03-22T14:03:20.424Z</time></trkpt><trkpt lat="45.6453167" lon="10.9310883"><ele>966.5</ele><time>2026-03-22T14:03:21.424Z</time></trkpt><trkpt lat="45.6453433" lon="10.9312717"><ele>965.0</ele><time>2026-03-22T14:03:22.425Z</time></trkpt><trkpt lat="45.645345" lon="10.9314567"><ele>960.5</ele><time>2026-03-22T14:03:23.425Z</time></trkpt><trkpt lat="45.6453283" lon="10.9316417"><ele>956.0</ele><time>2026-03-22T14:03:24.424Z</time></trkpt><trkpt lat="45.6453033" lon="10.9318167"><ele>951.5</ele><time>2026-03-22T14:03:25.424Z</time></trkpt><trkpt lat="45.6452683" lon="10.9319883"><ele>947.0</ele><time>2026-03-22T14:03:26.424Z</time></trkpt><trkpt lat="45.6452233" lon="10.9321483"><ele>947.0</ele><time>2026-03-22T14:03:27.424Z</time></trkpt><trkpt lat="45.6451583" lon="10.9322833"><ele>947.0</ele><time>2026-03-22T14:03:28.424Z</time></trkpt><trkpt lat="45.645075" lon="10.9324083"><ele>947.0</ele><time>2026-03-22T14:03:29.425Z</time></trkpt><trkpt lat="45.6449683" lon="10.9325183"><ele>947.0</ele><time>2026-03-22T14:03:30.425Z</time></trkpt><trkpt lat="45.644835" lon="10.9326083"><ele>948.0</ele><time>2026-03-22T14:03:31.424Z</time></trkpt><trkpt lat="45.6446833" lon="10.9327217"><ele>949.0</ele><time>2026-03-22T14:03:32.424Z</time></trkpt><trkpt lat="45.6445183" lon="10.932835"><ele>950.0</ele><time>2026-03-22T14:03:33.424Z</time></trkpt><trkpt lat="45.64436" lon="10.9329367"><ele>950.0</ele><time>2026-03-22T14:03:34.425Z</time></trkpt><trkpt lat="45.6442217" lon="10.9330383"><ele>950.0</ele><time>2026-03-22T14:03:35.424Z</time></trkpt><trkpt lat="45.644115" lon="10.93313"><ele>950.0</ele><time>2026-03-22T14:03:36.425Z</time></trkpt><trkpt lat="45.6440267" lon="10.9332417"><ele>950.0</ele><time>2026-03-22T14:03:37.425Z</time></trkpt><trkpt lat="45.643975" lon="10.93337"><ele>948.0</ele><time>2026-03-22T14:03:38.425Z</time></trkpt><trkpt lat="45.6439583" lon="10.933515"><ele>946.0</ele><time>2026-03-22T14:03:39.424Z</time></trkpt><trkpt lat="45.6439783" lon="10.9336717"><ele>944.0</ele><time>2026-03-22T14:03:40.424Z</time></trkpt><trkpt lat="45.6440117" lon="10.9338467"><ele>942.0</ele><time>2026-03-22T14:03:41.425Z</time></trkpt><trkpt lat="45.6440467" lon="10.9340333"><ele>942.0</ele><time>2026-03-22T14:03:42.425Z</time></trkpt><trkpt lat="45.6440717" lon="10.9342017"><ele>942.0</ele><time>2026-03-22T14:03:43.425Z</time></trkpt><trkpt lat="45.6440833" lon="10.9343683"><ele>942.0</ele><time>2026-03-22T14:03:44.424Z</time></trkpt><trkpt lat="45.644065" lon="10.9345483"><ele>942.0</ele><time>2026-03-22T14:03:45.424Z</time></trkpt><trkpt lat="45.6440233" lon="10.9347367"><ele>940.3333333333333</ele><time>2026-03-22T14:03:46.424Z</time></trkpt><trkpt lat="45.64396" lon="10.9349383"><ele>938.6666666666666</ele><time>2026-03-22T14:03:47.425Z</time></trkpt><trkpt lat="45.64388" lon="10.93515"><ele>937.0</ele><time>2026-03-22T14:03:48.425Z</time></trkpt><trkpt lat="45.6438033" lon="10.935345"><ele>937.2</ele><time>2026-03-22T14:03:49.424Z</time></trkpt><trkpt lat="45.6437383" lon="10.9355033"><ele>937.4000000000001</ele><time>2026-03-22T14:03:50.425Z</time></trkpt><trkpt lat="45.6436833" lon="10.9356417"><ele>937.5999999999999</ele><time>2026-03-22T14:03:51.424Z</time></trkpt><trkpt lat="45.643635" lon="10.9357733"><ele>937.8</ele><time>2026-03-22T14:03:52.424Z</time></trkpt><trkpt lat="45.643595" lon="10.9358867"><ele>938.0</ele><time>2026-03-22T14:03:53.424Z</time></trkpt><trkpt lat="45.6435683" lon="10.9359983"><ele>938.0000000000001</ele><time>2026-03-22T14:03:54.424Z</time></trkpt><trkpt lat="45.6435533" lon="10.9361083"><ele>938.0</ele><time>2026-03-22T14:03:55.425Z</time></trkpt><trkpt lat="45.6435433" lon="10.9362033"><ele>938.0</ele><time>2026-03-22T14:03:56.425Z</time></trkpt><trkpt lat="45.6435217" lon="10.936315"><ele>938.0</ele><time>2026-03-22T14:03:58.425Z</time></trkpt><trkpt lat="45.6435217" lon="10.9364267"><ele>938.0000000000001</ele><time>2026-03-22T14:04:02.424Z</time></trkpt><trkpt lat="45.643595" lon="10.9364667"><ele>938.0</ele><time>2026-03-22T14:04:04.424Z</time></trkpt><trkpt lat="45.643705" lon="10.936495"><ele>938.1666666666667</ele><time>2026-03-22T14:04:06.425Z</time></trkpt><trkpt lat="45.64377" lon="10.9365283"><ele>938.3333333333334</ele><time>2026-03-22T14:04:07.425Z</time></trkpt><trkpt lat="45.6438383" lon="10.9365683"><ele>938.5</ele><time>2026-03-22T14:04:08.425Z</time></trkpt><trkpt lat="45.64391" lon="10.9366067"><ele>938.6666666666667</ele><time>2026-03-22T14:04:09.425Z</time></trkpt><trkpt lat="45.643985" lon="10.9366517"><ele>938.8333333333334</ele><time>2026-03-22T14:04:10.424Z</time></trkpt><trkpt lat="45.6440617" lon="10.9367"><ele>939.0</ele><time>2026-03-22T14:04:11.424Z</time></trkpt><trkpt lat="45.64414" lon="10.93673"><ele>939.2</ele><time>2026-03-22T14:04:12.425Z</time></trkpt><trkpt lat="45.64422" lon="10.9367417"><ele>939.4000000000001</ele><time>2026-03-22T14:04:13.425Z</time></trkpt><trkpt lat="45.644305" lon="10.9367517"><ele>939.6</ele><time>2026-03-22T14:04:14.424Z</time></trkpt><trkpt lat="45.644405" lon="10.9367567"><ele>939.8</ele><time>2026-03-22T14:04:15.424Z</time></trkpt><trkpt lat="45.6444983" lon="10.93676"><ele>940.0</ele><time>2026-03-22T14:04:16.424Z</time></trkpt><trkpt lat="45.644595" lon="10.9367617"><ele>939.2</ele><time>2026-03-22T14:04:17.424Z</time></trkpt><trkpt lat="45.6446917" lon="10.93676"><ele>938.4</ele><time>2026-03-22T14:04:18.424Z</time></trkpt><trkpt lat="45.6447883" lon="10.9367583"><ele>937.5999999999999</ele><time>2026-03-22T14:04:19.424Z</time></trkpt><trkpt lat="45.64488" lon="10.9367533"><ele>936.8</ele><time>2026-03-22T14:04:20.424Z</time></trkpt><trkpt lat="45.64497" lon="10.9367517"><ele>936.0</ele><time>2026-03-22T14:04:21.425Z</time></trkpt><trkpt lat="45.6450533" lon="10.9367517"><ele>936.0</ele><time>2026-03-22T14:04:22.424Z</time></trkpt><trkpt lat="45.6451417" lon="10.936755"><ele>935.9999999999999</ele><time>2026-03-22T14:04:23.425Z</time></trkpt><trkpt lat="45.6452267" lon="10.9367733"><ele>935.9999999999999</ele><time>2026-03-22T14:04:24.425Z</time></trkpt><trkpt lat="45.645315" lon="10.9367683"><ele>936.0</ele><time>2026-03-22T14:04:25.424Z</time></trkpt><trkpt lat="45.6454083" lon="10.9367733"><ele>936.0</ele><time>2026-03-22T14:04:26.424Z</time></trkpt><trkpt lat="45.6455083" lon="10.93678"><ele>935.4</ele><time>2026-03-22T14:04:27.424Z</time></trkpt><trkpt lat="45.6456083" lon="10.9367767"><ele>934.8</ele><time>2026-03-22T14:04:28.425Z</time></trkpt><trkpt lat="45.6457117" lon="10.9367867"><ele>934.1999999999999</ele><time>2026-03-22T14:04:29.425Z</time></trkpt><trkpt lat="45.6458117" lon="10.936805"><ele>933.5999999999999</ele><time>2026-03-22T14:04:30.424Z</time></trkpt><trkpt lat="45.6459" lon="10.9368283"><ele>933.0</ele><time>2026-03-22T14:04:31.424Z</time></trkpt><trkpt lat="45.6459817" lon="10.9368667"><ele>933.0</ele><time>2026-03-22T14:04:32.424Z</time></trkpt><trkpt lat="45.6460567" lon="10.93691"><ele>933.0</ele><time>2026-03-22T14:04:33.424Z</time></trkpt><trkpt lat="45.64613" lon="10.9369533"><ele>933.0</ele><time>2026-03-22T14:04:34.424Z</time></trkpt><trkpt lat="45.6461967" lon="10.9370033"><ele>933.0</ele><time>2026-03-22T14:04:35.425Z</time></trkpt><trkpt lat="45.6462567" lon="10.93704"><ele>933.0</ele><time>2026-03-22T14:04:36.424Z</time></trkpt><trkpt lat="45.6463533" lon="10.9371317"><ele>933.0</ele><time>2026-03-22T14:04:38.424Z</time></trkpt><trkpt lat="45.6464467" lon="10.9372333"><ele>932.8</ele><time>2026-03-22T14:04:40.425Z</time></trkpt><trkpt lat="45.6465033" lon="10.93728"><ele>932.5999999999999</ele><time>2026-03-22T14:04:41.425Z</time></trkpt><trkpt lat="45.6465767" lon="10.9373183"><ele>932.4000000000001</ele><time>2026-03-22T14:04:42.425Z</time></trkpt><trkpt lat="45.6466683" lon="10.93734"><ele>932.2</ele><time>2026-03-22T14:04:43.425Z</time></trkpt><trkpt lat="45.6467733" lon="10.937355"><ele>932.0</ele><time>2026-03-22T14:04:44.424Z</time></trkpt><trkpt lat="45.64689" lon="10.9373517"><ele>933.5</ele><time>2026-03-22T14:04:45.424Z</time></trkpt><trkpt lat="45.6470333" lon="10.9373367"><ele>935.0</ele><time>2026-03-22T14:04:46.424Z</time></trkpt><trkpt lat="45.6471783" lon="10.9373217"><ele>936.5</ele><time>2026-03-22T14:04:47.425Z</time></trkpt><trkpt lat="45.6473117" lon="10.9373267"><ele>938.0</ele><time>2026-03-22T14:04:48.425Z</time></trkpt><trkpt lat="45.6474133" lon="10.9373567"><ele>938.0</ele><time>2026-03-22T14:04:49.424Z</time></trkpt><trkpt lat="45.6474983" lon="10.93739"><ele>938.0</ele><time>2026-03-22T14:04:50.424Z</time></trkpt><trkpt lat="45.6475867" lon="10.9374183"><ele>938.0</ele><time>2026-03-22T14:04:51.424Z</time></trkpt><trkpt lat="45.6476783" lon="10.9374117"><ele>938.0</ele><time>2026-03-22T14:04:52.424Z</time></trkpt><trkpt lat="45.6477833" lon="10.9373783"><ele>938.0</ele><time>2026-03-22T14:04:53.424Z</time></trkpt><trkpt lat="45.647895" lon="10.937315"><ele>940.0</ele><time>2026-03-22T14:04:54.425Z</time></trkpt><trkpt lat="45.6480267" lon="10.9372733"><ele>942.0</ele><time>2026-03-22T14:04:55.424Z</time></trkpt><trkpt lat="45.64815" lon="10.9372517"><ele>944.0</ele><time>2026-03-22T14:04:56.425Z</time></trkpt><trkpt lat="45.6482833" lon="10.9372433"><ele>946.0</ele><time>2026-03-22T14:04:57.424Z</time></trkpt><trkpt lat="45.6484267" lon="10.9372533"><ele>946.0</ele><time>2026-03-22T14:04:58.424Z</time></trkpt><trkpt lat="45.648575" lon="10.9372833"><ele>946.0</ele><time>2026-03-22T14:04:59.424Z</time></trkpt><trkpt lat="45.6487217" lon="10.9373083"><ele>946.0</ele><time>2026-03-22T14:05:00.424Z</time></trkpt><trkpt lat="45.6488767" lon="10.9373217"><ele>947.3333333333333</ele><time>2026-03-22T14:05:01.424Z</time></trkpt><trkpt lat="45.649045" lon="10.9373317"><ele>948.6666666666667</ele><time>2026-03-22T14:05:02.424Z</time></trkpt><trkpt lat="45.64922" lon="10.93733"><ele>950.0</ele><time>2026-03-22T14:05:03.424Z</time></trkpt><trkpt lat="45.64942" lon="10.9373133"><ele>950.6666666666667</ele><time>2026-03-22T14:05:04.424Z</time></trkpt><trkpt lat="45.6496333" lon="10.9372783"><ele>951.3333333333333</ele><time>2026-03-22T14:05:05.424Z</time></trkpt><trkpt lat="45.649865" lon="10.9372467"><ele>952.0</ele><time>2026-03-22T14:05:06.425Z</time></trkpt><trkpt lat="45.6501167" lon="10.9371983"><ele>956.0</ele><time>2026-03-22T14:05:07.424Z</time></trkpt><trkpt lat="45.650365" lon="10.9371467"><ele>960.0</ele><time>2026-03-22T14:05:08.425Z</time></trkpt><trkpt lat="45.650595" lon="10.937105"><ele>960.0</ele><time>2026-03-22T14:05:09.424Z</time></trkpt><trkpt lat="45.6507967" lon="10.9370733"><ele>960.0</ele><time>2026-03-22T14:05:10.424Z</time></trkpt><trkpt lat="45.6509717" lon="10.9370483"><ele>960.0</ele><time>2026-03-22T14:05:11.424Z</time></trkpt><trkpt lat="45.651135" lon="10.93703"><ele>960.75</ele><time>2026-03-22T14:05:12.424Z</time></trkpt><trkpt lat="45.6512867" lon="10.9370167"><ele>961.5</ele><time>2026-03-22T14:05:13.425Z</time></trkpt><trkpt lat="45.651435" lon="10.9370117"><ele>962.25</ele><time>2026-03-22T14:05:14.424Z</time></trkpt><trkpt lat="45.6515817" lon="10.9370083"><ele>963.0</ele><time>2026-03-22T14:05:15.424Z</time></trkpt><trkpt lat="45.6517317" lon="10.9370133"><ele>963.0</ele><time>2026-03-22T14:05:16.424Z</time></trkpt><trkpt lat="45.6518817" lon="10.9370283"><ele>963.0</ele><time>2026-03-22T14:05:17.424Z</time></trkpt><trkpt lat="45.652045" lon="10.9370533"><ele>963.0</ele><time>2026-03-22T14:05:18.425Z</time></trkpt><trkpt lat="45.652215" lon="10.9370833"><ele>962.3333333333333</ele><time>2026-03-22T14:05:19.424Z</time></trkpt><trkpt lat="45.6523867" lon="10.93711"><ele>961.6666666666666</ele><time>2026-03-22T14:05:20.424Z</time></trkpt><trkpt lat="45.6525533" lon="10.9371333"><ele>961.0</ele><time>2026-03-22T14:05:21.425Z</time></trkpt><trkpt lat="45.652715" lon="10.9371367"><ele>962.5</ele><time>2026-03-22T14:05:22.425Z</time></trkpt><trkpt lat="45.6528683" lon="10.9371283"><ele>964.0</ele><time>2026-03-22T14:05:23.425Z</time></trkpt><trkpt lat="45.6530117" lon="10.93713"><ele>965.5</ele><time>2026-03-22T14:05:24.424Z</time></trkpt><trkpt lat="45.65315" lon="10.937145"><ele>967.0</ele><time>2026-03-22T14:05:25.425Z</time></trkpt><trkpt lat="45.6532817" lon="10.937165"><ele>967.0</ele><time>2026-03-22T14:05:26.424Z</time></trkpt><trkpt lat="45.65342" lon="10.93721"><ele>967.0</ele><time>2026-03-22T14:05:27.424Z</time></trkpt><trkpt lat="45.65356" lon="10.9372933"><ele>967.0</ele><time>2026-03-22T14:05:28.425Z</time></trkpt><trkpt lat="45.653695" lon="10.937395"><ele>967.0</ele><time>2026-03-22T14:05:29.424Z</time></trkpt><trkpt lat="45.6538333" lon="10.9375067"><ele>969.6666666666666</ele><time>2026-03-22T14:05:30.424Z</time></trkpt><trkpt lat="45.6539633" lon="10.9376267"><ele>972.3333333333333</ele><time>2026-03-22T14:05:31.425Z</time></trkpt><trkpt lat="45.6540967" lon="10.9377417"><ele>975.0</ele><time>2026-03-22T14:05:32.424Z</time></trkpt><trkpt lat="45.65422" lon="10.93785"><ele>975.0</ele><time>2026-03-22T14:05:33.425Z</time></trkpt><trkpt lat="45.6543333" lon="10.9379583"><ele>975.0</ele><time>2026-03-22T14:05:34.424Z</time></trkpt><trkpt lat="45.654445" lon="10.9380567"><ele>975.0</ele><time>2026-03-22T14:05:35.425Z</time></trkpt><trkpt lat="45.6545483" lon="10.9381583"><ele>975.0</ele><time>2026-03-22T14:05:36.424Z</time></trkpt><trkpt lat="45.6546533" lon="10.9382583"><ele>975.75</ele><time>2026-03-22T14:05:37.425Z</time></trkpt><trkpt lat="45.654765" lon="10.9383567"><ele>976.5</ele><time>2026-03-22T14:05:38.424Z</time></trkpt><trkpt lat="45.6548883" lon="10.93846"><ele>977.25</ele><time>2026-03-22T14:05:39.425Z</time></trkpt><trkpt lat="45.6550267" lon="10.938565"><ele>978.0</ele><time>2026-03-22T14:05:40.425Z</time></trkpt><trkpt lat="45.65517" lon="10.93868"><ele>982.3333333333333</ele><time>2026-03-22T14:05:41.425Z</time></trkpt><trkpt lat="45.6553233" lon="10.93879"><ele>986.6666666666666</ele><time>2026-03-22T14:05:42.424Z</time></trkpt><trkpt lat="45.6554767" lon="10.9388967"><ele>991.0</ele><time>2026-03-22T14:05:43.424Z</time></trkpt><trkpt lat="45.6556333" lon="10.9389967"><ele>991.0</ele><time>2026-03-22T14:05:44.425Z</time></trkpt><trkpt lat="45.6557967" lon="10.9390867"><ele>991.0</ele><time>2026-03-22T14:05:45.424Z</time></trkpt><trkpt lat="45.655965" lon="10.9391783"><ele>991.0</ele><time>2026-03-22T14:05:46.424Z</time></trkpt><trkpt lat="45.6561483" lon="10.9392583"><ele>993.3333333333333</ele><time>2026-03-22T14:05:47.424Z</time></trkpt><trkpt lat="45.6563383" lon="10.93935"><ele>995.6666666666667</ele><time>2026-03-22T14:05:48.424Z</time></trkpt><trkpt lat="45.6565383" lon="10.9394383"><ele>998.0</ele><time>2026-03-22T14:05:49.424Z</time></trkpt><trkpt lat="45.6567517" lon="10.9395183"><ele>1001.0</ele><time>2026-03-22T14:05:50.424Z</time></trkpt><trkpt lat="45.6569767" lon="10.9395983"><ele>1004.0</ele><time>2026-03-22T14:05:51.425Z</time></trkpt><trkpt lat="45.6571983" lon="10.9396783"><ele>1004.0</ele><time>2026-03-22T14:05:52.425Z</time></trkpt><trkpt lat="45.657415" lon="10.9397417"><ele>1004.0</ele><time>2026-03-22T14:05:53.424Z</time></trkpt><trkpt lat="45.6576067" lon="10.9398033"><ele>1004.0</ele><time>2026-03-22T14:05:54.424Z</time></trkpt><trkpt lat="45.65777" lon="10.9398617"><ele>1006.0</ele><time>2026-03-22T14:05:55.425Z</time></trkpt><trkpt lat="45.65792" lon="10.93991"><ele>1008.0</ele><time>2026-03-22T14:05:56.424Z</time></trkpt><trkpt lat="45.6580567" lon="10.93996"><ele>1010.0</ele><time>2026-03-22T14:05:57.424Z</time></trkpt><trkpt lat="45.65819" lon="10.940015"><ele>1012.0</ele><time>2026-03-22T14:05:58.425Z</time></trkpt><trkpt lat="45.6583133" lon="10.9400617"><ele>1013.25</ele><time>2026-03-22T14:05:59.424Z</time></trkpt><trkpt lat="45.65845" lon="10.9401217"><ele>1014.5</ele><time>2026-03-22T14:06:00.425Z</time></trkpt><trkpt lat="45.6585733" lon="10.940215"><ele>1015.75</ele><time>2026-03-22T14:06:01.424Z</time></trkpt><trkpt lat="45.6586717" lon="10.940305"><ele>1017.0</ele><time>2026-03-22T14:06:02.425Z</time></trkpt><trkpt lat="45.6587433" lon="10.9404217"><ele>1020.0</ele><time>2026-03-22T14:06:03.425Z</time></trkpt><trkpt lat="45.6587983" lon="10.9405633"><ele>1023.0</ele><time>2026-03-22T14:06:04.425Z</time></trkpt><trkpt lat="45.6588483" lon="10.9407433"><ele>1026.0</ele><time>2026-03-22T14:06:05.425Z</time></trkpt><trkpt lat="45.6588783" lon="10.9409617"><ele>1029.0</ele><time>2026-03-22T14:06:06.425Z</time></trkpt><trkpt lat="45.6588933" lon="10.9412167"><ele>1032.0</ele><time>2026-03-22T14:06:07.425Z</time></trkpt><trkpt lat="45.6589" lon="10.9414933"><ele>1035.0</ele><time>2026-03-22T14:06:08.424Z</time></trkpt><trkpt lat="45.658895" lon="10.94178"><ele>1038.0</ele><time>2026-03-22T14:06:09.425Z</time></trkpt><trkpt lat="45.658895" lon="10.9420617"><ele>1039.0</ele><time>2026-03-22T14:06:10.424Z</time></trkpt><trkpt lat="45.65889" lon="10.942315"><ele>1040.0</ele><time>2026-03-22T14:06:11.424Z</time></trkpt><trkpt lat="45.6588933" lon="10.94253"><ele>1041.0</ele><time>2026-03-22T14:06:12.425Z</time></trkpt><trkpt lat="45.6589" lon="10.9427167"><ele>1041.0</ele><time>2026-03-22T14:06:13.424Z</time></trkpt><trkpt lat="45.65891" lon="10.942885"><ele>1041.0</ele><time>2026-03-22T14:06:14.424Z</time></trkpt><trkpt lat="45.6589467" lon="10.9430383"><ele>1041.0</ele><time>2026-03-22T14:06:15.425Z</time></trkpt><trkpt lat="45.6590017" lon="10.9431733"><ele>1041.0</ele><time>2026-03-22T14:06:16.425Z</time></trkpt><trkpt lat="45.659085" lon="10.9432883"><ele>1040.0</ele><time>2026-03-22T14:06:17.425Z</time></trkpt><trkpt lat="45.6591783" lon="10.9433817"><ele>1039.0</ele><time>2026-03-22T14:06:18.424Z</time></trkpt><trkpt lat="45.6592783" lon="10.9434433"><ele>1038.0</ele><time>2026-03-22T14:06:19.425Z</time></trkpt><trkpt lat="45.6594" lon="10.9434617"><ele>1037.0</ele><time>2026-03-22T14:06:20.425Z</time></trkpt><trkpt lat="45.6595367" lon="10.9434417"><ele>1037.0</ele><time>2026-03-22T14:06:21.424Z</time></trkpt><trkpt lat="45.6596883" lon="10.9433983"><ele>1037.0</ele><time>2026-03-22T14:06:22.425Z</time></trkpt><trkpt lat="45.6598417" lon="10.9433233"><ele>1037.0</ele><time>2026-03-22T14:06:23.425Z</time></trkpt><trkpt lat="45.6600067" lon="10.943235"><ele>1040.3333333333335</ele><time>2026-03-22T14:06:24.425Z</time></trkpt><trkpt lat="45.6601883" lon="10.943155"><ele>1043.6666666666667</ele><time>2026-03-22T14:06:25.424Z</time></trkpt><trkpt lat="45.6603817" lon="10.94307"><ele>1047.0</ele><time>2026-03-22T14:06:26.424Z</time></trkpt><trkpt lat="45.6605867" lon="10.9429817"><ele>1048.6666666666667</ele><time>2026-03-22T14:06:27.424Z</time></trkpt><trkpt lat="45.6608" lon="10.9428917"><ele>1050.3333333333335</ele><time>2026-03-22T14:06:28.425Z</time></trkpt><trkpt lat="45.661" lon="10.942805"><ele>1052.0</ele><time>2026-03-22T14:06:29.425Z</time></trkpt><trkpt lat="45.66118" lon="10.942725"><ele>1055.6666666666667</ele><time>2026-03-22T14:06:30.424Z</time></trkpt><trkpt lat="45.6613533" lon="10.942645"><ele>1059.3333333333333</ele><time>2026-03-22T14:06:31.425Z</time></trkpt><trkpt lat="45.6615133" lon="10.9425617"><ele>1063.0</ele><time>2026-03-22T14:06:32.424Z</time></trkpt><trkpt lat="45.661665" lon="10.9424767"><ele>1064.3333333333333</ele><time>2026-03-22T14:06:33.424Z</time></trkpt><trkpt lat="45.6618033" lon="10.9423633"><ele>1065.6666666666667</ele><time>2026-03-22T14:06:34.425Z</time></trkpt><trkpt lat="45.66194" lon="10.9422117"><ele>1067.0</ele><time>2026-03-22T14:06:35.424Z</time></trkpt><trkpt lat="45.6620767" lon="10.942015"><ele>1071.3333333333335</ele><time>2026-03-22T14:06:36.425Z</time></trkpt><trkpt lat="45.6622" lon="10.9418"><ele>1075.6666666666667</ele><time>2026-03-22T14:06:37.424Z</time></trkpt><trkpt lat="45.6623033" lon="10.9416067"><ele>1080.0</ele><time>2026-03-22T14:06:38.424Z</time></trkpt><trkpt lat="45.6623933" lon="10.9414483"><ele>1080.0</ele><time>2026-03-22T14:06:39.425Z</time></trkpt><trkpt lat="45.66248" lon="10.9413117"><ele>1080.0</ele><time>2026-03-22T14:06:40.424Z</time></trkpt><trkpt lat="45.66259" lon="10.94118"><ele>1080.0</ele><time>2026-03-22T14:06:41.425Z</time></trkpt><trkpt lat="45.662725" lon="10.9410533"><ele>1080.0</ele><time>2026-03-22T14:06:42.425Z</time></trkpt><trkpt lat="45.6628817" lon="10.9409333"><ele>1084.0</ele><time>2026-03-22T14:06:43.425Z</time></trkpt><trkpt lat="45.6630417" lon="10.9408"><ele>1088.0</ele><time>2026-03-22T14:06:44.424Z</time></trkpt><trkpt lat="45.6631933" lon="10.9406683"><ele>1092.0</ele><time>2026-03-22T14:06:45.425Z</time></trkpt><trkpt lat="45.6633267" lon="10.9405517"><ele>1092.0</ele><time>2026-03-22T14:06:46.424Z</time></trkpt><trkpt lat="45.66345" lon="10.9404533"><ele>1092.0</ele><time>2026-03-22T14:06:47.425Z</time></trkpt><trkpt lat="45.6635583" lon="10.9403783"><ele>1092.0</ele><time>2026-03-22T14:06:48.424Z</time></trkpt><trkpt lat="45.663665" lon="10.9403383"><ele>1092.0</ele><time>2026-03-22T14:06:49.424Z</time></trkpt><trkpt lat="45.6637533" lon="10.94034"><ele>1095.6</ele><time>2026-03-22T14:06:50.424Z</time></trkpt><trkpt lat="45.663835" lon="10.9403917"><ele>1099.2</ele><time>2026-03-22T14:06:51.424Z</time></trkpt><trkpt lat="45.6639067" lon="10.9404767"><ele>1102.8</ele><time>2026-03-22T14:06:52.425Z</time></trkpt><trkpt lat="45.6639483" lon="10.9405983"><ele>1106.4</ele><time>2026-03-22T14:06:53.424Z</time></trkpt><trkpt lat="45.6639483" lon="10.9407533"><ele>1110.0</ele><time>2026-03-22T14:06:54.425Z</time></trkpt><trkpt lat="45.6639117" lon="10.9409017"><ele>1112.6</ele><time>2026-03-22T14:06:55.424Z</time></trkpt><trkpt lat="45.663865" lon="10.941025"><ele>1115.2</ele><time>2026-03-22T14:06:56.424Z</time></trkpt><trkpt lat="45.6638217" lon="10.9411267"><ele>1117.8</ele><time>2026-03-22T14:06:57.424Z</time></trkpt><trkpt lat="45.6637617" lon="10.9412417"><ele>1120.4</ele><time>2026-03-22T14:06:59.425Z</time></trkpt><trkpt lat="45.6637383" lon="10.9413467"><ele>1123.0</ele><time>2026-03-22T14:07:15.424Z</time></trkpt><trkpt lat="45.6636741" lon="10.9415774"><ele>1123.0</ele><time>2026-03-22T14:13:39.425Z</time></trkpt><trkpt lat="45.6636671" lon="10.9417127"><ele>1123.0</ele><time>2026-03-22T14:13:40.425Z</time></trkpt><trkpt lat="45.6636723" lon="10.9418319"><ele>1123.0</ele><time>2026-03-22T14:13:41.425Z</time></trkpt><trkpt lat="45.6636803" lon="10.9419455"><ele>1123.0</ele><time>2026-03-22T14:13:42.426Z</time></trkpt><trkpt lat="45.6636971" lon="10.9420486"><ele>1123.0</ele><time>2026-03-22T14:13:43.425Z</time></trkpt><trkpt lat="45.6637164" lon="10.9421474"><ele>1123.0</ele><time>2026-03-22T14:13:44.425Z</time></trkpt><trkpt lat="45.6637446" lon="10.9422527"><ele>1122.8333333333333</ele><time>2026-03-22T14:13:45.425Z</time></trkpt><trkpt lat="45.6637823" lon="10.9423594"><ele>1122.6666666666665</ele><time>2026-03-22T14:13:46.426Z</time></trkpt><trkpt lat="45.6638291" lon="10.9424731"><ele>1122.5</ele><time>2026-03-22T14:13:47.426Z</time></trkpt><trkpt lat="45.6638773" lon="10.9425875"><ele>1122.3333333333333</ele><time>2026-03-22T14:13:48.425Z</time></trkpt><trkpt lat="45.6639218" lon="10.9426963"><ele>1122.1666666666667</ele><time>2026-03-22T14:13:49.426Z</time></trkpt><trkpt lat="45.6639624" lon="10.9428045"><ele>1122.0</ele><time>2026-03-22T14:13:50.425Z</time></trkpt><trkpt lat="45.6640094" lon="10.9429147"><ele>1121.8</ele><time>2026-03-22T14:13:51.425Z</time></trkpt><trkpt lat="45.664055" lon="10.9430234"><ele>1121.6</ele><time>2026-03-22T14:13:52.425Z</time></trkpt><trkpt lat="45.6641058" lon="10.943136"><ele>1121.3999999999999</ele><time>2026-03-22T14:13:53.426Z</time></trkpt><trkpt lat="45.6641534" lon="10.9432447"><ele>1121.2</ele><time>2026-03-22T14:13:54.425Z</time></trkpt><trkpt lat="45.664201" lon="10.9433496"><ele>1121.0</ele><time>2026-03-22T14:13:55.426Z</time></trkpt><trkpt lat="45.6642489" lon="10.9434648"><ele>1121.0</ele><time>2026-03-22T14:13:56.425Z</time></trkpt><trkpt lat="45.6642916" lon="10.943577"><ele>1121.0</ele><time>2026-03-22T14:13:57.426Z</time></trkpt><trkpt lat="45.6643286" lon="10.9436946"><ele>1121.0</ele><time>2026-03-22T14:13:58.425Z</time></trkpt><trkpt lat="45.6643567" lon="10.9438149"><ele>1121.0</ele><time>2026-03-22T14:13:59.426Z</time></trkpt><trkpt lat="45.6643865" lon="10.9439382"><ele>1121.0</ele><time>2026-03-22T14:14:00.425Z</time></trkpt><trkpt lat="45.664416" lon="10.9440648"><ele>1125.3999999999999</ele><time>2026-03-22T14:14:01.426Z</time></trkpt><trkpt lat="45.664447" lon="10.944196"><ele>1129.8</ele><time>2026-03-22T14:14:02.425Z</time></trkpt><trkpt lat="45.6644802" lon="10.9443307"><ele>1134.1999999999998</ele><time>2026-03-22T14:14:03.426Z</time></trkpt><trkpt lat="45.6645152" lon="10.9444684"><ele>1138.6</ele><time>2026-03-22T14:14:04.425Z</time></trkpt><trkpt lat="45.6645516" lon="10.9446045"><ele>1143.0</ele><time>2026-03-22T14:14:05.425Z</time></trkpt><trkpt lat="45.6645882" lon="10.9447411"><ele>1143.0</ele><time>2026-03-22T14:14:06.426Z</time></trkpt><trkpt lat="45.6646291" lon="10.9448766"><ele>1143.0</ele><time>2026-03-22T14:14:07.426Z</time></trkpt><trkpt lat="45.6646719" lon="10.9450115"><ele>1143.0</ele><time>2026-03-22T14:14:08.425Z</time></trkpt><trkpt lat="45.6647181" lon="10.9451452"><ele>1143.0</ele><time>2026-03-22T14:14:09.425Z</time></trkpt><trkpt lat="45.6647651" lon="10.9452747"><ele>1143.0</ele><time>2026-03-22T14:14:10.426Z</time></trkpt><trkpt lat="45.6648134" lon="10.9454013"><ele>1142.4</ele><time>2026-03-22T14:14:11.425Z</time></trkpt><trkpt lat="45.6648696" lon="10.9455242"><ele>1141.8</ele><time>2026-03-22T14:14:12.425Z</time></trkpt><trkpt lat="45.664923" lon="10.9456388"><ele>1141.2</ele><time>2026-03-22T14:14:13.426Z</time></trkpt><trkpt lat="45.6649739" lon="10.9457515"><ele>1140.6</ele><time>2026-03-22T14:14:14.425Z</time></trkpt><trkpt lat="45.6650263" lon="10.9458635"><ele>1140.0</ele><time>2026-03-22T14:14:15.426Z</time></trkpt><trkpt lat="45.6650791" lon="10.9459638"><ele>1139.3333333333333</ele><time>2026-03-22T14:14:16.426Z</time></trkpt><trkpt lat="45.6651272" lon="10.9460537"><ele>1138.6666666666667</ele><time>2026-03-22T14:14:17.425Z</time></trkpt><trkpt lat="45.6651684" lon="10.9461304"><ele>1138.0</ele><time>2026-03-22T14:14:18.425Z</time></trkpt><trkpt lat="45.66523" lon="10.9462433"><ele>1137.3333333333335</ele><time>2026-03-22T14:14:20.426Z</time></trkpt><trkpt lat="45.665285" lon="10.9463217"><ele>1136.6666666666667</ele><time>2026-03-22T14:14:50.425Z</time></trkpt><trkpt lat="45.66531" lon="10.9462367"><ele>1136.0</ele><time>2026-03-22T14:14:54.426Z</time></trkpt><trkpt lat="45.6652317" lon="10.9461967"><ele>1136.0</ele><time>2026-03-22T14:14:56.426Z</time></trkpt><trkpt lat="45.6651533" lon="10.9460867"><ele>1136.0</ele><time>2026-03-22T14:14:58.425Z</time></trkpt><trkpt lat="45.6651167" lon="10.9460083"><ele>1136.0</ele><time>2026-03-22T14:14:59.426Z</time></trkpt><trkpt lat="45.665075" lon="10.9459233"><ele>1136.0</ele><time>2026-03-22T14:15:00.425Z</time></trkpt><trkpt lat="45.6650317" lon="10.945835"><ele>1136.0</ele><time>2026-03-22T14:15:01.425Z</time></trkpt><trkpt lat="45.6649883" lon="10.9457367"><ele>1136.0</ele><time>2026-03-22T14:15:02.425Z</time></trkpt><trkpt lat="45.6646683" lon="10.944885"><ele>1143.0</ele><time>2026-03-22T14:15:18.426Z</time></trkpt></trkseg></trk></gpx>